GFSWCAN_500_spd_048.txt.gz
Wind_Speed
22 21 21 22 23 25 27 29 31 33 34 33 37 39 39 38 39 42 42 39 39 39 36 36 35 36 37 35 32 32 31 31 33 35 33 34 37 38 38 37 37 36 36 36 38 35 26 28 33 34 33 29 37 56
17 17 17 18 19 20 22 24 27 29 31 34 35 37 39 40 43 44 44 42 43 43 43 41 40 36 37 40 39 37 34 33 35 40 41 39 38 38 37 39 41 42 42 43 41 37 37 34 35 34 27 29 32 45
11 13 15 17 20 23 25 27 29 30 33 36 39 41 43 44 45 44 44 43 44 49 49 48 43 42 41 41 43 41 39 38 41 44 47 46 45 44 44 44 45 45 45 45 45 38 39 35 33 36 34 33 31 35
12 14 17 20 22 25 27 28 29 31 33 35 36 38 39 41 42 45 46 45 46 47 48 49 48 46 45 44 44 41 37 38 41 46 49 51 50 49 47 46 46 44 44 45 46 45 44 39 39 34 33 36 24 39
13 17 18 20 22 25 28 29 31 31 32 34 35 35 37 37 36 36 39 38 42 46 49 51 49 47 47 47 45 42 37 36 41 43 43 47 48 48 48 47 48 48 48 50 48 49 46 40 39 37 32 31 24 28
8 9 10 10 10 11 13 18 23 27 29 30 31 33 32 32 34 35 35 35 34 36 42 45 44 47 49 51 49 47 40 34 37 39 44 44 39 37 39 38 40 42 46 48 49 47 42 38 36 38 36 33 20 17
10 10 9 5 3 6 8 11 15 21 25 30 32 31 30 30 30 33 33 28 29 34 33 33 32 33 38 40 42 50 40 31 26 29 34 39 36 35 35 32 31 29 32 32 33 37 37 34 32 38 38 26 24 19
11 14 12 11 13 9 3 1 4 9 16 20 30 34 31 28 29 29 26 28 30 27 26 25 29 35 36 35 38 39 32 33 21 20 25 27 30 34 34 29 31 29 35 31 21 28 33 31 35 39 36 30 29 22
11 15 18 17 18 17 13 14 18 21 23 28 33 38 35 29 29 29 28 28 27 26 25 24 19 24 35 28 28 39 36 34 23 24 29 29 30 34 38 38 34 31 29 27 28 27 31 31 35 36 35 31 31 32
13 17 22 25 24 27 34 30 28 38 33 37 39 37 30 32 32 36 36 28 22 26 28 12 14 17 28 25 29 35 38 35 29 29 25 28 29 30 33 38 41 30 31 32 30 32 31 29 30 32 33 33 32 33
21 27 30 30 34 34 33 40 37 31 31 33 36 36 39 32 28 26 25 28 24 18 17 17 19 19 28 26 34 30 30 27 24 20 27 28 21 24 25 23 19 25 28 32 30 22 29 32 32 31 32 33 36 39
24 27 27 27 28 33 33 32 26 34 35 33 33 35 36 34 27 26 23 19 22 24 19 18 16 17 17 20 18 23 27 26 27 24 24 30 27 24 25 24 23 22 21 25 27 29 26 29 30 32 33 37 39 39
19 20 20 20 19 26 32 32 35 33 36 34 32 28 26 26 29 26 25 21 20 20 19 19 11 13 15 16 22 23 24 25 25 26 28 24 22 21 19 22 22 12 12 20 30 24 21 28 31 37 34 32 38 40
18 18 19 22 23 21 20 22 26 24 28 24 20 21 22 23 20 18 20 15 12 15 15 15 16 12 12 17 19 20 22 22 22 23 21 19 19 18 19 25 17 16 19 20 24 29 30 30 31 34 37 40 43 42
17 18 18 19 19 20 18 16 19 20 19 18 17 13 13 12 13 15 15 13 12 13 14 14 15 14 15 11 11 12 15 20 19 17 15 15 16 20 23 22 17 14 19 18 20 22 21 23 26 30 30 27 30 35
15 16 18 21 21 20 18 18 18 16 14 13 11 11 12 12 11 11 11 11 11 12 13 14 14 19 18 16 13 9 9 5 6 8 11 15 19 20 23 23 21 21 21 23 14 16 23 25 27 25 20 20 23 24
15 16 17 18 21 22 21 18 16 14 12 10 9 10 11 12 11 11 14 14 13 14 14 10 9 12 23 19 10 4 4 7 4 9 13 16 18 20 18 19 21 20 18 10 10 13 13 16 19 21 21 22 24 26
15 14 15 16 18 19 20 18 15 11 10 11 11 16 20 19 16 14 13 13 14 15 15 13 10 14 14 11 9 5 6 5 5 6 15 20 19 18 20 19 17 14 13 13 15 17 19 21 23 25 27 29 31 32
15 11 13 14 13 16 21 16 14 13 15 21 20 18 16 14 12 9 8 9 11 11 13 15 17 16 14 12 5 2 6 9 10 3 3 5 5 6 8 9 10 13 15 18 20 23 25 28 31 34 36 38 41 43
14 16 19 20 18 19 23 20 19 19 21 21 22 24 24 24 23 24 22 20 22 21 20 18 14 10 5 2 5 8 8 7 5 4 2 1 4 6 10 14 17 21 24 28 30 33 36 39 41 44 47 49 51 53
16 20 20 18 20 28 27 26 24 26 25 25 25 25 25 25 25 24 24 25 22 20 16 14 14 16 15 12 9 6 3 1 2 4 7 10 14 17 21 24 28 31 35 38 41 43 46 49 50 51 52 53 55 56
25 28 27 27 31 34 32 29 30 30 27 24 23 20 19 16 15 13 13 21 13 12 9 10 10 7 6 3 2 3 6 9 12 15 18 21 24 28 31 34 37 40 43 45 47 49 51 52 52 52 51 50 48 48
26 33 35 39 38 35 33 29 29 25 21 18 15 13 12 14 14 14 16 14 7 5 4 3 2 2 4 7 9 12 14 16 18 20 23 27 31 35 39 43 47 50 52 52 52 51 48 46 43 40 38 35 32 30
38 38 40 40 37 33 28 26 23 18 13 10 9 6 8 9 10 13 9 5 1 2 5 7 9 10 12 14 16 18 20 23 26 30 34 39 43 47 51 54 56 56 54 50 46 40 36 34 31 29 27 25 26 27
37 35 34 31 30 26 22 19 17 12 9 10 11 9 9 6 4 3 0 3 7 10 12 14 16 18 20 22 24 26 29 32 34 38 43 47 52 57 59 59 54 49 46 43 39 35 31 28 26 25 25 26 25 20
27 26 24 23 21 19 15 15 13 11 10 9 6 3 1 3 5 7 9 12 15 18 20 22 23 25 27 28 30 32 34 37 41 46 50 55 59 58 52 47 44 43 41 38 35 32 29 26 24 23 22 17 15 17
18 18 19 17 16 14 12 11 9 7 5 4 2 4 6 9 11 14 17 20 23 25 26 27 27 29 31 33 36 38 40 44 48 51 57 57 51 45 41 40 40 38 34 29 25 22 21 19 18 15 13 14 17 22
11 11 12 11 10 9 8 5 3 3 3 5 8 11 13 16 19 21 23 26 27 28 28 30 32 34 35 37 38 40 44 46 50 55 52 46 41 37 36 36 32 26 19 15 13 12 12 9 8 10 14 18 23 25
9 7 5 6 6 5 5 5 6 7 9 11 14 17 19 21 23 25 27 28 29 30 32 34 36 37 38 39 42 45 46 49 52 48 43 39 32 30 27 21 14 10 8 8 5 3 4 7 11 15 20 23 25 28
9 9 8 7 7 7 8 9 9 11 15 18 19 21 23 26 27 29 30 31 32 33 35 36 37 39 40 43 45 46 49 50 47 43 37 31 23 19 14 8 5 4 3 3 4 7 10 14 19 21 23 26 28 29
11 10 9 9 10 11 12 13 15 18 20 22 24 25 27 28 30 31 31 33 35 36 38 39 40 42 44 45 47 49 48 46 43 37 32 24 18 14 11 8 7 7 9 11 13 15 18 21 22 23 26 28 29 32
14 14 13 13 14 15 17 19 21 23 25 27 28 29 30 31 31 33 35 37 39 40 40 41 43 44 46 48 49 47 45 41 35 31 26 20 17 16 15 15 15 15 16 17 19 21 23 24 25 27 29 30 32 34
17 16 16 17 19 20 21 23 24 27 29 29 29 30 31 32 33 36 39 40 40 42 43 45 46 48 49 48 45 41 37 34 32 27 21 17 17 18 18 19 19 20 21 22 23 25 26 27 28 30 31 33 35 37

GFSWCAN_500_spd_051.txt.gz
Wind_Speed
23 23 23 23 22 21 20 20 20 22 24 27 30 32 34 36 36 39 35 32 31 31 23 22 21 23 23 22 22 19 20 21 24 26 26 24 25 25 26 27 26 26 25 24 23 18 17 21 25 26 25 24 26 26
19 18 17 16 16 17 18 19 20 22 25 27 30 32 33 34 38 40 36 33 31 32 25 24 26 27 26 27 28 25 23 24 25 29 29 27 27 26 27 28 29 29 28 28 26 24 25 29 33 33 32 28 30 31
13 14 14 14 14 15 16 18 19 20 23 25 27 30 31 33 37 39 37 34 33 34 31 31 29 30 27 28 29 26 26 27 27 30 31 31 31 30 30 30 30 32 34 33 32 30 32 35 38 37 35 33 34 37
14 14 15 15 15 16 17 18 20 22 22 25 29 31 32 34 37 39 36 35 36 35 36 34 31 30 30 28 28 26 26 28 27 30 33 34 34 33 32 32 32 32 33 34 34 36 37 39 42 40 40 38 37 38
14 14 14 14 16 20 23 23 22 22 23 25 28 32 34 34 36 38 38 37 35 34 35 32 32 29 28 27 26 26 26 24 25 30 34 37 37 37 36 36 36 37 37 38 39 39 41 42 44 44 45 43 41 38
8 10 10 12 13 12 12 18 24 26 25 24 25 27 28 29 30 32 34 36 36 36 36 36 33 31 30 29 30 29 27 26 26 29 33 37 38 39 40 40 37 37 38 40 42 44 46 47 49 50 50 49 45 36
12 11 10 8 4 6 10 14 18 22 27 27 25 25 27 28 30 29 31 24 25 27 30 31 31 30 31 32 32 32 31 29 27 27 30 32 33 36 41 39 35 35 37 40 44 46 47 47 50 47 46 44 41 34
13 13 12 12 7 3 1 8 13 18 24 28 28 26 27 27 28 28 26 26 24 23 25 26 23 24 27 25 27 29 31 31 25 25 27 24 20 25 30 30 36 38 34 34 37 40 40 38 35 33 37 38 36 39
15 16 20 24 20 14 6 8 12 17 23 27 30 30 29 27 25 25 28 26 29 30 27 21 18 21 21 21 20 20 23 26 32 37 34 25 12 21 13 18 22 29 33 32 30 36 32 29 25 29 35 37 34 32
20 20 20 25 30 33 21 17 17 21 26 31 34 33 30 28 25 26 22 23 25 25 24 23 22 18 17 20 24 21 23 25 30 33 30 29 28 20 19 22 24 29 32 33 32 34 33 31 28 26 30 36 35 29
24 26 23 31 34 32 30 31 35 35 39 43 41 34 29 31 28 28 27 24 23 23 23 21 20 17 17 19 15 19 19 25 32 35 23 25 26 21 20 21 24 21 19 27 31 36 36 35 29 25 25 30 29 29
23 26 26 21 27 29 28 33 34 37 38 31 30 31 32 31 25 26 23 21 25 26 25 24 19 19 15 21 19 16 17 21 28 26 19 18 14 16 19 19 17 20 19 20 23 26 25 27 28 30 26 26 30 32
15 21 27 28 29 26 31 37 38 37 37 33 30 31 28 27 24 22 22 22 19 24 21 20 17 18 17 20 28 24 21 18 22 20 21 13 14 16 20 23 20 17 20 18 14 12 17 20 24 24 25 26 28 34
16 16 21 27 27 27 27 31 37 38 32 23 22 20 21 24 21 21 19 20 20 19 20 16 19 18 18 23 23 20 21 20 22 23 22 18 19 20 20 19 17 14 13 17 19 18 20 22 26 30 31 34 33 35
21 20 20 20 19 17 18 21 19 22 20 20 19 18 18 19 20 18 16 16 17 15 14 13 15 14 16 19 20 19 18 19 17 14 14 16 18 17 16 14 12 12 16 21 18 21 22 23 26 27 26 27 29 30
18 20 19 18 17 16 15 16 15 12 11 13 13 12 12 12 12 14 11 11 13 14 14 14 15 12 14 16 16 14 13 9 10 16 16 17 16 16 12 13 16 22 23 21 22 24 27 25 25 27 26 23 21 22
15 17 18 18 17 15 14 13 12 9 9 8 8 9 10 11 11 11 10 10 12 14 12 11 13 14 15 10 7 5 6 10 9 10 8 4 8 13 16 19 19 19 20 23 24 18 17 17 17 19 21 22 23 24
15 17 18 17 15 16 15 13 10 9 7 7 8 8 9 9 9 11 13 14 13 15 14 11 8 10 13 14 12 9 7 2 3 6 6 13 15 17 16 18 19 19 20 19 18 18 20 21 23 24 25 28 30 32
15 16 16 16 16 15 12 10 8 9 11 14 14 14 12 10 9 9 9 9 11 10 9 9 8 8 9 8 7 6 6 4 6 10 8 3 6 10 13 13 13 14 16 18 21 24 26 28 31 33 35 37 40 42
14 16 16 15 16 14 12 11 14 16 15 12 11 10 8 7 8 9 9 9 9 9 9 10 11 11 10 6 2 6 7 5 7 6 4 3 3 6 9 12 15 19 23 26 29 32 35 38 40 43 45 48 50 51
14 14 15 14 18 19 17 18 18 18 22 16 15 22 25 29 27 24 24 22 19 15 13 11 10 10 11 11 9 7 4 1 2 4 6 8 11 14 17 21 24 28 32 35 39 43 46 48 50 52 53 53 53 53
19 20 21 23 25 24 23 23 25 24 25 25 25 23 21 20 22 26 26 22 17 17 14 12 11 9 7 5 2 1 4 7 10 14 17 19 22 25 29 32 35 38 41 44 46 49 50 52 53 52 51 50 49 49
27 29 33 32 30 29 27 25 23 23 21 19 18 15 14 13 16 20 19 13 10 9 7 6 5 4 5 7 9 12 14 17 19 22 24 27 29 31 34 38 42 46 50 52 53 53 53 52 50 47 44 42 39 37
32 34 33 31 30 29 26 24 20 16 13 13 13 10 12 11 13 14 10 6 4 3 5 7 8 10 11 13 15 16 19 21 24 26 29 32 35 39 43 47 51 53 54 53 50 48 46 44 41 39 36 33 30 28
33 33 31 29 27 26 20 17 12 9 10 14 12 9 8 7 6 5 3 3 6 8 11 12 13 14 16 18 21 23 25 27 29 31 34 39 42 47 51 53 53 50 46 44 43 42 40 37 35 32 30 27 25 24
33 30 28 24 21 18 14 11 9 11 10 9 7 5 4 4 6 7 8 10 13 15 18 19 20 21 23 25 27 28 30 32 35 38 42 46 50 53 51 47 44 42 41 41 40 36 31 26 23 21 19 19 18 16
24 23 21 17 14 11 10 8 8 7 4 4 3 4 6 8 10 13 15 18 20 22 23 23 24 25 27 29 30 32 35 37 41 44 47 49 50 48 45 42 38 36 36 32 25 18 15 14 13 13 12 11 12 15
15 13 13 10 8 7 7 4 2 1 2 3 5 8 12 14 16 18 20 23 24 24 25 26 29 31 31 33 35 37 40 43 45 46 48 48 47 44 39 34 30 28 22 15 11 10 9 7 6 6 9 12 16 20
13 10 7 7 5 3 1 1 3 4 6 9 12 15 17 18 20 23 24 25 27 27 29 31 32 33 36 38 39 42 44 46 47 48 47 44 41 36 30 25 22 19 14 9 5 4 5 7 9 12 16 19 21 23
8 6 4 3 3 4 5 7 8 10 12 15 17 19 21 23 25 26 28 28 29 30 32 34 36 38 39 41 44 46 47 48 48 47 43 38 33 29 24 19 15 13 12 11 11 12 14 15 17 19 22 22 24 27
8 7 7 7 8 9 10 11 12 13 16 19 22 24 27 28 29 28 30 31 32 34 37 38 39 41 44 47 48 49 49 47 44 40 35 32 30 26 21 18 18 18 17 17 18 18 19 21 22 24 25 26 28 30
11 12 12 12 13 14 14 15 16 19 22 23 25 29 31 30 30 32 33 35 38 40 40 42 44 47 49 49 48 48 45 40 36 34 33 31 27 22 19 19 19 20 21 22 23 23 24 25 26 27 28 29 30 31
14 14 15 16 17 17 19 21 23 24 25 28 31 32 32 32 33 35 37 39 41 42 44 47 50 49 48 48 45 41 37 34 33 33 30 25 21 19 18 18 19 20 22 23 24 25 26 27 28 28 29 30 31 33

GFSWCAN_500_spd_054.txt.gz
Wind_Speed
23 22 22 22 23 22 22 20 19 19 19 21 24 27 30 33 35 35 31 32 30 25 32 34 32 28 24 22 19 17 16 21 26 24 25 25 23 24 25 23 25 24 21 19 17 17 16 17 19 21 19 18 18 18
15 15 15 17 18 18 18 18 16 15 17 20 22 24 27 30 31 32 31 28 27 32 34 34 33 22 22 24 23 20 17 20 27 26 26 24 23 23 23 25 24 24 20 18 19 19 23 23 22 21 21 21 23 24
9 10 11 11 12 13 15 13 15 15 16 18 20 24 27 29 31 29 26 27 31 31 34 35 25 17 18 19 21 23 21 22 24 28 28 27 26 25 24 22 22 23 23 21 21 23 24 26 25 26 28 29 29 28
15 15 15 16 16 13 11 13 14 15 16 18 21 23 26 27 28 26 27 31 31 28 30 25 18 18 18 19 18 19 22 22 24 28 28 27 25 26 25 23 22 22 22 23 24 26 27 28 29 30 33 34 36 36
15 14 13 13 14 14 17 16 15 16 16 18 19 19 23 24 25 27 29 32 28 23 26 22 20 20 21 21 21 21 19 19 22 26 28 27 26 26 26 25 24 24 24 25 26 27 29 31 33 35 37 39 40 41
8 8 7 9 11 15 15 20 23 20 19 19 19 21 24 24 24 24 28 30 27 24 26 25 23 25 25 22 20 20 22 22 22 24 26 27 27 28 28 26 27 26 28 28 30 32 35 37 39 40 42 44 45 45
7 9 10 7 6 8 16 17 22 26 24 23 23 23 23 26 29 30 29 24 27 30 31 29 28 26 26 25 24 26 25 24 25 24 23 23 24 27 27 26 26 28 28 30 31 33 37 39 40 42 44 46 47 48
11 12 12 6 2 7 10 17 20 25 29 28 27 28 27 26 26 24 24 25 27 29 29 27 26 24 24 23 21 22 24 23 22 22 22 22 25 26 27 25 22 25 27 31 32 37 40 42 43 45 47 46 44 42
11 15 19 15 12 6 14 18 22 25 30 31 29 28 27 28 24 20 24 24 21 22 23 20 17 20 20 19 18 19 22 23 24 26 23 23 22 26 22 21 23 25 27 31 36 40 42 42 39 36 36 37 36 32
18 13 27 21 15 9 12 20 24 28 30 33 35 34 28 30 35 24 23 23 18 16 19 15 17 17 16 16 17 16 15 21 31 32 32 28 24 25 18 16 18 21 25 29 33 35 35 34 34 35 31 30 31 28
13 18 23 23 27 24 22 25 26 28 33 35 38 36 28 32 35 27 23 26 27 24 18 18 20 19 17 15 15 17 15 20 23 24 33 38 33 27 27 27 24 23 25 24 25 27 29 31 34 31 31 31 29 29
17 18 23 25 31 34 32 30 32 32 33 31 31 32 29 31 30 30 20 20 20 22 20 19 18 19 15 19 13 13 14 17 20 22 27 35 29 22 21 21 21 22 18 18 21 22 25 28 26 25 25 27 29 35
19 25 28 27 32 35 35 38 42 37 37 36 38 34 32 28 28 21 16 14 17 20 19 20 21 18 18 21 17 13 13 12 12 18 24 25 20 17 12 16 16 21 21 19 19 22 23 24 24 21 23 25 30 29
21 25 27 29 33 37 37 36 33 28 27 27 29 25 22 21 18 16 18 17 21 23 22 20 22 16 20 23 12 26 12 12 12 14 17 15 15 20 16 16 18 18 21 21 22 19 18 22 24 25 27 29 31 34
17 17 24 25 27 27 29 29 28 23 24 23 20 20 20 21 21 20 20 22 23 23 22 20 18 21 20 12 15 17 15 18 16 16 16 17 17 20 20 19 20 21 21 20 17 19 23 26 27 30 30 32 34 35
19 17 17 20 17 14 17 23 24 21 18 18 20 19 20 22 22 21 21 19 17 17 14 17 18 18 17 17 18 19 19 16 12 15 17 20 21 21 21 22 20 18 18 20 23 25 28 30 28 26 25 24 22 22
17 16 14 15 16 14 12 11 13 15 16 16 15 16 15 15 14 13 14 15 16 15 14 14 14 12 13 15 14 13 12 14 13 16 18 18 17 19 19 20 22 24 22 19 20 24 26 25 22 21 22 24 25 27
13 13 13 11 12 13 12 9 10 10 11 12 13 14 15 15 14 14 13 13 13 14 13 12 14 12 12 12 9 9 10 10 10 9 7 12 15 16 18 19 20 19 19 21 23 24 24 24 26 27 29 31 33 35
13 12 11 11 11 11 9 8 9 10 12 13 13 13 13 15 16 17 16 15 13 12 12 9 9 10 9 10 10 8 12 12 11 10 10 12 15 16 17 18 18 19 21 21 23 25 27 29 32 34 36 39 41 43
15 14 12 11 10 8 8 9 14 14 12 10 11 12 13 15 15 15 14 14 13 10 8 7 7 7 6 6 6 7 10 10 7 3 4 5 6 7 9 13 16 19 22 25 28 31 34 37 40 43 45 47 48 50
16 15 13 12 11 10 11 14 17 15 20 26 24 22 19 20 17 15 12 11 9 8 7 6 6 6 5 6 5 6 5 2 4 6 8 10 12 15 17 20 24 27 30 33 36 39 42 45 47 49 51 52 54 55
17 17 17 17 18 18 17 19 19 23 25 25 26 27 29 29 28 25 21 17 14 13 12 11 10 9 6 4 1 2 4 7 9 12 15 18 20 23 26 29 32 35 38 40 43 46 48 50 51 52 52 52 52 51
25 26 25 24 24 24 23 24 20 19 17 21 17 15 17 22 24 24 23 19 13 12 10 7 5 4 3 5 7 9 12 14 16 19 21 24 26 29 31 34 37 40 43 47 49 50 50 50 50 49 48 46 44 42
34 33 30 28 28 26 27 21 19 17 15 17 15 14 15 15 15 17 13 9 6 5 5 5 6 7 9 10 12 14 16 18 20 22 24 26 29 32 36 39 43 48 51 51 50 49 48 48 47 46 44 42 39 35
34 31 29 27 26 22 18 16 15 14 14 16 13 12 11 10 10 8 6 4 4 5 6 7 7 8 9 12 14 17 19 21 23 26 29 32 36 39 43 47 50 51 50 49 48 46 44 43 41 38 33 29 25 22
31 29 26 25 24 18 13 10 9 13 12 11 9 7 7 6 6 6 6 6 8 10 11 11 12 14 16 18 20 22 24 27 29 32 35 39 43 46 49 50 50 49 47 44 40 37 35 30 24 19 16 15 15 15
29 26 23 20 15 11 8 7 9 9 7 5 5 5 5 6 7 8 10 13 14 15 16 16 18 20 21 23 26 29 30 32 35 39 43 46 48 49 49 49 46 42 38 34 30 26 21 17 14 13 11 10 9 10
21 18 16 13 11 11 10 7 6 4 2 2 3 6 8 10 12 14 17 18 19 19 20 21 23 25 28 30 32 34 36 39 43 46 48 48 48 48 46 42 38 34 29 26 22 17 13 10 8 8 9 11 14 17
14 11 10 10 9 7 5 3 1 1 2 5 7 11 13 16 18 20 21 21 22 23 24 26 28 32 34 35 36 38 42 46 47 47 48 48 45 41 37 34 31 28 23 18 15 13 13 13 14 15 17 19 21 23
14 12 9 7 5 3 1 2 4 6 9 11 14 16 18 20 23 26 25 25 26 27 29 32 35 36 38 39 43 47 48 48 48 47 45 41 36 33 32 30 27 24 21 21 21 20 19 19 20 21 23 24 25 26
10 7 6 4 4 5 6 8 11 13 14 16 18 20 21 24 28 29 28 29 30 31 34 37 40 41 43 47 48 48 48 48 46 42 37 34 33 32 30 26 23 21 20 20 21 22 22 23 24 26 27 27 29 29
10 9 8 8 9 10 12 14 15 17 20 21 22 23 25 30 32 31 32 32 34 37 40 43 44 47 49 48 49 49 47 43 39 36 34 33 32 29 25 22 20 20 20 21 21 22 24 25 26 28 29 29 30 31
11 11 11 12 14 16 18 19 20 21 23 24 25 28 34 35 33 34 34 36 39 42 44 46 48 48 48 49 47 44 41 39 37 35 32 28 25 22 21 20 20 20 20 21 21 22 24 25 26 27 27 28 30 31

GFSWCAN_500_spd_057.txt.gz
Wind_Speed
24 21 19 19 20 21 20 22 23 23 23 22 23 24 25 28 30 34 32 34 34 30 28 30 29 31 33 34 27 30 27 28 22 24 24 21 23 23 24 19 20 23 26 27 29 26 32 24 24 26 32 39 34 25
17 16 15 14 13 13 17 19 20 19 19 19 20 21 24 28 30 31 32 31 29 26 29 29 32 35 36 31 30 29 22 24 26 28 20 21 21 21 20 24 18 21 21 23 24 23 18 19 21 19 23 25 24 23
10 11 13 14 14 12 13 14 16 15 16 16 18 20 23 27 29 28 28 26 27 29 30 31 33 34 32 29 29 25 27 22 23 25 22 20 18 18 18 24 24 17 14 22 21 19 15 23 20 19 21 22 25 27
14 16 17 17 18 18 16 12 12 11 13 15 17 21 23 25 24 27 27 26 26 24 30 31 34 30 25 25 27 26 30 31 28 23 23 22 21 18 17 22 26 27 26 26 26 24 27 24 25 23 25 26 27 28
11 12 12 13 15 16 16 15 10 13 12 15 17 21 23 24 24 25 26 26 25 26 28 29 31 26 20 21 23 25 29 28 29 25 27 24 18 20 20 18 21 24 25 23 24 24 25 26 24 23 27 28 30 32
8 9 10 14 15 16 18 18 15 14 16 17 17 19 20 21 23 26 28 26 29 32 32 27 23 22 16 17 18 21 26 30 29 29 29 28 24 20 18 23 21 24 24 23 22 23 25 26 27 27 31 33 35 38
7 9 13 17 17 14 15 20 25 20 20 20 22 19 19 23 23 24 21 26 29 27 25 21 15 12 15 16 16 19 21 23 24 26 29 27 25 25 25 22 24 24 24 25 26 26 27 27 29 31 34 37 39 41
9 11 14 10 10 16 13 19 23 28 23 23 22 22 23 22 22 25 27 28 25 21 21 16 12 14 16 19 19 21 24 24 24 25 24 23 25 26 26 23 23 21 23 25 25 27 29 30 32 34 36 38 41 43
9 9 8 3 4 14 16 20 22 30 27 27 26 25 23 25 25 24 24 23 22 22 22 19 15 15 18 20 21 22 24 27 26 25 22 24 23 27 22 16 20 23 25 24 24 27 29 30 33 36 39 41 42 39
11 13 11 11 6 16 15 23 26 33 33 30 30 30 28 27 24 22 22 22 22 21 19 15 17 15 18 20 20 22 24 26 27 28 27 28 28 25 22 19 17 19 21 24 26 25 28 31 34 37 38 36 34 34
15 6 10 7 15 19 20 27 31 36 38 33 33 31 30 31 25 21 25 23 22 21 20 18 17 17 17 16 18 19 19 20 23 24 30 33 31 29 24 20 18 18 20 22 26 29 31 33 32 29 31 34 39 39
18 22 18 22 26 26 27 32 34 38 41 40 32 35 41 35 33 30 28 26 23 20 20 21 21 19 20 21 16 16 14 19 19 23 29 32 27 30 28 24 26 26 27 29 28 23 26 28 29 28 28 29 32 31
19 26 31 27 32 30 30 35 36 39 36 30 27 37 33 32 30 23 22 23 21 18 18 19 20 21 21 24 20 14 14 13 15 20 24 24 23 26 31 26 22 24 26 28 27 29 27 27 26 28 28 28 28 31
23 23 27 35 39 35 33 36 36 36 24 25 24 25 28 28 22 18 11 11 15 17 17 18 19 22 18 18 21 15 12 11 12 10 9 14 16 19 20 21 23 24 26 26 27 29 28 27 27 26 27 28 30 33
23 24 30 28 31 30 31 31 30 32 35 30 27 23 21 16 13 11 13 16 17 17 16 18 18 16 10 11 14 15 17 17 12 11 12 10 15 19 20 24 26 26 25 25 27 27 28 29 30 32 33 33 35 36
19 20 24 24 25 28 28 24 26 23 21 14 16 17 15 16 16 17 16 16 17 19 19 18 17 14 19 14 15 17 17 13 12 10 11 15 20 23 24 25 26 26 27 27 27 27 28 30 29 29 31 29 27 25
15 15 15 15 16 19 23 22 19 15 15 16 16 18 20 18 17 17 17 15 17 16 17 16 14 18 17 17 15 14 14 16 17 18 16 16 18 21 23 26 26 27 27 27 29 30 30 30 31 29 29 29 29 30
11 12 13 13 14 14 12 13 16 17 18 18 19 18 19 18 17 17 15 14 14 14 14 15 16 13 12 11 12 11 12 12 15 17 18 19 20 20 20 21 23 23 25 25 28 29 30 30 29 30 31 33 34 36
9 9 10 11 10 8 9 11 12 14 15 16 16 17 16 17 17 16 14 13 13 13 13 14 15 13 12 11 13 13 13 14 17 18 18 19 21 22 24 26 26 24 24 24 24 25 27 29 32 34 37 39 42 44
11 10 8 8 8 7 9 10 13 15 16 17 18 18 18 19 18 17 17 16 15 14 12 9 9 10 10 10 12 12 12 14 17 19 20 16 13 12 13 13 15 18 21 24 27 31 34 38 41 44 46 48 50 53
12 11 9 7 7 8 11 13 11 13 16 18 19 19 19 18 18 16 14 13 12 10 9 9 8 9 9 8 8 11 10 8 7 8 10 12 14 16 18 20 23 26 29 33 36 39 41 44 47 50 53 55 57 59
14 12 11 10 11 17 21 24 26 23 22 22 24 24 22 20 18 16 14 12 11 9 8 7 5 5 4 4 3 3 4 7 10 13 15 18 20 22 25 28 30 33 36 39 41 45 48 51 54 56 56 55 54 54
17 17 16 18 21 23 24 24 26 24 23 23 24 26 26 26 26 24 23 19 16 13 10 7 4 2 2 4 6 9 11 13 15 18 21 23 25 28 30 33 36 38 41 44 48 51 55 55 54 54 54 54 53 52
23 21 21 22 22 19 17 18 20 18 21 18 17 17 18 19 19 18 14 10 8 5 2 1 2 5 7 9 11 14 16 18 20 21 24 26 30 32 35 37 41 45 48 51 53 54 54 54 54 53 50 47 45 43
28 26 26 25 23 20 18 16 16 16 16 17 15 13 14 11 10 8 7 4 1 2 4 6 7 8 10 11 14 15 18 20 23 26 29 32 34 37 41 45 48 50 51 52 53 53 52 49 45 41 38 35 31 26
30 28 27 24 19 15 14 12 14 14 12 11 10 8 7 6 5 3 2 2 3 5 5 6 8 10 12 15 17 20 24 27 29 32 34 37 41 45 48 48 49 50 51 50 48 45 41 37 33 29 25 21 18 16
24 22 20 17 12 9 8 8 10 10 9 6 5 4 4 5 6 7 8 9 10 10 11 12 14 16 18 21 25 28 31 33 35 37 42 45 47 47 48 49 49 48 45 42 37 34 32 28 25 21 17 14 12 12
21 19 17 14 11 10 10 8 6 5 4 2 1 3 5 7 9 11 14 15 16 16 17 18 20 22 25 29 32 35 36 39 43 45 46 46 48 48 48 46 43 40 37 35 33 29 24 20 17 16 16 16 17 18
18 15 13 11 10 10 9 7 4 2 1 3 5 7 9 12 14 16 19 22 22 22 23 23 25 28 31 35 37 39 43 45 46 46 48 49 48 45 42 39 37 35 34 32 29 25 24 23 22 21 21 22 23 24
16 14 13 12 10 8 5 4 3 3 6 8 10 13 15 17 18 20 24 26 25 25 26 28 30 33 38 40 43 46 46 47 48 49 48 46 43 40 38 36 34 32 30 27 25 24 23 24 24 25 25 26 27 28
15 13 11 9 7 4 3 4 6 9 11 13 16 18 19 21 23 25 29 30 29 30 31 32 36 39 43 46 47 47 48 49 49 47 44 42 39 35 32 29 27 25 23 22 22 22 22 23 23 25 26 27 29 30
10 9 8 7 7 8 9 10 13 15 17 19 20 22 25 25 27 32 34 33 32 33 34 39 42 45 47 47 47 48 49 47 44 40 37 34 30 26 24 22 21 21 21 21 22 22 22 23 23 24 25 26 27 28
9 9 9 10 12 14 16 17 18 19 21 23 25 27 28 30 33 35 34 33 34 36 40 44 46 47 46 47 48 47 43 39 35 32 28 25 23 22 22 22 22 22 22 21 21 21 22 22 23 24 25 26 28 30

GFSWCAN_500_spd_060.txt.gz
Wind_Speed
36 33 29 24 20 16 15 16 18 16 25 27 24 23 24 24 24 24 23 32 35 27 26 29 30 31 31 25 19 19 23 22 24 25 21 20 17 20 20 15 10 16 20 37 54 47 47 41 35 41 42 41 42 43
29 25 20 15 12 12 11 11 12 16 23 26 24 24 23 21 22 22 27 29 29 25 26 29 31 30 33 31 27 26 24 20 22 25 25 15 18 20 19 21 18 21 12 20 33 44 49 49 51 50 49 37 36 38
23 19 15 14 15 16 16 15 14 15 19 22 23 21 20 19 20 21 26 27 23 23 28 28 27 28 32 31 33 31 28 23 22 22 20 20 22 19 18 19 21 14 11 16 20 24 29 27 28 33 35 35 36 40
19 17 19 20 20 18 19 20 18 16 16 16 16 16 16 18 21 23 23 24 24 23 24 21 28 28 27 31 31 26 29 28 22 19 20 22 21 18 16 19 20 18 11 17 20 21 19 21 27 25 25 24 26 28
17 17 16 15 15 15 15 15 16 12 11 11 12 14 16 20 24 25 25 24 22 16 21 25 23 26 28 29 28 28 29 31 28 28 25 26 21 18 17 18 18 25 14 18 27 18 27 23 18 25 26 27 28 28
14 14 15 12 12 15 16 15 15 12 11 11 14 17 22 25 27 27 26 24 20 20 23 20 23 23 24 24 25 27 28 35 34 28 26 26 23 19 18 16 20 22 27 25 26 27 29 29 26 26 26 28 29 28
14 13 11 14 15 16 17 15 16 13 15 15 18 20 22 23 24 23 21 20 25 28 25 22 17 20 19 19 24 27 29 33 31 28 26 23 21 25 19 19 17 20 22 26 29 28 27 28 28 29 28 29 29 31
8 14 16 17 17 16 19 15 18 17 17 20 22 24 24 21 22 23 23 22 30 32 26 24 16 11 17 21 25 26 28 31 33 32 28 25 24 18 23 24 23 23 26 26 29 29 29 30 29 29 29 30 31 33
11 12 10 9 11 10 16 16 23 24 20 24 25 25 23 22 20 23 25 24 32 31 28 22 18 10 17 21 19 19 24 26 29 31 31 28 27 28 27 22 22 22 26 25 28 28 28 28 28 27 28 28 30 33
10 9 11 14 12 14 18 19 26 29 26 25 26 25 27 27 24 23 26 26 24 24 22 17 15 12 12 16 20 20 22 24 26 24 24 26 26 27 25 25 20 22 24 25 23 24 24 24 24 25 28 31 33 36
13 13 6 6 14 20 21 25 32 31 32 29 26 23 26 29 24 23 23 23 23 21 19 18 16 12 14 16 19 18 19 21 23 23 26 28 28 27 26 22 22 25 23 24 24 24 22 23 26 28 31 32 30 30
10 9 13 16 22 22 27 39 37 31 29 27 25 32 34 30 25 23 25 23 19 16 17 16 16 12 15 12 11 11 12 17 18 17 22 28 29 27 25 26 25 26 24 25 23 24 28 30 29 28 29 31 32 31
15 21 22 22 26 30 34 40 33 31 33 36 37 31 29 30 27 25 26 20 16 13 16 14 15 14 16 18 15 12 11 12 15 17 20 21 23 22 25 28 29 31 31 30 30 30 28 30 31 33 33 34 31 31
19 20 29 31 31 29 37 39 36 30 26 35 37 33 27 24 19 10 10 9 13 14 15 16 17 17 15 16 17 14 10 10 10 4 2 9 18 24 26 30 33 29 32 29 29 28 30 32 33 35 36 34 34 35
26 29 27 31 30 31 32 31 31 31 28 37 32 27 18 13 13 14 14 13 14 16 16 15 16 15 16 14 15 15 14 12 9 7 10 12 13 17 20 21 21 21 23 26 27 29 31 32 34 34 33 33 34 37
25 29 32 32 28 28 28 27 25 22 22 27 28 20 14 15 16 15 12 13 12 14 16 16 15 15 9 13 11 13 13 11 15 13 12 11 13 14 14 17 19 21 25 29 32 31 32 32 31 31 33 34 36 35
24 28 28 29 29 24 22 19 25 18 16 16 15 15 15 17 16 15 13 13 14 16 15 15 16 13 9 14 9 11 14 15 15 15 14 15 17 14 17 21 24 26 28 30 30 29 29 30 32 34 35 35 36 36
11 12 13 16 14 11 13 13 12 12 16 18 17 16 16 16 15 15 13 12 13 12 14 12 11 12 13 13 14 14 14 12 12 14 16 18 19 21 22 24 24 23 24 28 30 31 33 34 33 34 34 35 36 37
10 10 13 16 16 15 15 16 16 17 18 18 19 19 17 16 14 13 12 12 11 11 12 12 12 12 12 12 13 12 12 12 15 17 19 21 22 24 24 27 28 28 28 28 26 26 27 28 30 33 35 38 41 44
10 11 11 10 7 6 10 15 17 18 19 19 18 17 15 15 14 13 11 10 10 10 11 11 12 12 11 10 11 13 16 19 19 19 19 21 23 22 18 17 18 20 22 24 27 30 33 36 39 41 44 47 50 52
9 8 9 9 7 6 9 13 16 18 19 19 18 17 17 16 15 13 12 11 11 10 9 8 8 9 11 13 16 19 18 17 18 17 13 13 15 18 20 22 24 27 29 32 34 37 40 43 46 49 52 54 57 59
8 5 5 8 10 12 12 13 17 18 19 19 19 19 17 16 15 13 12 11 11 10 10 10 11 13 13 11 7 6 7 9 11 13 16 18 21 23 25 28 31 34 36 39 42 45 47 50 52 56 59 59 58 58
9 8 14 21 26 27 25 21 17 17 20 20 20 19 17 15 13 11 10 10 9 8 7 6 5 5 5 6 8 10 12 13 16 19 22 24 27 30 32 35 38 41 43 45 47 50 54 57 57 57 57 57 58 57
13 18 24 24 24 23 24 25 23 20 19 20 20 18 18 18 18 18 16 13 10 7 4 2 3 6 8 10 11 14 17 20 22 25 27 29 32 35 38 40 42 44 47 51 54 55 55 55 56 56 55 52 49 44
18 20 20 20 19 19 19 23 21 18 19 21 20 19 18 14 11 8 6 3 2 3 5 7 9 11 13 14 16 18 21 23 25 28 31 33 36 38 41 44 48 50 52 52 53 54 54 53 50 46 42 38 35 31
21 21 20 19 17 16 14 16 17 16 14 13 12 10 9 6 3 1 1 1 2 5 6 7 9 11 13 15 19 21 24 27 30 34 36 38 42 44 47 47 48 51 52 52 51 49 46 42 39 36 33 31 28 24
23 21 18 15 14 13 12 11 10 10 9 7 6 5 4 2 2 4 4 6 8 10 11 13 15 16 18 20 24 27 30 34 37 39 42 45 46 47 48 50 51 51 49 47 44 40 38 36 34 31 27 24 21 19
21 17 13 10 8 9 11 8 7 6 5 4 2 1 3 5 8 11 12 14 17 19 19 20 21 22 24 27 30 33 36 39 43 45 46 46 48 49 50 50 48 46 43 40 38 36 34 32 29 27 26 25 25 24
17 15 12 9 5 6 9 9 6 4 2 1 3 5 8 11 14 16 19 19 23 25 26 26 26 27 29 31 35 38 42 45 46 46 47 48 49 49 47 45 42 39 36 33 30 28 26 25 24 24 24 24 26 27
15 13 11 8 7 7 7 6 5 4 3 5 7 9 12 15 17 21 22 24 27 30 30 30 30 31 33 37 41 44 45 45 46 47 48 47 45 42 39 35 31 28 26 24 23 23 23 23 23 23 24 25 26 27
15 13 12 11 10 9 7 6 5 6 8 10 12 14 16 18 21 24 25 28 32 33 33 32 32 35 39 43 45 45 45 46 48 47 45 40 36 32 28 26 24 24 23 23 23 23 23 24 24 24 24 25 26 26
13 13 12 11 9 8 8 7 9 11 14 16 17 19 21 23 25 27 29 32 34 35 34 34 37 42 45 45 44 45 46 47 45 41 35 32 28 25 24 24 24 24 24 23 23 23 23 24 24 24 25 26 28 29
12 10 9 8 9 10 12 13 15 17 19 21 22 24 26 29 29 31 34 35 36 35 35 39 44 46 44 44 45 46 46 42 38 33 29 27 25 25 25 25 24 24 24 23 23 24 25 26 27 29 30 31 32 34

GFSWCAN_500_spd_063.txt.gz
Wind_Speed
42 43 46 42 31 28 24 21 17 15 14 17 12 19 21 19 18 20 20 26 30 18 24 30 31 32 33 29 30 22 18 19 26 26 27 22 15 14 15 14 9 16 13 14 24 42 51 31 26 24 26 28 28 30
39 42 42 30 25 21 18 16 13 11 10 13 16 18 26 20 20 21 20 26 26 32 30 32 32 35 37 26 30 24 18 21 22 22 22 19 17 15 15 14 15 12 15 8 13 17 38 44 40 30 25 25 30 33
39 41 29 24 21 18 17 17 16 15 14 15 16 20 24 24 22 19 21 23 23 32 30 28 30 30 39 35 34 31 21 25 24 19 22 18 13 11 12 15 14 17 14 13 10 14 26 34 37 48 45 43 42 43
39 28 23 20 20 20 20 19 19 21 20 21 19 21 22 26 21 18 17 22 25 29 25 20 29 32 32 35 34 35 28 25 20 19 15 15 16 13 15 15 15 15 13 14 13 15 17 26 34 30 34 34 37 42
26 22 20 19 17 16 16 15 16 16 18 17 16 15 16 18 18 20 22 26 22 18 21 26 26 27 28 29 30 31 30 29 24 23 23 14 14 15 15 14 17 16 2 10 20 24 27 22 30 32 22 33 31 28
20 18 17 15 14 12 13 15 14 13 13 12 11 10 12 18 23 24 25 22 19 20 20 17 20 22 22 23 26 26 26 29 26 24 27 20 20 13 19 16 18 22 18 12 19 19 21 25 28 28 43 16 25 24
16 17 16 16 14 14 14 15 16 13 12 10 11 11 15 19 20 19 18 19 20 19 19 16 14 14 16 18 20 24 24 28 23 28 26 22 21 20 20 21 16 17 17 17 18 26 25 26 26 24 22 19 24 28
13 12 13 14 16 15 16 14 16 13 12 14 17 18 21 26 27 25 23 21 22 27 26 24 21 10 12 12 13 19 22 25 24 32 27 23 24 25 24 20 19 23 17 21 25 27 28 27 26 25 24 26 28 28
13 13 13 12 15 15 14 15 16 17 14 20 23 24 25 24 23 23 24 27 30 31 29 29 23 12 6 13 14 15 20 22 22 27 32 28 26 26 27 24 26 27 27 26 27 28 29 29 30 31 31 32 32 31
13 16 16 15 17 8 11 18 20 18 21 23 26 26 30 28 27 25 30 36 33 33 25 24 22 17 14 15 16 15 16 20 26 24 31 34 32 30 27 26 22 22 24 32 33 32 30 31 32 32 32 32 32 31
14 16 13 16 20 15 19 20 25 21 25 23 26 27 27 27 26 24 28 34 32 29 20 22 21 18 17 16 18 18 16 14 16 17 19 23 22 24 24 24 24 25 25 27 28 29 29 28 28 29 30 30 32 34
4 5 11 17 23 24 23 24 29 24 22 25 28 30 27 24 20 22 25 30 28 25 20 20 20 18 15 11 11 15 13 13 11 13 18 21 21 23 23 24 23 24 24 25 28 29 27 27 29 29 30 33 36 35
12 16 19 24 26 29 30 29 29 27 24 23 26 29 29 25 24 22 21 21 21 18 20 18 16 18 14 17 15 15 12 12 11 13 11 7 11 13 16 20 23 25 28 30 32 32 32 31 30 33 33 33 33 34
16 18 23 29 34 37 32 29 28 29 27 25 30 31 26 20 14 12 12 16 17 16 21 18 17 14 11 17 16 14 10 9 8 2 2 7 9 12 16 20 23 26 29 30 30 29 34 30 30 31 32 33 35 36
27 28 31 34 34 34 29 26 26 29 31 33 31 24 22 16 16 18 17 16 15 14 13 13 13 12 13 13 14 14 14 10 4 4 7 10 11 11 13 15 18 21 23 24 21 22 26 29 29 31 32 34 35 36
27 29 28 34 34 29 27 29 21 25 31 25 20 16 15 14 13 13 11 10 10 10 11 12 11 11 12 12 10 9 9 6 6 10 11 13 16 15 14 15 15 16 17 19 21 23 26 30 33 35 36 34 34 34
31 30 28 27 25 22 21 23 19 20 26 26 22 14 10 12 13 11 10 8 7 8 9 11 11 11 7 7 7 4 5 9 11 11 13 16 16 17 17 16 17 19 21 24 26 28 29 30 30 32 33 34 34 34
26 29 28 22 20 19 19 19 16 17 18 21 18 13 12 12 11 10 9 10 12 11 11 10 12 9 6 5 8 9 11 12 12 13 13 14 15 17 18 20 22 23 24 26 27 28 30 32 31 30 30 30 32 33
14 19 17 18 18 17 16 14 14 16 17 18 17 16 16 16 16 16 16 16 14 14 12 12 10 8 8 10 11 12 14 13 13 13 16 19 21 21 23 24 26 26 23 21 21 22 24 26 29 32 35 37 40 42
13 16 16 16 16 13 12 12 14 17 17 19 20 20 19 16 14 12 10 9 7 7 7 8 10 11 11 12 12 12 12 14 17 21 23 23 22 22 20 16 18 20 22 24 27 30 33 36 38 40 42 44 46 50
14 13 12 13 13 11 10 15 16 17 17 17 16 14 13 11 10 8 7 6 6 6 6 6 6 6 7 9 12 14 17 20 17 14 13 12 15 17 20 23 25 27 30 32 34 36 38 40 43 47 50 53 55 58
12 12 11 9 10 12 14 17 19 19 19 17 15 14 13 11 9 8 7 7 7 6 6 6 6 8 10 13 14 10 9 11 14 17 19 21 22 24 26 28 30 32 36 38 41 44 47 49 51 53 56 59 60 59
7 10 13 13 12 11 13 16 17 17 17 15 14 13 11 11 10 9 8 7 7 6 7 9 9 7 6 7 10 13 15 16 18 20 21 23 26 28 31 34 38 41 44 46 47 50 52 55 57 57 57 57 58 58
20 25 26 22 22 20 16 17 19 20 18 17 16 14 12 10 8 5 4 4 5 3 2 2 4 7 9 10 12 15 19 22 24 26 28 30 33 35 38 41 43 44 48 51 53 54 54 55 56 57 57 55 52 48
23 22 22 23 25 26 23 20 18 18 19 17 15 12 12 12 12 9 5 3 2 2 3 5 7 9 12 14 17 20 24 26 29 30 33 34 37 40 43 46 49 49 50 51 53 55 55 55 54 51 47 43 39 37
20 20 21 21 22 22 21 24 24 23 22 20 17 15 12 10 6 4 1 1 3 4 5 6 8 11 13 16 19 22 26 29 32 33 36 39 43 45 46 47 49 51 52 54 53 51 49 46 43 40 37 36 34 31
20 19 19 18 18 18 17 16 15 15 14 13 11 9 6 4 3 1 1 1 3 7 11 13 15 17 19 21 24 27 30 31 34 38 42 46 47 47 48 49 51 51 50 48 45 42 38 34 32 30 29 27 27 26
19 17 15 13 12 13 13 10 9 8 8 7 6 4 4 2 2 5 9 12 14 17 20 22 23 24 26 28 29 31 32 37 41 45 46 46 47 48 50 50 47 44 39 35 32 29 27 25 24 24 24 24 23 24
15 12 9 7 7 8 9 9 8 6 5 4 2 1 2 5 9 11 15 18 20 23 25 27 29 31 32 32 32 34 39 43 45 44 45 47 49 49 46 42 37 32 28 27 26 25 24 24 23 23 24 24 24 24
11 9 8 5 2 5 6 5 5 5 3 3 3 5 7 10 12 15 19 22 24 26 29 31 34 35 34 34 37 42 45 44 44 45 47 48 46 42 36 32 28 27 27 26 25 25 24 24 23 23 23 24 24 25
12 11 8 6 5 5 4 5 6 6 6 7 8 10 12 15 18 19 22 25 26 29 32 35 36 36 35 39 44 45 44 44 46 48 47 44 39 34 31 28 27 26 26 26 25 24 24 24 24 25 26 27 29 30
12 9 8 7 7 8 8 8 9 9 10 11 13 16 18 21 22 25 27 28 30 33 35 37 37 37 41 44 44 43 45 47 47 46 42 37 33 30 29 28 27 26 25 24 23 24 26 27 28 28 29 29 29 30
10 8 7 7 8 9 11 11 12 13 15 16 19 21 23 26 27 30 31 32 34 36 37 36 38 42 44 43 43 45 47 47 44 39 34 32 30 29 27 26 25 24 24 25 26 27 28 28 27 26 27 30 32 33

GFSWCAN_500_spd_069.txt.gz
Wind_Speed
51 48 45 42 40 37 35 35 36 37 38 30 25 19 17 14 13 14 9 9 14 15 18 24 27 29 28 26 28 20 16 32 20 17 15 21 20 22 21 20 24 26 26 26 26 28 29 20 25 32 31 24 21 19
49 47 44 41 38 36 34 34 36 35 32 25 21 17 15 13 12 11 11 11 9 11 14 22 27 27 27 30 29 22 18 19 26 26 20 22 19 21 18 17 17 14 10 15 18 22 26 23 27 31 30 27 19 13
47 45 43 40 36 34 32 33 34 33 26 23 20 18 17 16 16 16 15 17 17 17 16 20 26 31 28 30 33 30 21 22 20 27 22 25 22 20 21 18 20 19 4 9 14 15 18 20 26 30 35 33 29 28
44 43 41 37 34 32 31 34 32 28 24 23 23 22 20 18 17 19 23 18 22 18 16 20 28 24 29 33 37 32 24 22 21 21 22 26 22 19 19 16 18 18 12 14 15 18 12 12 22 27 41 34 28 34
42 40 38 35 32 30 32 31 29 25 23 22 20 19 18 19 17 21 25 19 22 25 17 24 20 21 32 30 36 33 33 18 25 17 18 22 21 22 19 16 17 12 20 17 19 22 15 14 13 19 23 25 34 30
38 37 36 34 31 31 29 27 24 22 20 17 16 16 15 19 28 26 24 24 25 18 19 22 22 25 22 34 38 35 24 22 17 14 18 26 27 5 11 16 14 14 16 15 12 19 14 16 22 14 21 18 16 29
37 35 35 33 31 28 25 24 21 18 15 15 15 15 13 16 17 22 21 20 16 13 15 19 20 21 25 33 30 31 26 24 16 17 21 22 19 9 9 11 14 16 12 8 12 9 18 25 17 17 25 31 31 22
37 35 33 31 26 24 24 21 19 17 15 14 14 12 13 12 15 17 19 18 16 14 15 20 24 26 34 34 33 31 30 25 17 19 22 14 16 12 9 8 10 15 15 15 13 16 18 16 21 24 11 19 31 25
33 29 27 24 24 25 23 20 20 18 14 12 11 11 10 16 21 21 21 20 20 20 21 21 21 20 23 27 28 26 31 26 23 22 20 15 16 16 12 14 13 12 13 17 16 18 19 18 18 18 17 17 18 30
24 22 22 23 24 23 22 21 18 16 15 11 13 12 17 25 23 24 25 24 29 32 26 25 25 18 18 15 14 14 18 19 20 19 18 15 14 18 19 18 17 18 18 19 20 22 23 25 25 25 24 22 22 24
20 21 23 24 24 21 21 20 15 14 15 15 18 16 23 25 26 28 31 35 32 26 26 25 22 20 20 15 10 12 17 15 18 19 20 19 13 16 20 22 22 20 19 21 23 24 26 27 27 27 25 25 26 27
23 25 23 24 22 18 17 14 15 18 17 21 19 19 24 27 29 32 38 34 26 29 30 27 23 25 24 20 16 13 9 9 10 12 14 15 16 17 19 22 24 25 25 23 23 25 26 27 27 29 30 30 29 29
25 24 23 23 23 21 20 20 22 20 19 23 23 23 25 26 31 35 38 30 29 27 25 23 22 22 21 18 17 13 9 9 8 6 7 12 14 16 16 16 16 17 20 24 27 29 29 30 31 32 33 33 34 34
23 27 30 29 25 24 25 23 20 24 25 24 22 23 23 23 25 33 31 28 26 25 21 18 16 15 13 14 15 12 9 6 6 8 13 10 9 9 8 8 8 9 11 13 16 19 23 25 27 30 33 34 35 36
21 29 32 33 29 29 26 23 24 23 21 21 22 20 20 21 25 35 34 29 23 19 16 14 12 11 9 7 9 8 7 7 7 11 9 5 4 7 10 12 12 14 14 15 16 16 16 17 19 20 21 23 25 29
37 41 39 35 34 29 28 26 27 26 25 24 24 25 22 20 22 25 30 28 21 17 14 11 10 8 7 5 4 7 8 10 14 14 11 7 11 15 15 15 16 17 19 22 23 23 24 25 27 28 30 31 33 36
38 40 39 37 35 34 31 26 24 23 23 23 23 22 18 18 21 21 22 20 15 11 12 12 11 10 7 9 10 11 12 14 15 12 11 15 17 19 19 19 19 21 22 24 25 26 27 29 30 31 33 35 36 36
33 35 33 32 31 28 26 24 25 28 24 21 20 19 18 17 17 18 16 14 14 14 13 14 12 11 10 8 8 7 6 7 9 13 15 17 18 19 20 21 24 26 28 29 30 31 31 31 30 29 29 30 31 33
32 31 30 29 26 23 21 23 26 27 23 20 16 14 13 13 12 12 9 10 12 10 9 10 11 10 7 7 7 8 9 11 13 15 16 17 19 22 25 28 29 29 28 28 27 26 26 28 30 31 33 36 38 41
26 24 25 22 20 20 19 19 19 18 16 14 12 10 10 9 10 10 10 11 12 12 12 12 10 9 7 7 9 10 12 13 14 16 19 22 23 22 23 23 24 25 26 28 29 30 32 34 35 37 39 41 43 45
18 16 17 17 17 17 16 16 15 14 13 14 14 14 15 17 17 17 16 13 11 10 9 7 6 7 9 11 11 11 12 16 18 16 18 21 23 25 26 28 29 30 30 31 33 35 37 39 41 43 45 48 50 51
15 16 17 15 14 14 15 15 15 16 17 17 18 21 20 18 15 12 10 8 7 7 6 6 7 7 7 8 11 12 12 14 17 21 24 26 28 29 30 32 32 34 36 38 39 42 45 48 51 52 53 53 54 56
16 15 15 14 14 14 15 17 19 22 22 23 20 18 15 12 9 7 9 10 10 8 6 6 6 6 6 7 10 13 16 19 22 26 29 32 34 35 36 37 38 39 42 45 48 50 51 50 50 52 54 55 56 55
15 15 14 15 15 17 19 20 21 21 20 18 15 13 11 10 10 10 9 7 7 6 4 2 3 5 8 11 14 17 21 25 28 32 34 37 39 41 41 39 42 46 49 50 48 49 50 52 54 53 50 46 42 40
13 13 12 13 16 19 21 21 20 19 17 15 14 13 12 11 10 9 10 8 6 4 2 2 5 9 12 15 18 22 23 25 28 31 33 35 36 37 40 45 47 47 47 49 51 52 52 49 44 38 34 32 30 29
15 14 13 15 19 21 22 22 21 20 19 18 17 15 13 12 11 9 6 3 1 2 4 8 11 12 14 15 18 21 24 28 30 32 33 35 39 44 46 45 45 47 50 51 50 46 40 35 32 30 29 29 29 28
19 21 20 21 23 24 23 24 23 21 19 17 16 15 13 11 8 6 4 3 4 6 9 11 12 14 18 21 25 28 31 32 33 33 36 41 46 45 44 46 49 51 50 46 40 34 32 31 30 29 28 28 27 27
21 22 23 22 21 21 21 20 20 20 20 17 15 12 11 9 6 4 6 7 7 9 11 16 19 22 26 28 31 34 35 35 36 38 43 46 44 44 47 50 51 48 42 36 33 32 30 29 28 27 27 26 25 26
20 20 20 20 20 20 20 19 18 17 15 13 10 8 5 4 8 8 8 9 11 15 18 21 25 28 30 32 35 37 37 38 39 43 46 44 45 48 50 50 45 40 35 33 31 29 27 26 25 24 25 26 27 28
20 19 18 16 15 14 13 13 12 9 8 6 6 7 8 9 10 11 12 14 17 20 22 26 30 31 33 35 37 38 39 40 44 46 45 46 49 51 49 44 39 34 33 31 29 28 27 26 27 28 28 28 27 25
15 14 13 13 14 13 12 10 8 7 8 9 10 10 11 12 13 16 17 20 23 25 27 31 33 34 35 37 38 39 41 45 46 45 47 49 51 48 43 38 34 33 32 31 30 29 29 29 29 29 28 26 25 25
12 11 10 9 11 13 12 11 10 11 12 12 12 13 14 16 18 20 22 24 27 29 32 35 36 36 38 38 39 41 45 46 44 47 50 51 49 43 38 35 33 33 32 30 30 30 32 31 29 27 26 25 26 27
15 13 12 10 9 12 15 15 14 13 13 14 15 16 19 21 23 25 27 28 31 34 36 38 38 39 39 40 41 45 45 45 47 50 51 49 44 38 35 34 34 33 31 31 33 33 31 29 28 27 26 27 28 29

GFSWCAN_500_spd_072.txt.gz
Wind_Speed
50 48 47 47 46 44 40 38 36 34 33 34 35 35 33 28 23 19 16 14 13 12 13 15 16 20 22 22 19 16 13 10 18 7 6 8 22 26 26 26 26 25 23 22 23 25 23 19 22 25 24 22 22 20
51 49 47 46 45 42 40 38 35 33 33 33 33 33 28 23 19 13 14 12 10 6 8 11 13 19 23 24 25 22 16 5 10 13 10 7 13 17 18 18 17 16 16 13 17 18 18 16 20 23 22 23 23 18
50 50 47 45 43 42 39 37 34 32 32 31 31 29 24 21 19 16 13 15 12 10 12 13 15 20 20 24 27 24 20 11 11 18 17 12 13 15 16 16 17 13 14 3 9 15 15 16 17 21 23 22 26 26
45 48 46 43 41 40 38 35 33 31 31 30 28 25 23 22 21 19 16 15 19 15 13 17 14 16 19 23 28 26 24 13 9 16 24 21 16 15 15 16 14 15 15 10 12 14 15 12 13 18 21 21 28 29
37 39 43 40 39 37 36 34 32 30 30 26 24 23 22 20 17 18 24 19 17 22 19 21 20 16 20 26 28 27 31 20 13 18 18 17 15 15 13 13 13 7 12 15 12 13 14 13 10 14 18 20 23 36
38 35 41 38 36 35 33 32 30 29 25 23 21 20 18 15 12 21 27 23 22 22 26 26 21 16 20 26 28 29 31 16 19 17 15 16 16 16 11 14 16 12 8 12 14 14 12 16 13 13 10 18 22 32
39 35 38 38 34 33 33 31 29 25 21 20 18 17 16 17 21 27 24 21 21 23 20 20 16 16 18 19 28 32 32 20 19 15 14 15 18 20 10 17 20 12 8 5 10 9 12 18 17 15 13 10 16 24
39 35 36 37 35 33 31 28 24 20 19 17 15 16 16 17 20 23 19 23 20 23 11 9 12 15 13 18 25 31 25 18 18 11 11 12 18 12 5 13 13 17 15 13 11 14 14 14 13 19 25 21 19 22
36 33 35 34 34 30 27 23 20 20 19 15 13 14 14 16 16 21 22 16 14 11 8 9 11 12 14 19 28 25 18 16 17 12 10 13 15 8 4 3 7 9 14 15 16 16 13 15 14 13 14 15 16 20
34 33 32 29 26 24 23 22 22 21 18 15 13 14 15 15 11 14 17 16 14 13 13 12 13 12 23 22 23 19 16 18 19 17 13 14 11 9 9 10 9 10 13 15 18 20 20 20 21 22 21 22 22 22
32 27 25 25 25 24 24 24 23 18 16 15 14 14 13 12 17 21 21 20 20 21 22 22 21 20 20 18 16 15 14 16 16 15 14 13 10 13 15 17 19 19 19 20 22 24 25 27 26 26 27 27 28 26
27 26 25 25 25 25 25 24 20 16 14 15 14 13 14 19 24 25 27 28 28 27 22 16 15 17 21 17 8 7 12 10 12 15 17 16 18 19 19 20 22 24 25 24 25 27 29 30 31 31 31 32 31 30
27 28 28 27 26 23 21 20 20 18 19 16 15 17 21 24 29 32 32 26 22 21 18 17 17 16 13 15 16 13 10 11 12 13 14 20 22 21 19 18 18 19 20 20 21 23 25 27 28 28 28 30 31 31
31 30 31 28 25 20 21 19 21 22 19 17 16 20 22 25 28 31 28 22 22 20 20 15 20 17 15 12 11 9 8 7 8 10 11 10 9 8 9 9 10 12 13 15 16 16 18 19 22 24 26 29 31 33
31 28 26 25 24 24 22 20 21 18 20 21 20 19 19 22 30 33 26 24 23 20 17 15 13 12 10 10 9 9 9 9 6 9 8 7 6 6 8 11 13 14 15 18 19 20 21 23 24 25 25 27 28 30
32 30 28 27 28 24 22 20 19 24 25 23 22 20 21 24 31 34 28 23 20 16 12 8 7 9 8 8 6 6 9 10 11 13 12 10 9 10 13 16 18 20 22 22 23 25 26 27 28 30 31 33 34 35
33 34 32 29 25 25 24 25 28 28 28 26 24 21 19 21 25 31 27 22 16 12 10 9 10 9 6 7 8 8 8 10 12 14 15 12 14 18 21 22 23 24 25 26 28 30 32 33 35 36 37 39 40 41
40 36 32 30 29 30 29 32 33 30 29 27 22 19 18 20 22 27 27 23 17 15 11 9 7 7 7 7 5 6 7 7 7 8 11 16 20 22 24 25 25 26 29 32 35 36 36 35 35 35 35 34 33 34
34 34 32 33 30 28 28 27 28 29 26 23 24 23 23 20 19 19 20 18 15 11 9 10 10 9 7 7 6 7 8 10 13 16 18 20 21 23 26 28 31 31 31 30 29 29 30 31 32 34 36 37 39 41
33 30 28 27 27 26 28 31 27 26 25 22 19 19 19 18 18 17 15 14 12 10 8 8 9 9 8 7 7 10 12 15 17 18 20 22 25 25 25 27 29 30 31 31 32 32 34 35 37 38 40 42 44 46
29 27 26 26 25 25 27 28 25 22 19 17 17 16 15 16 15 13 12 12 12 12 11 10 8 7 8 9 11 12 13 16 19 19 20 22 25 27 29 31 32 33 33 34 35 36 37 39 41 43 46 47 47 47
21 21 22 22 22 24 24 21 20 18 17 18 19 18 18 17 17 17 16 14 11 10 8 7 7 8 8 8 10 14 16 16 18 21 24 27 30 33 35 37 40 39 39 38 39 42 46 48 47 47 48 50 51 53
18 17 17 15 16 16 17 18 18 18 19 19 20 21 20 18 16 13 11 10 9 9 7 6 6 7 9 10 11 13 16 19 23 26 30 33 36 37 39 41 41 41 43 46 49 48 47 48 50 52 53 53 51 48
10 11 9 10 11 14 14 17 19 21 25 25 23 20 17 13 11 10 10 10 9 8 7 6 5 5 7 10 13 16 20 24 27 29 31 33 35 36 38 39 42 46 48 47 46 47 50 52 53 51 47 41 37 34
13 13 11 10 11 15 18 21 25 26 24 22 18 15 13 12 12 11 10 8 8 6 4 4 5 7 10 14 17 20 23 25 27 30 33 34 36 37 39 43 48 47 45 47 50 52 52 50 45 39 35 33 31 31
14 13 13 15 18 22 25 25 24 23 21 18 15 14 14 12 12 11 10 8 6 5 5 6 9 12 15 17 20 22 25 28 31 35 37 37 38 40 45 47 46 46 49 52 53 50 45 39 36 34 32 30 29 28
11 11 15 20 22 23 23 23 22 20 18 17 17 16 14 13 12 10 8 7 6 5 7 10 13 14 17 21 25 29 32 34 37 39 40 40 42 47 48 46 48 50 53 51 48 42 36 35 34 32 30 29 28 27
14 15 16 18 19 20 21 21 20 20 19 18 16 14 13 10 9 7 6 6 8 10 12 14 17 20 23 28 31 34 35 37 39 41 42 43 47 48 47 49 51 53 50 45 40 35 34 33 30 29 28 27 28 29
17 17 19 19 19 20 21 20 19 18 16 15 14 11 9 8 7 6 8 11 13 14 16 19 23 26 28 33 36 37 38 39 41 42 43 47 48 47 50 52 53 50 44 39 35 34 34 32 31 30 30 31 31 31
19 20 20 20 20 18 17 16 15 14 12 10 9 8 7 8 9 11 12 14 16 18 21 24 28 30 33 36 39 40 41 41 42 44 48 48 47 50 52 54 50 45 39 36 35 34 33 32 31 32 33 33 31 29
18 18 18 17 17 16 15 15 13 13 12 10 8 8 9 11 13 14 15 18 20 23 26 29 32 35 37 40 41 42 42 42 44 47 48 48 51 54 54 51 45 40 37 36 35 34 32 33 34 34 32 30 29 29
19 18 19 19 19 19 18 17 15 13 12 10 10 11 14 14 15 17 19 22 25 28 30 33 36 38 40 42 42 42 43 45 48 48 48 51 54 54 51 45 41 39 38 37 35 35 35 34 33 31 30 29 29 28
17 15 14 14 14 17 17 17 17 16 16 15 16 16 15 17 19 21 24 27 29 31 34 36 39 40 42 43 43 43 45 47 48 48 51 53 54 51 45 41 39 39 38 36 36 34 33 31 30 30 30 29 29 29

GFSWCAN_500_spd_075.txt.gz
Wind_Speed
44 44 44 42 41 41 40 40 38 36 35 32 31 30 31 31 31 28 22 18 15 14 12 12 15 15 13 13 15 15 11 7 9 5 6 13 15 15 18 27 28 19 17 14 15 22 26 24 23 23 20 19 20 21
48 46 45 44 41 40 40 38 37 35 33 31 30 30 30 30 27 22 19 14 10 11 11 11 12 13 12 12 15 17 13 5 4 7 5 6 8 13 14 19 25 20 19 16 19 22 21 18 18 20 17 18 19 20
48 46 45 44 43 39 37 37 35 34 32 30 30 29 29 27 23 17 17 17 12 10 11 12 13 11 13 11 14 18 17 13 5 7 4 4 5 8 7 12 17 19 21 20 9 10 14 14 16 17 17 18 18 21
45 46 46 44 43 40 37 35 34 33 31 30 29 29 27 24 21 17 15 17 15 12 11 16 12 12 14 12 13 17 17 14 11 9 9 7 3 2 6 12 17 17 19 18 11 9 13 13 13 15 16 17 19 21
36 35 40 46 43 41 36 34 33 32 31 30 29 27 24 21 19 18 17 13 16 19 18 17 15 15 17 15 13 16 19 17 12 7 8 7 7 6 7 12 14 12 9 7 6 7 9 11 11 10 13 14 16 21
36 35 32 30 41 39 36 33 32 31 29 29 26 23 21 18 17 17 15 17 18 20 24 23 21 21 18 15 15 16 19 17 15 11 11 8 7 8 8 8 12 13 7 7 7 8 5 6 11 9 9 7 11 21
37 35 32 30 31 37 35 33 31 30 29 25 22 21 18 16 16 18 17 18 22 16 28 24 27 25 16 16 14 17 19 19 15 8 9 7 12 11 11 4 16 11 13 6 6 3 3 6 9 10 7 8 7 7
39 36 34 31 29 34 34 34 30 28 24 20 19 17 15 15 17 19 21 24 24 23 21 21 13 11 12 10 14 17 20 18 12 15 9 10 12 10 10 7 15 14 9 7 6 7 9 6 5 6 11 13 15 19
39 37 33 31 30 32 32 32 27 23 20 19 17 15 12 13 17 17 20 20 17 20 13 7 8 12 12 12 16 21 23 15 16 9 5 3 8 11 5 8 15 17 15 12 12 9 8 9 15 13 11 12 16 18
40 37 34 31 32 31 30 28 24 22 21 18 17 11 11 14 14 13 11 13 13 9 12 12 11 12 16 16 21 19 12 8 11 9 6 2 12 6 2 3 9 13 15 16 16 17 16 17 18 18 18 19 19 21
40 38 33 32 31 28 26 26 25 23 22 19 13 11 11 10 10 11 13 13 13 12 15 14 13 20 18 21 19 14 11 9 10 12 9 13 11 10 7 6 8 11 12 13 17 20 21 23 23 25 26 28 30 29
39 36 34 30 29 29 28 27 24 21 17 14 14 12 10 11 13 16 17 17 15 14 15 15 14 17 15 13 11 10 9 8 6 10 12 11 13 11 10 12 12 15 18 21 22 23 26 28 30 32 34 33 34 36
37 33 31 31 30 28 28 27 28 25 17 16 13 11 12 16 18 19 19 20 21 20 18 17 18 20 21 14 5 9 6 7 5 6 8 12 13 15 17 19 21 23 24 24 24 24 25 28 30 32 34 35 37 38
35 34 32 31 32 32 28 27 25 21 18 14 12 10 15 18 19 20 25 26 21 17 15 16 13 12 10 11 7 6 4 4 3 6 10 14 17 20 21 21 19 16 16 16 18 19 20 21 21 22 24 25 27 29
35 35 35 33 31 31 28 26 23 19 14 13 11 13 18 20 21 26 25 21 18 17 13 14 12 11 9 9 9 9 8 8 7 9 10 10 12 13 11 11 11 13 16 18 20 21 23 25 26 27 28 29 30 32
39 38 33 29 29 27 26 24 20 20 16 15 16 20 21 23 27 27 21 18 17 15 12 11 11 11 10 8 7 7 7 7 9 7 8 8 9 11 12 13 16 19 22 23 25 26 27 27 29 31 32 34 35 36
37 33 29 26 24 22 23 23 22 20 24 22 19 21 23 25 29 26 19 17 15 12 8 5 4 7 7 7 7 6 7 7 8 9 10 11 10 11 15 18 23 25 26 27 27 28 30 33 36 38 37 36 36 37
28 29 27 24 24 25 23 24 24 27 25 23 20 20 21 22 27 25 22 18 15 12 8 5 5 7 6 6 6 5 5 4 4 4 7 11 14 17 20 23 24 26 28 29 29 28 28 29 31 32 33 33 34 36
26 25 25 26 27 27 28 29 28 29 27 22 19 15 16 18 23 25 23 19 16 10 7 6 7 8 8 6 5 3 3 4 7 12 15 17 19 20 22 23 23 25 28 28 29 30 31 31 33 34 36 38 40 41
29 27 27 32 34 32 29 34 33 30 24 21 17 19 19 19 19 21 22 20 16 13 10 8 6 5 6 4 3 4 7 11 13 14 16 18 18 19 22 25 27 30 32 34 34 35 34 34 35 36 38 41 43 45
29 30 32 34 34 32 32 32 28 26 25 23 23 22 21 19 18 17 16 16 14 12 10 8 7 6 5 6 7 10 11 12 15 15 16 19 22 26 30 33 35 36 38 39 39 38 39 43 45 45 44 43 44 46
27 28 28 31 33 32 29 28 26 24 23 22 21 20 19 18 18 18 15 13 13 11 10 8 7 6 6 7 7 9 12 13 15 18 21 25 28 31 34 35 35 37 39 40 42 45 47 45 44 45 47 49 51 52
23 25 26 26 27 26 24 23 20 18 18 19 20 18 18 18 16 15 14 13 11 9 8 6 5 4 5 7 8 10 13 16 19 23 27 29 31 33 34 36 37 39 41 44 47 45 45 47 49 51 53 53 51 47
21 20 21 22 22 19 18 17 16 16 17 18 17 19 19 17 16 13 11 10 9 8 7 5 5 5 5 6 9 13 17 21 24 27 28 30 33 36 38 39 40 42 46 47 45 47 49 51 53 52 48 43 39 36
15 15 16 17 17 18 17 18 18 19 19 21 22 20 17 14 12 11 11 10 8 7 5 4 3 4 6 10 14 18 21 24 26 29 32 36 38 40 41 42 44 48 47 46 48 51 53 52 48 42 37 35 34 33
10 10 10 12 15 17 19 20 21 22 23 22 19 16 14 12 13 12 10 8 7 6 5 5 5 8 12 15 18 21 24 29 32 34 37 39 40 42 43 45 49 47 47 49 52 53 51 45 39 35 35 34 31 30
11 10 12 15 17 20 22 25 27 25 23 20 17 15 13 12 11 10 9 9 7 6 5 8 10 13 16 20 23 26 30 34 36 38 40 41 43 44 46 49 48 48 51 54 53 50 44 38 35 35 34 33 31 30
11 12 17 18 21 25 25 25 23 21 20 17 15 13 11 11 11 10 8 6 5 6 9 13 16 18 20 23 27 30 33 37 39 41 42 43 44 47 49 48 49 52 54 53 49 43 39 37 36 35 34 32 31 32
12 15 18 21 21 20 20 19 18 17 16 14 14 12 11 11 9 6 5 6 8 11 14 18 20 22 25 28 32 35 38 40 43 44 45 45 47 49 49 50 53 55 54 50 44 40 39 38 36 34 33 34 34 34
12 16 18 18 18 19 18 18 18 16 14 14 12 11 10 10 9 8 8 9 12 15 18 20 22 26 29 32 36 39 41 44 45 46 46 47 49 50 50 53 55 55 51 46 42 40 39 37 36 36 35 34 33 32
15 17 18 18 18 18 18 16 15 15 14 13 13 13 13 11 9 9 11 13 15 18 20 23 26 30 33 37 39 41 43 46 46 47 47 49 50 51 53 55 56 53 47 43 42 40 38 37 36 35 33 32 32 31
18 18 18 18 19 18 18 18 19 19 19 18 16 14 14 14 13 12 14 17 19 22 24 27 30 33 38 39 41 42 45 46 47 47 49 50 51 53 56 56 54 49 44 43 42 40 38 37 35 33 32 32 31 32
20 20 20 19 19 19 19 20 20 19 19 19 19 17 16 15 15 17 20 22 23 26 29 31 34 38 40 40 41 44 46 46 47 48 49 50 53 55 57 55 50 46 44 43 41 39 38 35 33 33 33 33 34 34

GFSWCAN_500_spd_078.txt.gz
Wind_Speed
38 36 35 34 33 32 32 32 32 33 32 30 28 27 25 25 26 25 26 26 24 21 17 14 13 14 16 15 11 14 11 7 9 11 11 10 18 7 12 19 29 15 17 16 12 15 19 21 19 16 20 25 20 19
39 37 36 35 35 34 33 32 32 31 30 29 28 26 25 25 25 24 24 21 20 17 13 11 9 12 13 12 10 14 12 8 7 4 1 8 8 10 9 18 28 26 18 17 13 12 18 19 19 20 19 20 20 20
39 38 38 38 36 34 33 32 31 30 29 28 27 26 26 24 24 24 22 19 16 14 12 8 8 9 9 9 8 12 13 15 10 7 7 7 7 8 10 13 19 23 17 15 14 10 17 25 25 19 18 21 20 20
42 40 38 39 39 37 35 33 31 29 29 27 27 26 25 24 23 22 22 21 15 12 12 13 9 9 11 7 10 8 15 18 13 12 11 7 8 9 8 11 14 17 19 16 16 16 13 19 20 20 22 20 19 19
42 41 39 39 39 39 37 35 32 30 28 28 28 26 25 23 22 20 20 17 11 10 10 15 15 13 6 14 12 8 14 19 15 13 13 9 7 6 7 8 9 13 16 20 19 8 7 13 15 13 13 13 14 19
40 39 39 39 39 41 41 38 34 30 29 28 27 25 23 22 21 21 17 8 9 15 17 14 17 19 19 18 9 13 15 19 17 14 16 11 8 5 6 8 8 10 11 14 7 9 8 9 11 11 7 8 14 15
38 37 36 34 35 38 41 39 36 32 30 28 26 24 22 20 20 18 15 16 11 10 19 21 17 20 19 22 23 14 18 20 18 13 13 11 10 8 5 6 9 14 13 11 11 10 9 9 11 12 6 10 7 9
37 35 34 33 29 27 35 36 35 33 30 28 24 21 19 19 19 15 14 12 17 24 22 21 20 17 21 13 14 18 19 21 17 12 10 8 13 12 10 11 7 14 15 13 11 10 9 8 6 6 8 13 11 15
36 35 33 30 29 26 30 33 32 31 29 26 21 19 19 18 14 12 12 16 17 20 19 17 6 2 9 14 17 19 20 16 15 13 10 9 5 11 9 13 12 12 15 11 9 8 7 6 6 8 9 10 11 13
37 35 33 32 30 27 29 31 30 28 26 24 21 20 17 14 12 13 20 17 13 10 11 8 7 5 14 19 20 19 19 15 14 11 9 5 8 19 6 13 16 17 14 15 14 15 16 16 14 15 14 15 16 18
38 36 34 32 31 29 30 29 28 28 27 24 22 17 15 14 14 16 15 10 8 7 10 8 7 16 21 21 24 19 14 10 14 8 4 3 12 11 3 10 13 14 15 17 18 19 18 19 21 22 23 23 24 26
37 36 35 34 32 31 29 29 28 26 24 21 18 17 14 11 11 10 10 11 12 13 11 17 20 21 21 19 15 12 5 5 4 5 5 11 14 11 6 7 6 8 11 14 17 19 21 23 25 26 28 30 31 33
36 39 38 35 34 33 32 30 26 26 23 22 19 15 12 10 9 10 12 12 14 15 17 18 18 20 16 14 13 9 5 6 8 4 7 14 12 14 13 12 12 15 18 20 21 22 22 24 26 28 29 30 32 34
41 42 39 37 36 36 34 31 32 30 28 21 14 11 9 9 13 17 17 22 21 20 18 17 16 19 17 12 9 8 3 2 1 3 7 8 10 12 14 16 19 20 20 19 18 19 20 22 23 24 26 27 28 29
43 41 39 39 39 35 37 39 37 30 20 11 12 11 13 16 19 21 26 25 21 20 18 19 14 12 10 10 5 5 4 6 6 6 6 8 10 13 16 18 18 18 16 16 18 21 23 25 27 29 30 30 31 33
43 42 40 37 37 40 39 36 31 26 23 13 10 15 18 21 22 27 26 22 19 17 13 11 9 8 6 6 7 7 7 8 8 7 5 6 7 9 12 14 15 16 18 21 24 25 26 27 28 30 31 33 36 38
38 38 39 39 39 36 34 30 25 24 16 10 16 20 23 24 26 29 24 19 17 14 11 8 8 8 9 8 8 6 5 7 7 6 5 4 4 5 8 10 14 18 20 23 26 27 28 28 28 29 31 32 34 35
41 38 36 35 35 33 29 26 24 15 12 18 20 21 24 25 27 26 21 19 15 12 9 2 4 7 8 7 6 6 3 3 2 0 2 6 9 11 13 16 18 20 21 23 25 26 27 28 29 30 32 34 36 38
35 32 30 28 27 27 27 22 16 17 22 20 21 22 23 26 27 23 20 17 15 11 7 3 6 8 9 7 5 3 2 0 3 7 9 10 12 13 14 16 18 21 25 28 30 32 34 35 36 36 37 38 40 41
25 25 27 28 26 24 22 22 25 25 22 22 21 22 22 23 23 21 21 18 13 10 8 6 6 6 6 6 6 4 2 5 7 8 9 9 12 14 18 22 26 29 31 32 34 36 37 39 40 42 44 44 42 42
29 28 27 26 26 27 26 29 29 26 22 20 20 22 22 22 23 24 22 19 15 13 10 7 4 7 7 5 3 4 6 6 8 8 11 13 18 21 24 27 30 31 32 35 37 39 40 43 45 42 42 44 46 47
21 22 29 29 28 31 32 30 27 26 24 20 21 20 21 22 22 21 19 16 15 11 8 8 8 6 4 5 4 5 6 6 9 12 15 20 23 25 28 31 33 35 37 39 40 42 46 44 43 45 47 49 51 53
27 28 29 31 33 32 29 25 22 21 19 18 18 18 18 19 19 17 15 13 11 11 10 7 5 5 5 5 5 5 6 9 13 17 21 24 25 27 31 34 36 39 41 42 45 46 44 45 47 49 51 53 51 48
26 27 28 29 28 27 25 23 21 20 18 18 18 17 16 16 15 13 12 12 11 8 7 7 6 6 5 4 4 7 10 14 18 21 24 27 30 34 36 38 40 42 43 46 46 45 46 48 51 52 51 47 42 38
23 25 28 25 23 23 22 19 18 17 17 17 17 16 15 16 16 14 12 10 8 9 9 8 7 6 5 6 8 11 15 19 22 25 29 32 36 38 39 41 42 44 47 47 46 47 50 51 52 49 43 39 37 36
17 19 20 20 20 19 18 17 16 16 16 17 18 18 17 15 12 10 10 10 10 10 9 8 7 7 8 10 13 16 20 23 25 29 33 36 39 42 43 44 44 47 47 47 49 51 53 52 48 43 39 37 37 36
17 17 18 20 21 21 21 20 19 19 21 22 22 18 15 12 11 11 11 11 10 10 9 8 8 9 11 15 18 21 24 27 30 34 37 39 42 44 45 45 47 48 48 50 52 54 53 49 43 40 39 38 37 35
16 19 21 22 21 22 21 21 22 26 26 23 18 15 12 12 12 11 11 10 10 9 8 8 10 12 17 20 22 25 28 31 35 38 40 42 45 46 46 48 49 49 51 53 55 55 50 45 41 40 39 37 37 36
17 19 21 20 20 20 22 25 27 24 21 18 16 15 13 13 13 12 11 11 10 10 11 12 14 17 19 22 25 28 32 36 38 40 42 44 47 47 48 50 50 52 54 56 56 52 46 43 42 41 39 38 37 35
15 15 18 19 22 23 23 22 21 21 19 17 16 16 14 14 14 14 14 13 13 13 13 15 17 18 22 25 29 31 36 40 41 42 44 46 48 48 50 51 52 54 57 57 53 48 45 43 42 40 39 37 35 33
12 15 18 21 22 21 21 20 20 19 18 18 18 18 18 18 18 17 16 15 13 14 16 18 20 23 26 30 33 36 40 43 43 45 46 48 49 50 51 52 55 57 58 55 49 46 45 43 41 39 38 37 35 35
15 17 20 21 21 22 22 22 22 21 21 22 22 21 21 21 20 18 16 16 17 19 20 22 25 28 31 33 37 40 43 44 45 46 47 49 49 51 53 54 57 59 57 50 47 46 44 42 40 39 38 38 38 37
17 18 19 20 20 21 22 23 24 24 24 24 22 21 19 19 19 19 20 21 22 23 24 26 29 31 34 38 41 43 44 44 45 47 48 49 50 52 53 56 59 58 52 48 47 45 43 42 41 40 40 40 41 41

GFSWCAN_500_spd_081.txt.gz
Wind_Speed
36 34 32 30 29 27 27 27 27 25 25 24 24 24 24 23 23 21 20 21 21 21 20 19 20 19 19 19 17 15 11 13 14 15 10 13 12 6 11 13 14 24 17 11 13 15 18 18 19 18 15 16 23 26
38 36 34 32 30 28 27 27 27 28 28 28 27 25 25 24 22 21 20 20 21 20 19 17 15 15 14 15 13 8 10 10 11 9 10 6 10 7 10 11 17 20 19 14 14 14 14 15 13 19 17 14 18 23
40 38 35 34 32 30 29 27 27 26 26 25 25 24 24 23 22 21 19 20 20 19 17 14 11 11 8 11 13 9 8 12 11 9 5 5 7 6 15 2 20 23 24 19 13 15 12 14 18 20 18 17 18 20
41 39 38 36 34 32 30 29 27 25 25 25 25 24 23 22 21 20 20 19 18 17 17 13 11 9 9 5 13 11 8 14 14 14 10 8 8 6 10 9 20 11 22 24 16 14 11 12 15 23 29 29 25 20
40 40 38 36 34 32 31 29 28 26 25 25 25 24 23 23 21 21 20 17 15 17 15 13 11 14 14 15 11 8 7 16 18 18 17 10 10 9 8 6 9 14 15 21 16 17 13 13 17 14 18 20 22 19
42 40 38 35 32 31 30 31 30 28 27 26 25 25 24 23 22 20 17 17 20 13 12 16 19 18 17 18 14 10 10 14 22 18 18 15 11 9 12 9 8 10 17 21 25 18 13 12 10 11 10 11 13 14
42 40 38 35 33 32 31 31 32 32 30 29 27 26 25 23 21 17 17 19 18 18 18 18 13 17 20 18 19 14 11 12 21 20 21 17 13 9 8 7 4 8 15 15 15 13 10 10 11 12 13 12 13 20
43 40 38 36 34 33 33 33 34 34 32 31 29 26 24 22 19 16 16 15 18 23 22 24 22 21 25 23 22 20 17 18 22 17 20 18 14 10 7 6 7 4 5 12 12 13 13 12 11 14 12 11 12 13
43 41 39 38 36 35 35 35 35 35 33 31 29 26 24 21 17 16 16 15 16 17 24 20 18 16 9 6 10 16 18 22 20 16 16 15 12 10 10 6 9 5 8 14 13 11 12 9 7 6 7 9 13 15
40 39 36 34 32 30 29 32 34 33 32 31 28 25 22 17 17 17 15 15 15 23 18 11 7 5 10 11 16 18 18 18 17 15 11 9 8 13 14 6 12 11 13 13 15 11 10 10 10 12 14 14 15 16
39 38 37 35 32 30 27 28 32 32 31 29 27 25 19 18 17 15 14 15 19 12 8 7 5 12 15 21 19 19 14 14 13 9 8 5 8 12 17 11 12 15 11 9 10 13 14 15 17 18 19 21 22 24
37 37 36 34 32 30 26 29 30 30 29 27 24 20 18 17 16 15 15 11 7 8 8 10 16 18 20 16 15 18 13 9 9 5 5 6 8 10 2 8 8 7 7 9 10 13 16 18 20 23 25 26 28 30
37 36 35 34 32 30 29 30 31 31 28 25 23 21 20 18 12 9 8 11 12 14 18 21 22 23 21 17 13 8 3 4 6 3 4 7 10 11 8 4 4 6 9 11 14 17 22 23 25 26 26 27 27 28
38 36 36 34 33 31 31 32 32 30 27 26 24 20 18 13 9 13 17 19 18 19 19 21 21 16 16 14 12 9 5 5 4 5 6 10 10 11 13 14 16 17 19 20 24 26 23 22 22 24 25 27 28 29
38 37 37 36 34 34 35 34 33 31 28 25 22 19 14 13 17 19 22 23 20 17 16 19 14 15 14 8 8 3 3 3 4 6 7 9 11 12 13 15 18 20 22 23 20 19 21 24 27 29 30 31 32 33
40 40 39 37 37 38 37 37 35 30 27 20 17 13 13 19 22 26 25 24 21 20 18 17 16 11 9 8 6 5 8 7 8 7 7 7 8 9 12 13 14 14 15 17 20 23 26 27 28 29 30 31 32 34
42 40 39 41 40 39 41 37 33 32 26 17 9 11 19 24 28 28 24 22 20 18 14 12 10 8 8 7 6 7 5 4 4 4 4 3 3 3 5 7 10 13 16 18 20 23 25 28 30 31 33 34 35 37
42 42 41 40 40 40 37 35 31 23 19 12 11 16 23 27 32 28 25 21 19 16 12 9 9 10 10 8 5 3 3 2 2 4 4 3 4 5 7 9 10 13 17 22 26 29 31 32 35 38 39 40 41 42
39 38 38 40 39 35 32 29 23 20 13 14 16 20 25 28 30 28 21 21 18 13 9 2 4 7 7 7 5 4 6 7 5 4 4 4 5 5 8 11 15 19 23 26 27 30 33 35 37 39 40 41 44 45
40 41 40 36 33 30 27 23 22 17 17 16 18 22 25 29 29 27 21 20 16 13 8 3 3 5 8 8 7 8 6 3 3 3 4 4 6 10 14 17 19 23 26 29 33 37 39 41 42 43 46 46 43 43
32 31 31 30 27 22 21 21 18 20 19 18 20 23 24 26 26 23 20 19 15 10 8 7 5 6 7 9 9 5 3 3 5 4 5 8 13 16 18 20 24 28 31 35 38 40 42 44 46 47 45 45 46 49
29 29 29 28 26 24 22 20 22 21 22 20 20 22 24 25 25 23 21 18 14 12 10 7 7 9 9 7 5 4 5 6 5 6 9 13 17 19 22 25 29 33 35 39 41 42 44 47 47 45 46 48 50 52
22 23 24 24 24 22 24 26 24 22 19 19 20 21 22 23 23 22 18 16 14 11 9 9 10 9 7 5 6 7 6 6 8 11 14 18 21 24 27 30 33 36 39 41 43 44 47 47 46 48 50 51 54 53
22 26 25 24 26 29 28 24 22 21 17 17 17 18 19 20 21 18 16 14 12 11 12 11 9 7 7 8 8 7 8 10 13 17 20 23 26 29 31 34 37 40 42 44 46 48 48 48 50 51 54 55 52 47
28 24 22 26 28 26 23 20 19 17 15 15 15 16 16 17 15 15 13 13 14 13 11 10 9 9 10 9 8 10 12 15 18 21 24 27 30 33 35 38 40 43 45 47 49 49 50 51 53 56 55 51 45 42
20 21 22 23 23 21 20 18 17 16 15 15 15 16 15 14 14 15 14 14 13 12 11 10 11 11 10 9 11 13 16 19 22 24 27 31 35 37 39 42 44 46 48 50 51 51 53 55 58 56 51 45 43 42
17 20 21 21 20 20 20 19 18 17 17 17 17 17 17 17 16 13 13 13 12 12 12 12 12 11 11 12 14 16 18 21 24 27 31 36 39 40 42 45 47 48 50 51 53 54 56 59 58 52 46 44 43 42
18 19 20 21 21 21 21 20 18 18 18 18 19 20 20 16 13 14 13 14 13 14 13 12 12 12 14 15 17 19 20 24 28 31 36 40 42 43 45 47 49 50 52 53 54 56 60 60 54 48 46 44 43 41
21 22 24 23 23 22 21 20 19 18 19 22 24 23 19 17 16 15 14 15 14 14 14 15 15 16 16 18 20 22 25 29 32 35 40 43 45 45 47 49 50 52 54 55 56 59 61 56 50 47 46 44 42 40
24 25 25 25 26 24 22 23 23 24 26 28 25 21 19 17 16 16 17 17 18 18 19 18 18 18 20 22 24 26 29 33 35 39 44 46 46 47 49 51 51 53 55 56 59 62 59 53 50 47 45 43 41 41
23 24 24 25 25 25 25 24 26 28 27 24 21 20 20 20 20 20 21 21 22 21 19 18 20 22 23 25 27 30 33 35 38 44 47 47 48 49 51 51 53 55 56 58 61 62 56 51 49 45 43 43 43 42
19 19 21 23 23 24 25 26 25 23 23 23 23 23 24 24 24 24 24 23 21 20 21 23 24 25 28 30 32 34 36 38 42 47 48 48 48 50 51 52 54 56 58 60 62 58 54 50 46 45 44 43 43 42
19 19 20 21 23 24 26 26 26 26 26 26 26 26 27 27 27 24 23 22 23 24 25 27 28 30 32 34 35 37 38 40 46 48 48 48 49 50 51 53 56 57 59 61 59 55 50 47 45 44 44 43 43 43

GFSWCAN_500_spd_084.txt.gz
Wind_Speed
36 34 32 31 29 25 24 23 22 25 27 25 24 25 21 20 19 17 17 16 17 16 17 18 18 19 19 20 20 21 21 14 12 13 8 6 3 2 7 3 8 19 8 4 7 4 5 9 18 15 12 15 14 18
37 35 34 33 30 29 26 26 24 23 22 21 26 25 22 21 19 19 17 18 17 17 16 17 18 18 19 18 19 19 15 11 10 14 18 9 4 5 5 8 12 9 13 11 9 9 11 11 11 12 14 15 12 13
38 37 36 34 33 31 29 28 27 26 26 25 24 23 23 22 21 20 19 19 17 16 16 16 16 16 15 14 12 15 13 10 8 10 9 7 10 9 5 2 7 21 15 21 20 9 19 14 14 13 14 17 20 13
41 39 37 36 35 32 30 29 28 27 26 25 25 24 23 22 21 20 21 19 17 15 17 16 16 15 14 12 9 13 18 9 12 13 9 8 10 7 6 5 5 5 19 21 14 6 10 12 12 13 15 19 22 23
41 40 38 36 35 34 33 31 29 28 26 25 23 23 23 22 22 21 20 18 17 18 17 17 17 15 14 14 12 10 16 10 14 16 13 11 11 6 5 1 10 10 11 12 17 13 12 10 9 11 17 16 18 23
41 40 38 37 35 34 33 31 29 28 27 25 25 24 23 23 23 21 18 19 19 17 18 20 16 17 18 18 18 15 16 12 14 19 18 13 11 9 9 11 4 7 10 14 12 15 15 14 11 11 7 10 10 13
42 40 39 38 37 35 33 32 30 28 27 25 24 24 24 23 22 20 20 19 18 18 19 19 18 16 17 18 19 18 17 19 14 23 21 19 13 8 10 11 7 5 10 16 16 22 23 15 12 9 10 11 11 12
42 41 40 38 37 36 34 32 30 29 28 27 26 24 23 23 21 18 18 19 18 18 19 20 20 21 22 21 22 22 19 17 14 24 21 19 15 12 7 4 6 4 7 14 18 16 14 11 9 9 12 11 10 11
43 42 41 40 38 35 34 33 31 30 29 28 27 26 25 23 19 20 19 18 18 20 18 15 18 18 18 16 12 11 15 14 18 19 19 19 16 11 10 8 7 6 10 12 16 13 13 10 9 9 8 7 9 10
44 42 42 40 37 39 36 34 32 30 30 29 28 27 24 21 21 19 18 17 17 17 16 18 17 11 10 5 4 10 10 12 13 12 15 15 12 14 10 9 10 7 5 11 11 8 7 6 6 5 9 12 13 15
45 43 42 40 39 37 36 34 33 32 31 29 28 27 24 21 20 19 18 16 16 15 16 10 7 6 7 10 11 12 11 10 11 12 11 12 10 9 10 13 9 6 4 5 8 7 7 9 11 13 14 16 18 20
41 42 40 38 37 35 33 33 31 29 27 27 26 23 21 20 20 18 14 11 12 10 5 8 13 13 14 16 11 10 10 11 10 9 5 7 7 5 5 8 5 4 4 2 2 4 7 10 13 17 22 26 28 29
39 39 38 37 35 33 30 26 27 30 30 29 26 23 21 20 17 11 9 10 6 7 9 17 19 18 17 14 15 12 11 9 6 4 2 3 5 6 4 6 4 2 0 4 8 10 14 18 22 28 32 30 27 26
38 37 37 36 34 32 29 28 29 30 30 28 25 24 21 18 12 10 9 11 12 15 19 18 21 20 18 14 10 11 6 7 4 1 2 2 5 6 6 5 7 9 12 15 18 22 25 29 31 26 25 27 29 31
38 39 37 36 33 31 29 31 31 31 31 28 26 22 18 13 13 12 17 21 22 22 22 22 17 15 13 8 8 3 4 4 1 2 4 4 5 5 6 8 10 14 17 21 25 24 22 21 25 28 29 31 32 34
38 38 36 34 33 31 32 32 31 29 28 27 22 17 15 14 14 20 25 25 23 21 20 16 10 13 8 5 1 1 5 5 5 6 6 6 8 9 10 12 15 16 13 12 14 17 19 22 25 27 30 32 35 37
36 34 34 34 34 34 35 33 34 31 26 23 18 15 15 15 22 25 28 25 20 18 16 13 15 7 7 5 4 5 6 6 7 7 6 6 6 7 7 6 6 8 9 10 14 18 20 22 25 28 30 33 37 40
35 35 35 35 35 36 34 37 34 29 26 19 15 15 16 22 28 27 25 23 22 20 17 15 12 9 8 8 7 5 4 5 6 7 8 7 6 5 5 4 4 7 10 11 15 19 24 28 32 35 38 41 43 46
37 37 37 37 36 35 37 34 29 24 20 16 13 15 22 27 30 28 26 23 21 19 14 9 8 9 10 9 8 5 4 6 7 6 5 5 5 4 3 6 9 12 15 18 21 25 29 33 36 40 42 44 48 49
38 38 38 36 36 36 31 27 23 21 17 14 14 18 25 31 31 27 24 21 19 15 11 4 3 4 6 7 6 5 8 8 6 6 5 4 4 5 8 12 14 17 20 23 27 30 34 38 41 44 46 48 50 50
36 36 35 35 32 29 25 22 19 16 14 16 18 21 25 32 31 26 22 20 17 13 9 6 4 4 6 7 7 10 9 7 6 5 5 5 7 10 14 16 19 22 26 29 32 35 39 42 44 47 48 50 50 50
31 35 35 30 25 23 19 18 19 16 16 17 18 22 25 30 30 27 21 18 16 13 10 6 6 7 7 10 11 9 8 6 7 6 7 9 12 16 19 22 26 29 32 34 37 40 42 45 48 50 51 51 50 51
30 30 27 24 20 16 16 19 17 18 19 18 20 22 25 26 27 25 21 17 15 14 9 9 9 10 11 11 10 8 8 9 8 9 11 14 18 21 25 28 32 35 37 39 42 44 46 48 50 52 52 52 54 58
24 24 23 20 19 18 18 18 20 20 19 17 16 19 21 23 24 23 19 16 15 11 10 10 13 12 12 10 9 9 10 9 10 13 16 19 22 25 28 32 36 39 41 43 45 47 49 50 53 53 54 55 59 58
20 21 23 21 19 17 21 22 20 17 14 13 15 17 19 22 21 20 17 15 13 12 12 14 14 13 11 10 10 10 11 12 14 17 20 22 24 28 33 37 41 43 45 46 47 49 50 53 55 56 57 60 59 54
21 22 20 19 21 24 22 18 17 16 13 14 13 15 18 19 20 16 14 17 14 14 15 15 14 12 11 11 12 12 13 15 17 20 21 24 28 33 37 42 44 46 47 48 50 51 53 55 57 58 59 61 56 52
21 17 17 20 22 21 18 17 16 16 15 14 13 15 18 19 17 15 18 16 16 16 16 16 13 12 13 14 14 15 17 19 21 23 25 28 32 36 41 45 47 48 49 51 52 54 56 58 60 60 62 60 55 51
15 17 19 20 20 19 19 18 17 16 15 14 16 18 19 18 17 19 19 17 18 18 16 14 14 14 15 16 17 18 19 22 25 26 28 32 34 39 44 49 50 50 51 53 54 56 58 60 61 62 62 58 53 50
16 17 19 21 21 20 20 20 19 17 18 19 20 20 21 22 23 22 20 19 18 17 16 16 15 17 19 19 19 20 23 26 27 30 33 37 39 41 47 53 53 52 54 54 56 58 61 62 63 63 60 55 51 49
21 23 24 25 26 24 22 22 20 21 20 21 23 24 25 26 24 22 20 19 18 18 18 19 20 21 20 20 22 24 27 29 32 35 38 41 44 45 50 55 54 54 55 55 57 60 63 63 64 61 56 53 50 48
26 30 31 31 28 25 27 25 24 22 22 23 24 25 28 29 25 23 22 20 20 21 21 22 22 21 21 23 25 28 31 34 37 39 40 44 45 48 53 55 55 55 56 57 60 62 63 64 62 58 54 51 49 47
30 32 31 30 27 28 29 27 26 25 26 27 27 30 31 27 26 24 22 22 22 23 24 23 22 24 26 27 29 32 35 37 39 40 43 46 46 52 54 54 54 55 56 59 62 62 64 63 59 54 51 48 46 44
29 29 28 27 27 27 27 27 28 28 28 27 29 29 28 27 26 26 25 25 24 23 23 24 26 27 28 30 33 36 37 38 40 42 45 46 50 54 54 54 54 55 58 60 61 63 64 59 54 50 47 45 42 42

GFSWCAN_500_spd_090.txt.gz
Wind_Speed
40 38 35 33 30 28 25 21 21 21 21 32 32 29 26 29 28 27 22 19 19 17 15 13 12 11 11 11 11 12 13 15 16 16 9 12 8 7 10 4 6 3 2 2 6 7 2 2 26 11 32 21 38 18
40 37 36 32 30 27 25 23 21 22 25 34 31 30 28 30 27 26 21 20 18 14 13 13 13 12 11 10 11 13 13 14 14 13 12 16 10 11 10 12 4 7 12 5 1 12 6 2 16 16 26 29 18 19
41 38 36 33 30 27 25 24 22 24 26 31 31 29 30 30 26 26 23 19 16 15 14 13 13 11 12 12 12 12 13 13 13 8 16 18 11 12 3 5 11 5 7 6 7 3 5 8 14 14 12 13 12 10
40 38 35 32 29 27 25 25 24 22 27 25 26 27 23 25 26 22 20 17 16 15 14 14 13 13 13 12 12 12 11 11 11 7 15 18 14 9 3 2 6 8 5 2 3 1 6 6 12 12 11 10 11 9
40 38 35 33 30 27 25 25 25 25 25 27 24 23 24 23 22 21 18 17 16 15 13 13 14 15 14 14 14 13 11 9 10 8 15 17 14 11 9 2 4 8 7 5 1 3 6 9 7 8 9 11 10 10
40 39 36 33 30 28 27 26 25 25 25 28 28 25 23 22 23 20 18 17 17 16 15 15 15 15 15 15 14 14 13 13 11 11 16 20 14 11 10 8 3 6 5 5 3 6 8 9 7 5 6 6 7 8
42 39 36 33 31 30 28 26 26 26 25 29 28 24 22 22 20 19 18 18 16 16 14 14 15 15 16 15 15 16 18 17 17 14 14 21 15 11 9 8 7 4 2 6 5 3 9 12 8 6 5 7 8 7
44 40 37 34 30 30 29 28 27 27 25 25 24 22 21 20 19 18 17 17 16 15 14 14 14 16 16 16 17 20 17 17 19 21 18 19 17 14 12 8 4 5 7 8 11 9 10 9 10 11 10 10 9 9
44 42 38 35 33 32 31 29 28 26 25 23 22 21 19 19 19 18 17 15 14 13 12 14 15 15 14 17 17 15 12 11 13 18 18 21 19 14 11 4 3 4 8 12 11 14 15 13 8 8 8 7 6 6
43 42 38 35 34 33 31 30 29 27 25 24 23 22 22 21 18 17 15 14 12 11 12 14 14 12 14 8 4 5 2 7 9 14 17 21 16 13 9 2 5 6 4 5 13 13 12 10 8 7 9 8 5 6
42 41 38 37 35 34 32 31 29 27 25 25 24 22 21 19 18 16 14 11 10 11 12 13 12 11 5 7 7 6 7 9 14 14 17 18 15 12 7 2 7 2 2 6 10 12 11 11 9 6 5 6 9 13
39 38 37 37 35 34 32 31 29 28 27 26 25 23 21 18 17 15 11 9 11 11 12 10 5 9 14 12 9 9 10 10 14 15 16 14 11 6 4 5 5 7 10 8 8 8 7 5 4 3 8 13 17 21
36 36 35 34 33 32 31 30 29 28 27 25 24 22 20 18 15 11 10 11 10 10 6 5 16 19 16 13 11 9 8 14 14 14 11 9 8 7 6 7 11 12 11 9 8 6 3 2 7 12 16 15 14 16
35 34 34 34 31 30 30 29 28 27 26 24 22 20 18 16 13 11 11 9 8 7 9 22 23 19 14 11 11 13 16 14 13 10 9 10 10 9 11 12 10 8 6 4 0 4 8 11 8 8 10 11 12 14
35 34 34 30 30 31 29 28 27 26 24 23 21 19 18 13 13 13 11 7 8 15 24 24 20 16 14 14 12 10 7 8 4 8 7 11 12 9 8 7 7 5 3 4 5 4 3 5 7 10 12 15 18 21
34 34 32 32 31 30 27 26 25 23 22 22 21 19 17 16 15 15 10 12 19 23 24 21 19 13 9 7 5 7 6 6 10 9 8 10 11 11 9 7 5 4 3 3 4 5 7 11 13 16 20 24 27 30
32 31 31 32 30 28 26 24 23 23 23 22 22 20 20 19 16 14 14 22 23 23 22 18 15 11 6 6 5 5 4 3 5 6 8 9 9 8 6 5 4 4 4 6 7 10 14 17 21 26 29 32 34 35
32 31 30 28 27 27 26 25 24 23 22 20 21 20 20 20 16 14 21 26 24 24 20 15 14 12 9 8 4 4 5 4 5 6 7 6 5 5 4 4 5 5 6 9 13 17 21 25 28 32 34 35 37 40
32 31 31 30 29 28 26 25 23 21 21 21 21 18 15 14 14 19 26 28 27 25 19 13 11 10 11 8 7 7 5 4 5 6 7 6 6 6 5 5 5 8 11 15 18 22 25 27 29 32 36 38 40 42
33 32 32 31 29 27 26 25 24 25 25 22 17 12 11 11 16 23 27 27 25 22 18 12 12 11 11 10 9 9 7 6 7 8 7 7 7 6 6 6 9 12 15 18 21 23 26 29 33 36 38 41 43 45
33 32 30 29 27 27 27 27 29 27 23 19 13 9 8 14 19 25 28 26 22 19 16 14 11 8 7 7 8 9 8 9 11 9 7 7 7 7 8 10 13 16 18 19 22 25 28 32 37 42 45 47 48 50
28 28 27 26 27 27 29 29 25 23 19 13 9 8 11 16 21 25 28 24 23 20 18 14 9 6 7 8 8 10 11 12 9 9 9 9 9 11 12 15 17 18 20 23 26 30 35 39 43 48 52 53 53 54
26 25 25 27 26 30 28 22 19 18 14 10 7 9 14 18 24 27 25 24 22 21 19 15 11 9 9 8 9 11 13 11 10 10 11 13 13 14 16 18 20 21 23 26 30 36 42 46 47 51 57 59 58 59
28 26 26 28 29 25 23 18 16 14 12 8 8 11 16 21 26 27 26 22 22 21 18 17 15 12 10 10 11 14 12 11 12 12 13 14 15 16 18 20 22 24 27 32 36 41 45 49 51 54 61 62 62 62
27 28 30 26 22 21 17 13 11 12 10 9 10 12 16 21 25 27 24 23 22 21 18 17 16 14 11 12 14 13 13 14 14 14 15 16 17 18 20 22 25 28 32 37 42 45 48 52 54 58 63 63 63 65
28 27 25 22 19 16 13 10 12 13 11 11 12 13 15 20 24 25 24 25 23 20 17 16 15 13 13 15 15 17 16 15 16 17 17 18 19 21 23 26 29 33 38 41 46 48 52 55 56 61 64 64 65 69
18 18 17 17 16 13 11 11 14 14 14 14 13 14 15 16 19 20 24 25 24 20 16 15 15 14 16 17 16 15 16 18 19 20 19 20 21 23 26 30 34 38 42 45 48 52 55 57 60 64 64 64 68 70
15 17 16 17 15 15 15 17 18 17 16 14 14 14 14 15 19 23 24 24 22 19 17 17 16 17 17 15 16 18 20 21 21 21 21 22 24 26 30 34 38 42 45 47 51 55 57 58 63 64 64 67 70 71
13 16 16 16 18 17 19 20 18 16 16 18 18 17 16 17 20 22 24 25 24 21 20 18 18 18 17 17 19 21 22 23 23 22 23 24 26 28 32 37 41 44 47 51 55 57 57 61 62 63 66 69 70 71
13 15 17 19 20 18 19 22 21 21 20 20 19 19 18 19 22 23 24 26 25 24 22 20 20 19 19 21 22 23 24 23 23 23 24 27 29 32 36 40 44 47 51 55 57 56 58 60 61 64 67 70 71 66
16 18 20 20 19 19 21 23 23 23 22 21 22 21 21 22 23 25 27 27 26 26 25 23 22 22 22 24 24 24 23 23 24 25 27 30 32 36 39 43 46 50 54 56 54 56 58 59 62 65 68 69 66 57
26 25 24 22 21 21 22 24 25 26 26 25 24 23 23 25 27 28 28 28 28 28 27 26 26 26 25 25 25 23 23 25 26 27 30 32 35 38 42 45 49 52 53 52 53 56 57 60 64 66 67 65 57 48
31 30 31 31 31 31 30 31 30 29 27 27 26 27 26 27 30 29 29 30 30 30 29 29 29 28 27 26 24 24 25 27 29 30 32 34 37 40 43 48 50 51 50 52 53 55 58 62 64 65 64 56 47 42

GFSWCAN_500_spd_093.txt.gz
Wind_Speed
36 41 36 31 31 30 28 25 25 24 23 23 30 36 33 31 30 27 24 20 20 21 19 18 16 12 11 11 10 11 11 11 11 12 13 13 9 5 7 7 4 2 5 10 7 9 5 2 2 7 11 16 12 24
44 40 34 33 32 30 29 27 27 26 22 27 35 35 32 32 30 28 24 22 22 18 15 14 13 11 11 10 11 13 12 12 11 11 12 11 15 8 7 2 5 6 1 8 3 7 5 5 13 8 19 21 12 23
35 41 34 34 32 32 30 28 28 27 22 30 35 33 27 33 29 30 26 22 21 18 16 13 12 13 12 12 12 12 13 13 12 11 11 12 16 17 8 3 5 4 5 5 8 10 13 10 15 14 16 21 17 8
43 40 31 32 33 31 30 29 29 28 25 37 34 30 28 31 29 28 27 22 20 17 15 14 14 13 13 13 12 14 14 13 12 11 12 13 19 13 16 4 4 4 3 3 2 2 11 14 12 15 16 15 13 10
43 38 33 33 32 31 29 29 27 31 35 37 32 28 31 29 28 25 25 22 19 17 14 14 14 14 13 13 14 14 14 14 14 12 12 14 18 16 12 9 3 6 5 5 4 4 4 11 11 7 5 5 8 7
46 39 36 34 32 30 28 29 27 29 33 32 29 27 28 22 25 24 24 21 18 17 16 15 15 15 15 15 15 15 17 16 15 14 16 14 18 20 17 12 10 8 7 5 6 5 6 7 6 6 5 4 1 4
42 38 36 33 31 29 28 27 27 26 29 29 26 26 26 22 24 23 21 19 17 16 15 14 14 15 15 17 18 18 18 18 19 19 19 15 19 20 20 17 15 10 11 8 7 7 9 10 6 3 1 1 2 5
38 39 36 33 30 29 28 26 26 25 24 25 28 26 23 22 23 21 19 18 16 15 14 14 15 16 17 18 18 18 20 23 22 18 18 18 19 21 21 18 16 14 13 12 9 9 8 14 10 9 7 7 6 6
38 37 37 33 30 28 27 27 25 24 24 25 29 27 23 21 20 19 17 15 13 13 13 15 15 15 16 17 17 19 19 20 19 20 23 21 22 24 19 19 15 12 12 15 19 13 13 13 10 7 8 7 9 11
40 38 35 32 30 29 28 27 25 24 23 24 26 25 23 20 18 16 14 13 13 13 15 14 13 15 14 14 7 4 7 5 9 11 13 17 25 22 19 14 7 6 7 11 16 24 21 20 18 15 12 10 11 10
39 38 36 32 31 29 28 27 25 24 23 23 22 21 19 18 17 15 13 13 12 13 14 12 13 13 11 6 9 1 4 6 3 8 14 22 22 18 14 9 3 3 8 10 17 21 16 14 13 11 11 11 12 13
38 38 36 34 32 30 28 27 27 26 25 23 22 21 19 17 16 15 14 13 13 12 11 10 11 8 10 13 9 4 6 6 4 11 16 18 16 12 8 4 4 8 7 9 11 12 13 14 13 13 11 10 12 17
38 36 35 34 31 30 29 28 28 27 25 24 23 21 19 18 16 15 14 13 10 9 9 9 6 16 17 14 11 6 8 11 15 13 15 15 12 8 6 6 8 11 10 10 11 12 11 10 8 7 10 14 16 15
38 36 35 33 31 30 29 28 27 26 24 23 22 21 20 17 15 14 12 10 9 8 7 8 19 19 16 12 10 12 12 13 12 12 11 10 7 6 8 9 12 10 10 9 8 6 4 4 6 8 9 11 12 15
35 34 34 32 31 30 29 28 27 26 25 23 21 21 18 15 14 11 10 10 8 8 11 23 21 18 14 12 13 14 8 8 6 7 8 8 8 11 12 11 9 9 8 5 5 7 7 7 7 8 11 15 19 23
34 34 33 32 30 29 28 27 26 25 24 23 22 20 16 16 14 12 11 10 10 15 25 23 18 14 14 10 8 7 5 4 7 9 8 13 13 11 9 10 11 10 9 8 7 6 6 7 10 14 18 23 28 31
33 33 32 31 30 28 26 25 24 24 23 22 20 18 16 16 15 15 13 12 18 26 24 21 16 13 11 9 9 7 6 7 6 7 8 12 14 14 13 11 9 8 7 6 5 6 9 13 17 22 26 29 31 32
32 30 30 29 26 26 26 25 24 23 22 21 19 17 18 18 17 16 14 19 25 26 24 21 14 11 9 9 7 6 4 4 5 7 8 9 10 10 9 8 6 5 4 5 7 11 16 20 24 26 27 28 31 34
29 30 30 29 28 27 25 24 22 21 20 19 18 18 19 20 19 18 16 25 25 25 23 18 13 11 11 9 6 5 5 7 7 8 10 10 9 8 6 5 4 4 6 10 14 17 20 22 24 26 28 32 36 40
32 31 30 28 27 26 25 24 21 21 21 21 20 19 18 19 18 18 23 27 27 25 21 17 15 12 11 11 9 10 10 9 9 9 10 8 6 5 5 6 6 8 12 15 19 21 22 25 26 31 37 40 43 46
32 30 29 27 27 26 24 23 22 23 23 22 19 16 14 16 17 18 28 30 30 24 20 17 18 13 11 12 12 10 10 9 9 10 9 6 7 7 8 10 12 13 16 20 22 23 25 28 33 38 41 46 49 52
29 29 28 28 26 25 25 26 26 26 24 20 14 10 8 13 18 22 29 30 27 24 22 21 14 12 9 7 7 8 10 10 11 11 9 9 10 10 12 14 15 17 20 22 23 26 29 33 38 42 45 49 53 56
26 26 26 24 24 25 25 26 26 25 21 15 10 8 9 14 20 26 27 28 25 24 23 19 14 11 8 7 8 10 10 11 13 11 11 12 13 15 16 16 17 20 22 23 26 29 33 38 42 46 49 53 58 59
25 24 24 25 25 27 28 25 22 21 16 13 8 7 11 15 21 25 25 27 25 25 22 19 17 14 12 11 11 12 12 14 13 13 14 15 16 17 17 18 20 22 23 25 28 33 38 42 46 50 53 58 60 62
26 26 26 26 29 29 24 20 17 16 14 11 8 9 11 16 20 23 25 25 25 25 22 20 17 15 15 15 14 13 15 15 15 16 16 17 18 19 19 21 22 23 26 30 33 38 42 46 49 54 58 61 62 65
25 24 24 26 26 23 18 13 10 11 12 9 10 11 12 16 20 22 24 27 25 24 23 20 18 17 17 15 14 16 17 16 16 17 19 20 21 22 23 23 25 27 31 34 38 41 45 50 53 57 61 61 63 65
24 27 25 21 20 18 16 13 12 13 13 12 14 12 12 14 17 21 27 27 26 25 24 22 19 18 17 15 15 15 15 17 20 21 22 23 24 24 25 26 28 30 34 37 41 44 48 53 56 61 61 62 64 66
21 22 21 20 18 17 16 15 13 15 15 16 14 13 12 15 19 23 25 27 27 26 24 23 20 18 17 15 15 16 19 20 21 22 23 25 25 26 27 28 31 33 36 40 44 48 51 55 59 60 60 63 65 68
18 18 20 19 19 18 18 17 17 18 19 20 17 15 16 18 19 21 23 25 26 26 25 25 23 19 18 17 18 20 20 20 21 23 25 25 25 27 29 31 33 36 39 43 47 50 54 58 59 59 62 63 66 69
18 20 20 21 21 20 20 21 21 24 24 23 21 21 20 20 21 21 22 24 26 27 27 27 25 23 21 19 20 21 20 21 23 25 25 26 27 29 31 33 35 38 41 45 48 52 56 57 58 60 61 64 67 70
16 17 18 20 20 20 22 22 24 27 27 25 23 24 24 23 23 22 23 24 25 27 29 29 28 26 24 23 23 23 23 23 24 25 26 28 30 32 33 36 38 40 43 46 50 54 55 56 58 59 62 65 68 67
22 21 20 19 19 20 22 23 25 27 27 26 25 25 26 27 25 24 23 24 26 30 31 31 31 29 27 25 26 26 26 25 25 26 28 30 32 34 36 37 39 42 44 48 52 53 53 55 56 59 63 66 65 58
33 31 29 28 27 26 25 26 26 27 28 28 27 27 27 28 28 25 25 28 30 33 34 34 34 32 30 29 28 29 28 28 28 29 30 33 35 37 38 39 41 42 46 51 51 51 53 54 57 60 63 63 57 49

GFSWCAN_500_spd_096.txt.gz
Wind_Speed
44 40 29 26 26 28 27 26 24 25 27 26 26 23 22 27 34 33 30 27 25 21 20 17 16 15 13 12 12 11 11 10 9 11 13 13 14 14 13 9 5 3 8 8 4 13 8 5 2 5 4 5 8 11
35 35 33 18 26 26 26 26 24 26 26 27 24 27 33 36 33 31 29 24 20 18 18 17 15 14 12 11 11 11 10 10 11 11 11 12 13 10 9 11 8 3 3 2 1 1 3 2 2 4 4 8 16 16
36 42 35 36 21 26 26 26 24 27 26 29 27 33 35 33 34 30 26 22 21 19 18 16 13 11 11 11 12 12 12 11 10 11 10 10 10 13 7 5 7 6 2 5 2 3 3 5 6 9 9 13 16 19
37 31 36 30 21 24 26 26 25 29 28 31 35 37 36 34 32 27 25 21 21 20 15 14 12 12 12 13 12 12 11 11 12 11 11 11 10 12 16 7 4 10 7 2 1 6 9 9 11 12 11 15 15 13
41 38 37 32 26 25 27 28 26 26 28 28 37 35 33 32 30 31 26 22 19 19 14 14 13 13 13 12 12 12 13 13 13 12 12 12 10 15 18 18 7 8 9 6 4 6 12 13 11 11 12 11 9 7
31 37 35 27 24 26 28 28 28 29 28 31 34 32 30 29 28 28 28 25 21 18 15 13 13 12 12 12 13 14 14 15 15 16 15 15 12 16 20 20 16 8 10 10 10 5 6 12 10 10 9 9 7 4
38 37 33 22 25 27 28 28 31 33 30 32 34 32 30 28 27 23 24 22 20 17 16 15 14 12 12 13 14 16 18 18 18 19 19 18 18 16 26 23 19 15 14 11 9 8 7 8 6 6 6 5 3 1
36 37 30 23 25 27 27 27 28 31 33 34 30 26 25 26 19 22 21 20 19 17 16 13 11 13 13 14 15 17 20 22 22 23 25 24 21 17 28 28 24 19 17 13 12 9 9 11 8 6 3 2 0 2
36 35 28 27 27 27 27 28 29 27 31 30 26 24 25 25 20 21 20 17 16 15 13 12 12 11 12 14 17 20 23 26 27 27 26 22 20 20 25 28 25 22 19 17 15 13 12 11 12 9 8 9 5 4
38 33 32 29 28 27 26 26 26 26 26 29 29 26 24 21 20 21 18 15 15 14 12 11 10 10 13 15 17 10 5 11 11 9 11 18 20 23 24 24 23 21 20 17 20 21 19 16 14 12 10 10 10 14
37 38 34 31 28 26 25 24 24 24 23 24 28 27 21 19 18 17 17 15 14 13 11 9 10 12 12 13 6 1 6 9 4 1 8 15 22 24 21 19 18 16 17 15 16 21 20 20 20 19 15 12 11 12
38 36 32 31 29 26 25 24 23 24 23 22 24 24 21 19 18 17 16 14 12 9 8 9 11 11 12 7 10 2 4 6 8 6 11 18 24 21 19 15 13 10 8 6 8 13 9 6 9 9 9 10 13 14
36 34 32 31 30 28 26 26 25 24 24 24 24 23 21 19 18 16 13 12 9 9 10 10 10 11 8 17 10 2 4 8 11 8 15 18 19 16 13 10 9 9 9 8 9 13 17 15 13 11 11 14 16 18
33 32 30 29 28 26 26 25 24 23 22 22 21 21 20 18 16 13 12 10 8 9 9 9 8 11 17 14 9 5 6 10 6 13 13 14 12 8 8 9 10 11 9 9 9 11 12 12 13 15 15 12 11 14
31 29 28 28 27 26 25 24 24 23 23 21 20 20 17 15 13 11 9 8 8 9 8 6 17 17 15 11 7 8 7 8 9 10 10 9 7 8 10 11 10 9 9 9 8 8 8 9 7 6 7 10 14 19
30 29 27 27 27 26 24 24 23 23 22 20 18 17 16 15 13 12 10 8 8 8 7 20 19 16 13 10 13 6 7 6 4 7 7 8 10 11 11 9 9 8 7 6 6 5 4 4 5 8 12 17 22 26
30 28 28 27 26 26 25 24 23 22 21 20 18 18 17 15 13 12 10 9 8 8 22 22 17 15 14 13 10 6 7 6 6 6 7 10 10 10 8 8 10 10 8 6 4 3 4 6 10 15 20 23 24 26
31 29 27 26 27 26 25 24 23 21 21 20 20 19 16 14 14 13 12 10 9 20 24 20 18 16 12 11 9 6 5 4 4 5 7 10 12 12 13 10 9 7 5 5 4 4 9 14 18 20 22 24 26 31
31 30 29 29 28 26 24 23 22 22 22 21 20 18 17 16 14 14 14 12 16 26 24 21 18 14 12 11 8 5 2 2 3 5 6 7 8 9 9 8 7 7 5 3 6 11 16 19 20 23 25 29 33 36
31 30 30 28 27 26 24 23 22 22 21 21 20 18 17 17 17 16 17 14 23 27 25 20 15 13 12 11 9 6 5 6 6 7 8 9 9 9 9 9 8 5 5 8 12 16 20 21 24 26 30 34 38 42
31 30 28 26 25 25 24 23 22 22 22 21 19 17 16 17 18 18 18 17 26 26 24 20 18 15 12 10 9 9 10 9 10 10 11 10 10 10 10 8 7 8 11 15 17 21 23 24 27 30 34 39 43 46
28 27 25 25 24 24 23 22 22 22 22 20 18 16 14 14 16 18 16 22 27 29 27 23 20 16 12 10 10 10 9 10 11 11 12 12 11 10 10 10 12 14 16 18 21 24 25 27 30 33 38 42 47 51
27 26 25 24 24 24 23 24 25 23 22 20 18 14 11 13 16 17 19 27 29 30 28 23 17 13 12 12 8 6 7 9 11 12 13 12 12 13 14 16 17 18 19 20 24 26 27 30 34 38 43 47 51 55
25 22 21 22 23 23 23 23 21 22 21 18 13 10 10 11 14 15 23 27 31 29 25 21 19 16 14 11 9 9 9 10 12 15 15 14 15 17 17 18 20 21 22 24 26 29 31 35 39 43 47 51 55 59
23 23 23 22 22 22 21 21 21 21 18 14 11 8 7 10 13 18 24 30 30 27 24 22 20 17 15 15 13 12 13 13 14 17 16 16 18 19 20 22 23 24 25 27 30 33 35 39 43 47 51 54 58 63
22 22 23 22 22 23 22 20 18 18 16 14 12 10 9 9 13 18 24 27 27 26 23 23 22 19 16 15 15 16 15 15 16 17 17 19 20 22 23 24 25 26 28 30 33 35 38 41 45 49 53 56 61 64
20 22 22 22 25 24 19 17 14 12 12 13 12 10 9 10 15 20 23 25 25 25 24 23 22 20 18 18 18 17 16 16 18 21 21 20 22 23 24 25 27 28 30 32 35 38 40 44 47 51 54 59 63 63
19 21 22 23 24 22 20 16 12 10 11 13 13 13 11 12 15 19 21 23 24 25 24 24 23 22 21 20 19 17 16 18 20 20 20 21 23 24 26 28 29 30 32 34 36 39 42 46 49 52 56 61 62 64
22 24 23 21 21 19 17 15 14 13 14 13 15 14 13 14 15 17 19 21 22 24 26 26 25 24 22 21 19 17 17 18 19 19 20 22 23 25 27 28 30 32 34 36 38 41 44 47 49 53 58 60 61 63
23 23 22 21 20 20 19 19 19 20 19 19 20 21 18 19 20 20 19 20 21 24 25 26 26 25 25 24 21 20 20 20 21 21 21 22 24 26 27 29 32 34 36 38 40 42 45 47 50 56 57 59 60 63
20 22 22 23 22 22 23 23 25 26 24 23 25 27 27 24 23 22 22 22 22 23 26 27 27 27 27 27 26 24 22 23 23 24 24 25 26 27 28 31 33 35 37 40 41 43 45 48 53 55 56 58 61 64
22 23 23 23 23 24 26 27 27 27 27 25 25 28 28 27 26 25 23 24 24 26 27 28 29 30 29 29 29 28 27 26 25 27 28 29 29 30 31 33 36 38 40 42 43 44 46 51 53 55 56 58 61 64
32 30 28 28 28 27 26 26 27 27 25 25 26 27 29 28 27 25 24 27 28 28 28 29 30 31 32 32 31 31 32 31 30 29 31 32 33 33 33 35 38 40 42 43 42 45 49 51 52 53 55 58 61 58

GFSWCAN_500_spd_099.txt.gz
Wind_Speed
46 39 24 30 26 23 21 24 25 25 24 24 24 25 28 29 27 26 30 30 29 27 28 24 20 18 15 13 11 9 9 10 9 8 7 8 10 11 12 11 8 8 3 9 12 13 9 6 2 3 3 4 5 2
47 37 32 30 21 22 24 23 24 24 24 23 27 27 26 26 27 34 34 32 27 22 20 20 16 15 13 11 9 9 8 7 7 7 8 9 9 10 11 5 5 4 2 2 2 2 2 2 1 4 4 2 5 10
41 30 35 23 20 22 25 24 25 23 25 26 24 24 27 28 34 32 32 29 25 24 19 17 15 14 11 10 9 9 9 8 8 8 8 8 9 8 8 4 6 8 4 4 0 2 3 0 2 2 9 8 7 12
44 29 27 25 17 21 22 23 25 21 23 25 25 27 29 34 34 33 29 26 22 19 17 17 14 12 11 10 9 9 8 8 8 8 8 9 10 9 9 7 7 10 11 2 2 3 2 4 1 3 7 9 9 13
43 36 39 27 21 13 20 23 23 20 23 27 28 28 28 35 36 32 28 24 24 22 18 15 14 11 10 10 9 8 8 10 10 9 9 11 11 8 12 15 11 12 13 7 2 5 7 10 9 11 9 9 9 11
33 40 38 27 24 12 20 21 20 24 24 30 28 27 35 36 34 31 28 27 23 20 15 15 14 11 10 8 7 8 11 12 13 13 12 12 12 11 12 19 17 10 13 14 9 5 11 12 10 10 10 10 8 7
41 38 30 27 17 15 21 21 19 28 36 33 31 30 34 34 31 31 25 22 21 19 17 14 10 8 8 8 9 11 13 14 16 16 16 15 15 14 13 21 24 18 12 14 14 10 10 16 12 11 9 8 7 7
38 33 29 22 17 19 22 22 21 30 33 29 28 27 31 29 27 27 26 23 19 15 14 11 8 9 9 9 11 14 16 17 19 20 21 20 19 19 15 23 27 24 19 15 14 13 13 11 10 9 7 5 6 5
31 32 28 19 15 21 22 22 25 31 32 30 28 30 29 24 22 19 20 19 16 14 13 11 10 10 10 11 13 15 17 21 23 24 26 26 26 25 20 27 31 26 23 18 16 13 13 13 12 8 5 4 4 3
35 31 29 17 17 21 22 23 26 30 31 30 30 27 24 19 17 16 17 15 14 13 11 11 9 9 10 12 13 15 14 12 15 17 14 15 20 22 23 28 35 30 25 19 16 14 13 13 14 12 8 7 8 7
29 27 25 17 19 21 25 25 25 27 27 28 27 23 22 21 20 17 18 15 14 12 10 9 9 9 10 11 11 9 6 9 14 10 6 5 17 21 22 24 29 27 24 22 20 18 19 17 16 15 13 12 10 10
29 25 21 21 22 24 25 26 26 26 27 27 25 25 23 21 20 19 18 16 13 11 9 8 8 9 10 10 6 4 4 8 8 5 6 8 17 17 19 19 20 20 23 23 19 17 14 15 17 15 12 11 10 12
27 23 21 25 24 24 25 26 26 26 27 29 30 26 22 20 19 17 15 12 10 9 8 7 8 8 10 5 11 3 3 6 8 9 6 12 16 16 16 14 12 13 14 12 8 13 17 13 9 8 11 11 11 11
27 25 25 26 26 25 24 23 23 24 24 25 27 25 21 18 16 14 13 11 10 8 6 6 8 9 5 16 9 4 4 3 4 8 10 13 13 13 11 12 14 13 10 9 10 11 13 15 14 13 10 11 13 15
30 29 28 27 26 25 24 23 22 22 21 21 21 20 18 16 15 13 11 10 7 5 5 7 7 12 16 13 7 5 7 5 8 9 10 8 6 8 10 12 11 8 8 8 8 8 8 10 11 11 11 8 8 12
32 30 28 26 26 24 23 23 23 22 21 20 19 18 17 16 14 13 11 9 6 6 7 6 13 17 14 10 9 9 8 8 5 6 7 6 7 10 12 12 10 8 6 4 3 3 5 6 6 3 3 8 13 17
33 29 26 24 23 23 22 21 21 20 20 20 19 18 17 15 14 12 10 8 6 6 6 13 19 16 13 14 8 7 7 5 5 6 6 8 10 9 9 8 6 5 3 2 3 5 5 3 0 5 11 14 16 20
28 28 25 23 22 21 21 20 19 19 19 19 19 17 16 15 13 11 10 8 7 6 10 21 18 15 14 12 10 8 8 5 5 5 6 8 9 7 5 5 4 4 5 5 6 4 2 4 9 12 14 17 21 24
25 25 24 22 21 21 21 20 19 19 19 18 17 16 16 15 13 11 9 8 9 7 23 22 20 17 14 12 10 7 5 4 5 5 6 8 8 8 9 9 7 6 6 7 5 2 5 9 13 15 18 22 25 29
25 24 24 22 22 22 21 21 20 20 19 19 17 17 16 15 13 11 10 11 10 16 23 22 21 17 14 12 10 7 3 1 1 3 4 6 7 7 8 8 9 9 9 7 5 7 11 14 18 20 23 26 29 33
26 24 24 23 22 21 21 20 21 20 19 19 18 17 16 16 15 14 13 13 11 22 26 25 22 18 15 11 9 7 5 5 4 5 6 7 7 8 10 10 10 11 9 8 10 13 16 18 21 24 27 30 34 38
26 25 23 23 22 22 22 21 20 19 19 18 18 17 17 16 15 15 14 16 14 26 30 27 21 16 14 12 9 6 6 6 8 8 9 10 11 12 13 12 12 12 12 14 16 18 20 22 25 28 31 34 38 42
24 23 22 21 22 22 21 20 20 20 20 19 18 17 15 14 13 14 14 15 17 27 30 26 20 16 15 13 9 7 6 7 9 11 12 14 16 15 14 13 14 15 16 18 20 22 23 26 29 33 36 39 43 46
23 22 21 21 21 20 19 21 21 20 20 18 17 15 12 12 12 13 15 16 21 28 28 26 22 17 15 13 10 9 7 7 9 12 14 17 17 15 14 15 16 18 20 21 23 25 27 30 32 36 39 42 45 49
21 19 19 18 17 18 19 19 17 15 15 16 15 12 9 10 11 12 15 18 23 27 27 25 24 18 16 14 12 10 10 10 11 12 14 17 17 16 17 18 19 20 22 23 25 27 30 33 35 39 41 44 47 51
18 17 18 18 18 19 18 18 17 18 18 15 12 10 8 8 9 13 16 19 23 25 25 25 22 20 18 16 14 13 13 13 13 13 15 18 19 18 18 19 21 22 24 26 27 30 32 34 37 40 43 46 49 52
15 16 17 18 18 18 18 18 18 17 15 12 12 12 10 10 10 11 15 19 22 24 24 24 21 20 19 18 17 15 15 16 16 16 17 19 19 18 19 20 22 24 26 28 30 32 34 36 38 41 44 46 49 51
15 16 18 19 19 21 20 17 16 14 11 10 10 12 11 9 8 11 12 17 21 23 24 24 22 21 20 20 19 18 18 18 17 16 17 18 18 20 21 23 24 25 27 29 31 33 35 37 39 41 44 47 48 53
16 17 18 20 22 22 19 17 15 13 12 9 7 10 11 12 11 11 13 15 18 20 22 23 23 22 22 21 21 20 19 18 16 16 18 18 20 21 23 24 25 26 27 29 31 32 34 38 40 42 45 46 51 55
18 21 22 21 22 22 21 20 18 17 16 14 12 11 14 15 14 15 14 15 15 18 20 22 23 23 22 22 22 22 21 19 18 17 18 20 22 23 25 26 26 28 29 31 33 35 38 41 42 44 45 49 52 55
19 22 25 23 21 22 22 22 22 22 21 19 18 16 17 20 21 18 19 19 20 17 20 21 21 22 22 23 23 23 23 22 21 20 20 21 23 26 28 29 30 31 33 35 37 39 41 43 44 45 47 50 52 54
21 22 24 25 25 26 27 28 27 26 25 25 24 22 20 21 23 26 22 20 21 23 25 22 21 21 23 23 24 24 25 25 25 25 24 25 25 26 28 31 33 35 36 37 39 42 44 44 44 45 48 50 52 54
26 27 29 30 31 31 31 31 31 31 29 28 27 25 22 21 21 23 25 26 25 25 24 24 24 24 23 24 24 25 26 28 29 29 29 30 30 31 32 33 34 35 37 38 40 42 44 42 43 46 48 49 51 54

GFSWCAN_500_spd_102.txt.gz
Wind_Speed
34 39 35 33 24 22 22 22 21 23 23 24 26 26 27 28 26 29 27 27 24 27 31 29 26 28 23 21 18 15 14 13 13 12 11 10 8 8 8 9 9 9 6 5 9 13 15 12 8 6 6 3 6 4
39 42 36 29 31 24 21 21 23 21 22 26 25 24 25 30 35 28 28 30 30 29 26 29 29 24 20 17 15 14 13 14 13 11 9 8 8 8 7 7 7 8 10 8 7 6 8 5 3 5 1 4 4 9
43 47 31 31 29 21 20 18 18 21 25 25 25 29 33 31 28 31 35 31 28 29 30 27 25 20 18 15 13 13 13 13 12 10 9 8 7 7 7 5 7 13 10 7 7 4 4 3 3 7 9 5 4 3
43 35 32 28 20 15 17 18 19 23 24 25 27 28 28 29 31 37 33 30 30 26 24 22 21 19 16 14 13 13 12 12 11 9 7 7 7 7 7 6 8 15 13 9 5 5 4 2 4 5 7 6 5 7
43 33 29 21 17 18 19 19 22 20 22 21 21 27 30 34 37 34 33 30 29 26 24 20 19 16 14 13 12 12 11 10 9 8 8 7 7 9 10 10 12 15 17 13 6 5 6 5 12 9 7 8 10 11
31 37 28 21 14 12 18 20 22 21 20 25 29 32 36 36 33 32 33 32 26 23 22 19 17 14 12 11 11 10 10 9 9 9 9 10 11 12 13 13 17 16 17 17 11 5 9 10 11 10 9 7 8 10
29 31 28 20 14 10 16 21 21 27 30 32 29 27 36 34 34 31 26 25 26 21 22 18 15 13 11 10 10 9 8 9 11 12 13 13 13 15 17 17 21 21 15 16 16 11 10 15 11 10 10 10 9 10
31 28 27 22 16 8 15 22 31 31 31 27 26 28 34 36 34 30 27 25 21 19 18 15 13 12 10 10 9 9 10 12 14 15 17 18 19 20 21 20 22 27 21 14 15 16 12 18 15 11 11 10 9 8
34 32 28 21 14 11 18 25 34 32 31 31 28 31 34 35 32 30 26 24 23 18 15 14 13 11 10 9 9 10 12 15 18 21 23 24 24 25 24 23 22 28 26 19 15 15 17 15 13 12 9 7 8 6
39 31 23 15 13 17 21 26 36 32 31 30 27 26 30 31 28 28 25 22 18 16 16 15 12 10 9 8 10 12 14 17 19 20 23 22 20 29 32 28 24 29 28 22 17 16 15 17 17 15 11 8 8 6
34 27 23 12 14 20 23 28 39 34 29 25 26 24 24 24 21 20 20 20 17 16 15 12 10 8 7 8 10 12 14 10 11 15 13 11 12 18 26 27 27 30 29 23 19 17 15 13 12 11 11 8 6 6
30 27 23 11 16 21 25 30 33 32 28 28 27 26 24 20 20 20 21 20 18 16 13 11 9 7 7 9 11 10 5 4 6 8 8 1 6 14 18 19 20 26 29 24 20 14 13 12 13 11 9 9 7 7
28 23 24 14 18 23 26 27 28 27 28 32 29 27 25 24 22 19 19 16 14 13 11 9 8 8 8 10 7 5 4 4 5 1 4 7 11 15 17 17 16 20 24 20 20 17 14 14 13 14 14 10 7 8
24 20 16 18 21 26 28 28 29 27 29 31 28 27 25 22 18 18 17 16 14 12 9 7 7 8 9 7 11 7 6 5 6 7 9 11 13 14 15 14 14 15 15 16 16 15 17 14 14 13 10 9 10 10
22 17 20 22 23 25 26 27 28 28 28 27 26 24 19 17 18 17 16 14 12 10 8 6 7 7 8 16 11 8 6 5 8 7 9 9 8 8 9 11 15 15 15 15 13 12 21 22 17 15 12 11 10 11
18 17 20 24 24 25 25 25 25 24 24 25 23 21 19 18 17 16 15 14 12 9 6 5 5 9 18 13 10 11 8 9 6 5 4 2 4 7 10 14 14 15 15 14 15 15 15 14 12 10 10 10 9 10
19 19 19 24 24 23 23 23 23 23 23 23 22 21 20 18 17 16 14 13 10 6 4 4 12 17 14 14 13 12 10 7 4 5 5 4 7 10 11 12 11 10 9 9 9 12 13 14 14 12 8 7 10 12
23 21 21 23 24 23 23 22 22 22 22 21 20 19 18 17 16 16 14 12 8 5 4 11 19 16 14 13 11 11 9 8 7 6 7 9 11 10 10 9 7 5 5 6 10 12 13 11 6 5 8 10 12 16
27 23 22 23 24 23 21 21 21 20 20 19 19 19 18 18 17 15 13 10 7 5 7 21 21 16 16 13 11 11 8 6 6 7 8 11 11 9 8 7 6 6 7 10 12 12 10 7 6 8 10 13 17 20
28 25 22 22 22 20 20 19 20 20 20 19 19 17 17 18 17 15 13 10 8 6 18 23 21 18 16 14 12 10 7 6 7 8 9 10 10 11 10 11 10 8 10 12 12 11 10 10 10 12 15 18 21 25
27 26 24 22 20 19 19 19 19 19 18 19 18 17 17 17 16 15 13 11 10 9 23 26 24 20 17 15 13 10 7 4 4 6 7 9 10 11 11 11 11 11 12 13 14 14 13 13 15 19 21 24 28 31
24 24 23 22 20 20 19 19 18 19 19 19 18 17 17 16 16 15 13 13 14 13 25 27 27 23 18 15 12 10 8 6 6 6 7 8 10 11 12 12 12 13 14 16 16 16 17 19 21 24 27 30 33 36
22 23 23 22 20 20 19 19 18 19 19 18 18 17 16 15 15 14 14 15 16 16 24 28 28 24 19 17 13 10 8 8 7 7 8 10 11 12 14 13 14 14 15 16 16 17 19 22 25 28 31 34 37 40
21 20 19 19 19 18 19 19 19 18 18 18 17 16 15 15 15 13 13 15 17 18 21 31 29 24 19 18 14 12 11 9 7 8 10 12 14 16 16 16 16 16 17 16 17 19 21 23 26 29 32 35 38 40
19 19 18 18 18 18 18 19 18 17 15 16 16 15 14 12 11 12 13 15 17 17 21 30 32 25 21 17 15 15 14 11 10 10 11 13 15 17 18 19 17 17 17 18 19 21 23 26 29 31 33 36 37 39
18 17 17 17 17 18 18 17 16 16 15 15 16 15 12 10 10 12 13 14 15 17 22 28 30 27 24 18 17 16 15 13 12 11 12 13 15 17 19 19 18 18 19 20 22 23 26 28 30 32 34 36 37 39
14 14 15 16 17 17 17 17 18 17 16 17 16 13 11 10 10 11 10 11 13 18 23 25 26 24 23 20 19 18 16 15 13 14 14 15 15 16 18 20 21 21 22 23 24 26 28 30 31 33 34 37 40 42
14 14 15 16 16 17 17 17 17 17 17 16 13 11 11 11 9 6 7 9 11 17 21 24 24 24 22 20 20 20 18 16 16 17 17 16 16 17 18 20 22 23 24 25 27 28 30 32 33 35 37 40 43 45
15 15 15 16 16 17 18 19 19 18 16 13 10 8 10 12 11 12 11 11 12 14 19 22 23 24 24 22 20 20 18 18 18 18 17 16 16 18 20 21 23 24 25 27 29 31 33 35 36 38 41 43 46 47
15 16 16 16 16 19 23 21 20 19 17 13 10 8 7 6 10 13 14 12 10 12 16 19 22 23 24 23 22 21 20 19 19 19 18 17 17 18 20 22 24 26 27 29 31 34 36 38 40 41 43 44 46 47
14 15 16 17 19 22 25 24 23 21 19 18 16 13 13 11 11 13 15 16 14 14 15 15 17 20 21 22 22 22 20 20 19 20 20 19 19 19 20 21 22 24 26 28 31 33 36 39 41 42 43 44 45 46
14 15 16 19 23 25 26 27 27 26 25 24 22 20 20 19 17 16 17 21 22 21 19 19 22 20 20 19 19 19 19 19 20 21 21 22 22 22 23 24 25 27 29 30 32 35 38 39 39 39 41 42 43 46
21 21 22 22 26 30 31 31 32 32 31 30 29 27 25 21 16 14 17 22 25 26 24 21 20 19 20 21 21 20 20 20 21 21 21 23 24 26 27 28 30 31 33 34 35 37 37 36 36 38 39 41 43 45

GFSWCAN_500_spd_105.txt.gz
Wind_Speed
20 22 34 30 26 32 29 31 31 31 30 26 23 22 28 30 29 29 28 28 27 27 29 30 33 34 29 25 23 24 23 22 22 19 18 18 17 16 14 12 10 10 10 9 7 8 13 13 12 9 10 14 9 13
22 36 35 30 27 29 33 30 26 25 25 22 22 28 30 29 32 31 28 29 26 27 29 33 32 26 23 24 25 22 20 20 19 18 17 16 15 13 11 10 8 9 9 9 9 9 10 10 7 6 12 4 4 2
32 38 32 28 28 21 25 28 23 22 21 22 27 31 30 34 33 31 28 29 28 28 31 30 26 28 26 25 22 20 20 19 18 17 16 14 13 11 10 8 7 9 10 12 9 9 9 8 6 6 7 2 4 2
35 39 28 28 27 20 20 19 19 21 23 25 27 28 31 36 36 32 29 29 28 27 25 29 28 28 24 21 19 19 18 17 16 16 15 13 12 11 10 9 9 10 13 13 11 10 9 8 7 12 7 7 3 3
40 34 31 30 26 20 19 17 20 22 26 27 29 32 36 38 36 32 34 31 30 30 29 28 27 25 23 19 18 17 17 17 16 15 14 12 11 11 11 11 10 11 16 16 13 8 9 9 10 7 6 6 6 6
39 36 32 29 24 18 16 20 20 24 24 28 30 29 29 35 35 33 33 30 31 28 30 26 23 22 20 18 16 15 15 16 15 14 12 12 12 12 12 12 13 13 17 21 19 10 10 9 11 10 7 6 7 11
39 35 26 21 17 18 21 22 23 22 24 27 32 35 35 37 34 29 25 26 30 31 29 26 22 19 17 16 15 15 15 14 14 14 13 14 14 15 15 16 16 17 19 21 21 16 11 13 14 13 9 7 10 11
40 34 25 20 19 22 23 25 24 28 30 34 37 40 38 35 31 33 32 28 26 26 25 23 20 18 16 14 14 14 13 12 12 13 14 16 17 18 19 20 21 22 23 22 20 19 15 14 16 13 11 11 11 11
37 29 23 16 13 20 24 27 31 34 37 35 33 35 35 31 35 33 32 29 25 24 22 19 17 16 15 13 12 11 11 12 14 16 18 21 23 26 25 26 27 26 26 27 18 20 19 15 20 15 13 12 12 12
31 25 19 13 10 20 27 33 36 34 33 32 32 36 36 36 34 31 28 27 23 21 20 19 16 13 12 11 10 10 11 14 16 19 23 27 30 30 31 32 33 30 28 28 22 18 19 19 18 19 14 11 12 12
27 23 17 14 13 23 28 32 32 31 29 28 29 35 35 34 31 28 24 23 22 19 17 17 14 12 10 9 9 10 12 15 19 15 22 19 21 21 23 31 35 33 28 28 25 19 17 15 13 17 14 11 10 10
26 21 15 13 20 25 30 31 31 30 26 27 32 32 31 31 28 27 24 20 18 18 17 15 12 11 10 9 9 11 13 13 10 10 10 11 11 10 14 19 28 29 25 27 24 20 17 15 13 11 12 13 11 9
25 21 14 15 22 26 33 32 31 33 31 29 28 28 28 25 26 26 23 21 18 17 15 14 12 11 9 8 9 12 6 5 6 4 6 4 2 5 10 15 19 21 21 24 21 18 14 15 13 12 10 8 8 7
22 17 15 12 20 25 34 36 32 28 29 29 25 23 24 23 20 19 19 19 18 17 14 12 11 9 8 9 10 8 6 3 3 3 2 2 5 8 13 15 16 18 17 19 17 18 13 10 12 11 10 10 9 8
22 17 10 16 24 27 28 31 30 27 26 29 27 25 22 19 17 18 20 19 17 15 13 11 8 8 9 10 12 11 7 6 7 6 6 6 7 8 10 12 15 16 15 17 16 18 15 14 14 12 12 12 13 12
16 13 11 20 27 26 27 27 28 27 29 26 23 21 20 19 18 19 18 17 15 13 11 8 8 8 8 14 14 12 8 10 6 3 3 4 4 6 8 8 10 11 13 15 15 11 16 21 21 18 18 17 14 13
16 17 19 21 25 26 27 25 25 27 27 25 25 22 19 19 18 18 17 16 14 12 9 8 8 8 14 15 13 13 10 8 6 2 1 2 3 7 8 10 13 14 14 15 16 17 17 19 21 20 19 16 14 14
16 19 21 21 23 24 25 24 24 24 24 24 22 20 20 19 19 17 16 15 14 11 8 7 9 14 14 14 14 12 11 6 5 5 4 4 5 7 10 11 13 13 13 13 14 16 17 19 19 18 17 15 14 16
14 15 19 22 22 22 22 23 23 22 23 23 22 20 19 18 17 17 17 15 13 10 8 9 18 17 16 15 13 12 9 8 7 7 7 8 8 7 8 9 8 7 7 8 11 13 15 17 17 15 13 12 13 14
12 13 16 20 22 22 21 20 20 20 19 19 19 18 18 18 18 18 17 15 12 9 8 15 20 17 18 14 14 13 9 8 8 9 10 10 11 10 9 8 7 6 7 10 12 15 16 15 14 13 13 14 16 19
17 14 15 19 21 20 19 18 18 18 18 18 18 18 17 17 18 17 16 15 13 10 9 19 23 21 18 16 14 12 9 7 7 9 10 11 12 13 12 12 12 10 9 11 14 16 16 15 15 16 17 19 22 26
21 18 18 19 19 18 17 17 16 16 16 17 17 18 17 17 17 17 16 15 13 11 10 19 24 22 20 17 15 14 11 9 8 8 9 10 11 13 14 14 13 12 11 13 15 16 17 17 17 18 20 24 27 30
23 21 20 19 18 17 16 17 17 17 17 17 17 17 17 17 18 18 17 16 15 13 13 18 27 26 22 19 17 15 13 11 10 8 8 10 11 13 14 15 14 13 13 14 16 17 17 18 19 20 23 26 29 32
23 22 21 20 19 18 17 17 17 17 18 17 17 17 18 17 17 17 18 17 16 16 18 18 27 30 27 23 20 18 15 13 12 10 9 9 11 13 14 15 15 16 16 16 16 17 18 20 21 23 25 28 31 34
21 20 20 20 20 19 19 19 19 19 18 18 18 18 17 17 17 17 16 16 16 17 19 21 24 32 30 26 23 21 17 15 14 12 11 11 12 13 15 16 18 19 18 17 18 20 21 22 24 26 29 31 34 36
18 18 18 18 18 19 19 19 19 18 18 18 17 17 17 16 15 13 13 14 15 17 20 21 21 30 32 27 23 20 18 18 18 16 14 12 13 14 15 17 18 19 20 21 21 22 23 25 27 29 31 34 35 37
15 15 17 17 17 18 17 17 17 18 18 17 18 18 16 14 12 12 11 13 13 15 18 19 22 27 31 29 25 21 19 19 19 18 17 15 15 16 17 18 19 21 22 24 24 26 27 28 30 31 34 36 38 41
15 16 16 16 16 16 16 16 17 18 17 17 17 17 15 13 13 11 8 6 7 10 13 17 21 25 28 29 28 25 21 21 22 20 18 17 17 18 18 18 19 21 23 25 26 27 28 30 32 34 36 38 41 44
17 17 16 16 16 16 16 16 16 17 18 18 18 15 13 13 13 11 10 14 11 8 11 16 19 22 25 26 26 25 23 23 23 22 21 19 19 19 18 18 20 22 24 25 27 29 30 32 34 35 37 39 41 44
14 14 15 15 15 16 17 18 19 20 21 20 18 15 11 9 9 11 12 13 16 15 12 15 18 21 23 25 26 26 25 24 23 23 23 21 21 20 20 20 20 21 23 24 26 27 29 31 33 35 38 40 43 44
15 15 15 16 17 18 19 20 22 23 23 22 20 16 13 11 10 9 10 13 16 17 13 12 15 18 21 22 24 24 24 25 25 25 25 24 22 21 21 21 21 22 23 24 26 28 30 32 35 37 40 42 43 43
12 12 13 14 17 20 21 22 25 26 26 25 24 22 20 18 15 13 14 15 17 19 20 21 19 19 20 21 22 23 23 23 24 25 24 23 22 21 22 23 23 24 25 27 29 31 33 36 37 40 41 42 41 40
15 15 16 17 18 19 21 23 26 29 30 30 29 28 26 23 20 17 19 21 22 23 22 23 24 24 24 24 24 25 24 24 24 24 24 23 23 24 24 25 25 26 28 30 32 34 36 37 39 40 41 40 39 39

GFSWCAN_500_spd_108.txt.gz
Wind_Speed
19 18 18 14 18 14 16 29 46 47 37 34 34 27 22 23 29 30 32 29 30 27 26 27 26 26 32 33 33 37 29 27 28 27 23 23 22 28 24 19 16 16 15 17 17 16 13 12 13 16 13 12 15 15
16 16 20 21 24 25 30 32 42 36 29 29 26 22 24 29 27 26 30 32 38 36 26 33 35 30 32 31 26 23 27 24 23 25 26 27 22 17 17 17 16 15 15 12 14 8 9 10 11 9 7 10 6 11
19 27 29 27 31 28 33 36 36 32 31 22 20 20 28 30 25 27 26 35 38 31 25 33 34 34 31 24 24 24 24 20 21 20 17 16 17 17 17 16 16 14 13 13 11 9 10 10 9 6 8 5 5 8
27 32 28 29 30 29 29 29 28 28 28 23 24 28 33 26 32 31 26 33 31 28 28 30 29 28 26 25 23 22 21 20 20 19 19 19 19 16 16 16 15 12 11 11 12 11 10 10 9 7 8 9 5 4
33 27 28 28 25 26 28 26 23 27 25 27 27 30 28 32 34 28 23 27 25 22 23 25 26 27 23 25 22 21 22 19 20 19 20 20 17 17 15 13 12 10 11 13 14 13 10 9 10 9 13 11 10 7
37 38 30 29 24 24 23 22 22 23 25 28 30 29 30 34 33 30 28 27 25 28 25 29 27 27 24 21 19 18 18 19 19 19 18 16 17 15 15 15 13 13 12 13 16 15 11 10 10 10 8 4 5 6
38 36 30 27 22 20 19 19 21 24 25 28 25 30 36 35 35 30 29 25 25 27 25 27 25 23 20 19 19 17 17 17 17 18 17 17 16 16 17 16 15 16 15 15 16 19 16 10 12 12 9 8 8 13
37 33 29 26 21 16 20 21 24 24 26 25 26 29 37 37 36 31 28 28 29 28 29 28 24 22 20 17 16 16 16 16 16 16 17 16 16 17 18 18 18 19 19 19 19 19 20 15 15 15 13 11 12 13
35 31 28 25 21 19 22 23 23 25 25 30 35 36 34 35 31 27 28 30 31 26 26 24 22 18 17 15 15 15 14 14 14 15 15 17 18 21 19 23 23 24 23 23 21 21 20 19 15 17 14 13 13 13
33 29 23 20 21 23 25 27 30 32 35 40 37 35 34 31 30 31 32 28 28 26 24 23 19 17 16 14 13 13 12 12 13 15 17 20 24 27 28 29 31 30 29 28 25 24 21 21 17 16 17 16 15 15
28 24 17 15 22 24 26 29 30 34 35 38 37 32 32 32 35 33 29 26 24 24 23 20 18 16 14 13 12 11 11 11 13 16 18 21 25 25 28 25 30 34 33 31 26 24 22 20 20 22 21 17 17 17
24 18 16 16 21 23 24 28 31 32 31 31 31 31 32 35 33 30 27 25 21 21 20 20 17 14 12 11 10 10 11 12 12 13 15 16 17 20 24 23 23 26 30 28 27 26 22 19 19 22 21 18 15 15
22 16 17 21 22 25 29 29 32 32 29 31 35 34 33 32 30 27 22 19 19 16 15 15 13 13 11 9 8 10 11 9 9 4 6 11 13 12 10 8 16 20 23 25 28 26 21 19 16 13 14 16 15 15
20 16 20 22 23 28 30 29 28 25 27 29 32 31 32 27 21 18 15 13 15 15 15 14 12 10 8 9 9 10 6 2 3 2 7 9 8 4 1 6 14 18 19 24 26 25 20 18 18 17 17 16 14 15
15 11 14 21 23 27 29 28 25 24 23 22 23 23 22 18 19 19 19 18 17 16 15 13 11 9 9 9 10 6 7 6 5 3 4 4 4 3 4 10 16 17 20 23 21 20 17 16 18 17 16 17 16 15
10 8 12 20 23 26 26 28 28 25 22 22 21 21 21 20 18 17 19 18 16 15 14 12 10 9 9 10 7 11 11 9 6 2 1 2 1 3 6 7 11 16 20 20 17 16 17 14 15 14 14 15 13 13
9 5 8 21 23 24 26 25 23 21 22 23 22 21 18 16 16 16 18 18 17 14 13 11 8 8 9 8 11 13 11 9 6 3 2 3 3 4 2 3 4 9 11 14 16 16 15 16 18 17 17 16 15 17
6 12 17 21 20 21 22 25 24 22 23 23 20 19 19 19 17 17 17 16 14 14 11 8 7 9 8 11 13 14 11 9 7 5 3 2 1 3 5 7 8 11 10 11 14 16 16 16 21 22 21 18 19 19
15 16 16 19 21 20 21 22 23 23 23 22 21 19 18 17 16 16 16 15 14 12 9 7 8 10 12 14 13 13 11 8 6 4 4 4 4 3 5 6 8 7 8 8 9 12 14 17 19 21 21 21 19 18
13 17 17 17 18 20 21 21 23 23 22 21 19 18 17 16 16 16 15 15 13 11 8 7 8 13 14 14 13 13 10 8 7 6 7 7 7 6 4 4 4 4 5 6 8 10 12 14 15 16 16 16 16 16
6 10 16 18 18 18 18 18 19 20 20 18 17 17 16 16 15 14 14 14 14 11 8 7 11 16 17 15 14 13 10 7 5 7 9 9 9 9 8 8 8 7 5 5 7 9 11 12 14 15 15 17 18 20
6 6 11 17 18 17 17 17 16 16 16 15 15 15 15 14 14 15 15 15 14 13 10 8 12 18 18 17 15 14 12 9 7 6 7 9 10 10 11 11 12 10 9 8 9 10 12 14 14 15 17 19 20 22
13 7 9 15 17 17 16 16 16 15 14 13 13 14 14 14 15 15 16 16 15 14 12 11 13 20 22 20 19 16 15 12 11 8 8 8 9 10 11 12 12 12 12 12 11 12 13 15 16 17 19 20 22 24
13 12 13 13 14 14 14 14 13 13 13 14 14 14 14 15 15 16 17 17 17 16 16 14 14 20 25 25 22 20 18 15 13 12 10 9 9 9 11 13 13 14 15 15 14 14 15 17 19 20 21 23 25 28
16 17 16 16 15 14 14 13 13 14 14 15 15 16 16 16 16 17 17 17 17 18 18 18 18 19 25 29 27 25 21 19 16 15 14 12 12 11 12 13 14 16 16 17 18 18 19 20 21 23 24 26 28 31
18 18 18 17 16 16 15 15 15 16 16 16 16 16 17 17 17 16 16 17 17 18 19 20 20 21 22 28 31 29 26 23 20 19 18 16 15 14 14 15 16 17 18 20 21 22 23 23 24 26 27 29 31 34
17 17 17 18 17 18 17 17 17 17 17 17 17 18 18 17 17 16 16 16 16 17 18 19 19 20 22 23 28 30 27 24 22 21 20 20 19 19 17 17 18 18 19 20 22 24 25 26 27 29 30 32 34 37
14 15 16 17 17 17 16 16 17 17 17 17 18 18 18 18 16 14 12 12 13 14 15 17 17 19 20 21 24 27 28 25 22 21 20 21 22 20 19 18 19 19 19 19 21 23 24 26 28 30 33 35 36 38
17 18 17 17 18 17 17 16 16 16 16 17 17 17 17 17 15 13 12 12 14 14 11 10 12 14 15 18 22 25 27 27 26 25 23 23 23 23 22 21 21 21 20 20 22 24 26 28 29 31 32 33 35 38
18 17 18 18 17 17 17 17 18 17 18 19 18 18 17 16 15 14 15 15 15 16 16 13 12 13 15 17 19 22 24 26 27 27 26 24 24 24 25 23 23 23 23 22 23 24 25 26 28 30 32 35 37 40
14 14 14 15 15 17 18 18 18 18 19 20 20 20 19 16 13 11 10 10 12 13 15 16 15 14 15 16 18 20 22 24 26 27 26 25 25 25 25 26 25 25 26 26 26 26 28 29 31 33 35 37 40 42
12 13 14 15 15 17 17 18 19 19 20 21 22 23 22 20 16 13 11 12 12 13 14 16 17 19 18 18 18 21 21 23 25 26 26 27 27 27 27 27 27 27 28 28 29 29 31 32 34 36 38 40 42 43
11 11 13 13 15 15 16 18 19 19 21 23 24 26 26 25 22 18 20 20 20 20 19 18 18 19 22 25 26 25 25 25 25 26 27 27 27 28 28 28 29 30 30 30 31 32 33 35 36 38 40 41 42 42

GFSWCAN_500_spd_111.txt.gz
Wind_Speed
19 17 19 19 17 16 18 18 21 25 34 41 51 45 37 34 27 31 28 28 26 25 14 24 21 24 25 27 29 35 37 35 29 23 23 23 25 26 26 23 23 22 21 18 19 19 16 17 16 15 15 15 11 13
17 16 15 15 14 17 16 15 20 33 41 50 45 37 38 28 24 26 29 34 27 22 15 19 19 22 30 34 37 35 36 32 24 25 24 22 22 22 20 22 21 18 18 18 18 16 13 14 13 11 10 7 11 11
15 17 16 20 17 19 18 26 32 40 44 42 40 35 31 26 30 30 25 29 33 19 21 22 27 19 28 34 30 27 23 24 24 23 25 23 23 21 19 19 19 19 18 17 15 12 13 11 9 9 8 6 5 7
19 25 23 30 27 21 23 28 41 35 38 35 32 25 24 27 32 27 27 31 27 23 22 26 27 34 29 28 27 22 18 20 21 21 22 18 17 22 17 17 18 18 16 15 14 15 12 11 9 6 7 6 7 3
28 31 32 31 27 28 32 35 33 33 32 28 25 25 28 31 25 25 25 38 33 29 27 23 32 31 31 25 21 19 20 21 17 21 19 16 15 18 18 19 15 16 15 13 13 13 12 11 8 6 8 9 8 8
35 35 31 30 24 28 32 30 30 32 26 22 24 26 32 26 26 27 28 34 35 31 25 22 27 26 25 23 22 22 19 16 17 19 17 17 16 16 18 14 15 15 13 14 15 15 14 12 9 8 10 9 9 6
33 32 28 26 27 27 27 22 24 26 26 25 25 31 29 25 24 28 26 28 24 21 17 20 22 21 22 24 21 19 21 19 19 16 16 17 16 16 15 14 14 15 16 16 15 15 16 13 9 9 11 9 6 10
35 29 28 26 27 25 22 21 23 23 25 27 29 31 25 26 28 26 22 21 19 16 14 17 23 27 23 17 18 17 15 15 15 17 16 15 16 15 14 14 17 18 18 19 17 17 16 18 14 11 13 10 9 12
34 28 25 24 23 22 19 19 21 23 25 27 26 30 36 33 30 23 22 21 18 15 17 22 22 19 19 18 16 15 15 15 15 14 14 17 18 17 18 21 22 22 22 22 21 20 19 17 19 15 16 14 12 16
31 27 24 21 18 17 19 20 22 25 26 28 34 37 36 32 29 24 22 19 18 23 23 23 23 19 18 14 13 13 13 13 14 14 16 17 18 19 22 25 27 27 27 27 26 26 23 20 20 19 17 15 15 19
28 25 21 19 16 19 22 23 27 27 29 32 37 40 35 31 26 21 21 22 25 24 24 22 21 18 17 15 13 12 12 13 12 14 15 17 19 23 26 28 31 33 35 35 35 31 27 25 22 22 18 18 20 21
29 24 21 17 17 23 23 25 30 31 32 35 35 31 30 28 23 23 22 22 24 23 22 21 18 15 12 11 12 11 10 10 11 14 15 14 13 15 20 23 25 27 28 28 34 32 28 27 24 23 20 22 22 22
24 18 18 20 21 20 23 28 31 32 34 33 32 30 29 28 27 25 20 20 20 20 18 16 16 15 13 12 11 9 9 10 11 9 4 5 11 16 17 19 19 19 22 25 27 29 28 26 25 25 26 27 24 22
17 18 18 20 23 27 29 29 30 32 34 32 28 26 27 25 22 20 20 20 18 16 15 16 14 12 11 10 9 9 9 7 4 3 1 7 8 11 13 11 8 6 15 23 27 29 27 24 24 25 28 28 24 21
17 18 20 25 27 26 26 27 26 25 25 25 24 24 23 21 20 20 19 17 15 14 15 15 13 12 10 8 8 9 7 7 7 3 4 7 6 7 7 2 5 10 15 19 24 23 25 24 23 21 21 19 20 20
15 17 20 23 24 25 25 23 21 22 22 23 22 20 20 18 16 16 15 14 15 14 14 13 11 10 8 8 9 7 8 10 6 5 2 4 2 1 2 2 5 9 12 19 20 20 23 20 19 20 21 20 20 20
13 16 16 22 26 23 21 23 23 22 21 21 19 19 19 16 16 16 15 14 14 14 12 11 9 8 8 8 5 9 11 9 9 4 3 2 2 2 1 2 3 7 11 16 15 16 18 15 15 18 18 19 19 19
10 17 17 19 24 25 23 21 19 19 21 21 20 20 20 17 16 15 16 15 12 11 11 10 8 7 7 5 6 11 10 9 8 6 4 2 1 2 2 2 2 5 8 13 15 15 16 17 17 18 18 18 17 16
13 20 19 18 18 19 21 22 19 18 19 20 19 18 17 15 15 15 15 13 13 12 10 8 6 5 4 7 8 11 9 9 6 5 2 1 1 1 2 2 3 4 5 6 10 13 16 16 16 16 18 19 18 18
16 19 18 17 17 17 19 19 18 19 21 20 18 17 16 16 14 14 13 13 12 11 9 6 5 5 5 8 10 12 10 9 8 5 4 3 3 3 1 3 5 3 4 6 7 8 11 13 16 18 19 21 21 19
12 15 17 17 17 17 16 17 19 20 19 18 16 15 15 14 13 13 12 12 12 11 9 5 4 5 7 10 11 11 10 8 7 5 5 5 4 4 5 3 3 4 4 3 4 6 8 9 10 12 14 17 19 19
9 11 14 15 16 16 17 18 18 18 17 16 15 15 14 13 13 12 12 12 12 11 9 7 5 7 11 14 13 12 12 10 8 4 4 5 5 6 6 7 7 8 6 5 5 6 8 9 9 10 12 14 15 17
5 7 10 14 14 15 15 15 15 15 15 14 14 13 13 13 13 12 12 13 12 12 11 10 8 8 12 15 17 15 13 12 11 7 6 6 5 5 6 7 8 8 9 9 8 8 9 9 11 12 14 17 17 19
4 2 3 12 15 13 14 14 14 14 14 13 13 13 13 13 12 12 12 13 13 13 13 13 12 11 12 17 19 19 17 16 14 11 10 8 7 6 6 7 8 10 11 12 11 12 12 12 14 15 17 19 20 22
8 7 7 10 12 12 12 12 12 12 11 12 12 12 12 12 12 12 12 13 14 15 15 15 15 15 15 15 20 24 22 20 19 16 14 13 12 10 10 10 10 11 12 14 15 16 17 19 19 19 20 22 23 25
12 12 11 12 11 11 11 10 10 10 9 9 10 11 12 13 13 13 14 14 14 15 16 17 17 18 18 19 20 23 27 25 24 21 19 18 17 16 14 14 15 14 15 16 17 18 19 21 23 24 25 26 27 29
13 13 14 14 13 12 12 12 12 12 12 12 12 12 14 15 15 15 15 15 15 16 16 17 18 18 19 19 20 23 24 27 28 26 22 21 20 20 20 18 19 19 18 18 18 19 19 20 22 24 26 27 29 30
13 14 13 14 14 14 14 15 15 15 15 14 15 16 16 16 16 16 15 15 15 15 15 15 15 16 17 18 19 20 20 22 26 26 24 22 21 20 21 20 21 20 19 19 19 19 19 21 23 24 26 28 30 31
14 15 15 15 15 16 17 17 17 17 16 16 17 18 17 17 17 17 15 13 13 14 13 13 14 13 13 14 15 16 18 20 23 25 25 23 21 20 20 21 21 23 23 22 21 21 21 22 22 24 25 26 28 31
18 18 17 17 18 18 18 18 18 17 18 18 19 18 18 17 16 16 15 14 14 15 15 15 14 13 11 11 9 11 13 16 19 22 24 24 24 24 24 23 22 22 23 24 24 24 24 25 26 27 28 30 31 33
17 17 18 19 19 19 19 19 19 19 19 19 19 19 18 17 17 15 14 13 12 12 12 13 12 13 14 14 15 14 15 16 17 19 20 23 24 25 25 25 24 24 24 25 26 27 27 28 29 31 32 33 35 37
14 14 15 15 15 16 15 15 16 16 17 18 18 18 18 19 19 17 15 14 13 12 11 10 10 12 13 15 17 19 17 16 18 19 21 22 23 24 25 25 25 26 27 27 28 28 30 31 32 34 35 36 37 39
9 9 10 11 15 15 15 16 16 16 17 18 18 19 20 21 22 21 20 20 19 18 16 16 16 16 16 15 16 18 21 24 25 25 25 25 25 25 26 27 27 28 28 29 30 31 32 33 34 35 36 37 38 38

GFSWCAN_500_spd_114.txt.gz
Wind_Speed
24 24 22 18 14 21 23 23 24 25 27 28 29 28 31 32 36 49 36 36 34 33 28 33 30 25 18 22 28 33 29 32 27 28 28 26 29 29 29 27 27 25 24 21 24 22 22 19 20 19 20 20 20 22
22 18 15 17 20 21 21 23 23 22 24 27 30 32 29 37 40 36 33 32 31 28 29 32 29 25 20 24 29 32 24 27 23 27 28 26 23 25 22 23 24 23 22 24 24 17 17 15 18 19 17 14 13 13
17 17 16 15 15 18 21 24 21 24 27 34 40 42 39 36 36 31 30 28 29 30 24 12 19 18 22 24 27 28 25 27 26 26 26 23 20 19 19 19 19 20 20 19 18 17 16 17 14 13 12 11 11 9
14 12 14 16 15 17 23 26 24 32 38 46 50 41 37 36 26 25 29 30 34 31 22 17 15 14 22 26 24 27 26 27 27 28 28 24 22 24 19 17 19 20 20 16 17 18 17 16 13 12 11 11 10 7
21 23 21 27 22 20 23 31 40 44 49 48 40 35 32 28 24 27 30 34 26 28 24 22 21 21 20 22 21 21 21 20 20 19 22 23 21 21 24 19 16 16 17 18 17 18 16 14 12 12 10 13 9 8
32 31 26 24 29 26 35 41 47 48 44 39 37 37 30 30 33 25 25 28 30 27 21 19 21 24 25 18 18 16 17 17 18 20 22 23 20 20 20 17 16 16 17 17 16 16 16 15 13 11 11 12 11 11
36 32 26 29 30 29 34 38 38 37 35 32 29 29 30 32 25 25 24 28 28 26 22 19 19 22 28 25 22 21 17 18 16 15 19 16 14 12 14 16 16 15 15 15 14 14 16 15 14 12 10 11 11 10
33 25 26 29 31 31 29 34 33 28 28 27 25 27 32 27 28 25 25 29 30 26 21 19 17 20 23 21 20 20 19 17 16 17 15 14 13 12 12 15 16 15 16 16 16 16 16 16 17 13 10 11 12 9
27 24 24 26 27 27 23 28 26 24 24 24 28 32 26 27 27 24 25 22 20 18 14 11 15 16 18 20 19 16 17 15 15 13 14 15 13 13 15 16 17 18 19 19 19 19 19 17 18 19 13 14 14 12
26 25 27 26 23 21 22 23 23 24 23 26 32 28 27 28 27 23 21 19 15 10 10 14 18 19 19 18 16 17 17 15 15 16 14 12 13 16 19 20 21 22 23 24 25 25 24 23 20 21 21 17 17 17
28 25 23 22 21 19 20 22 24 28 31 32 31 28 29 30 25 21 18 16 12 12 13 20 24 21 19 17 15 14 14 14 13 12 14 14 16 19 21 24 27 29 31 32 33 32 31 29 26 23 25 22 20 20
24 21 19 16 15 16 21 27 30 31 32 33 34 31 28 28 22 17 16 12 13 14 18 23 21 18 16 15 13 12 12 12 11 12 13 15 19 21 24 26 27 29 32 35 37 39 38 34 30 26 25 26 24 22
20 18 15 13 15 17 22 24 27 29 30 34 35 30 28 26 23 17 12 11 14 17 20 19 17 15 14 14 12 12 11 10 11 12 14 14 12 12 14 16 17 21 26 30 33 32 31 32 32 30 28 26 24 24
19 15 14 18 19 20 23 27 26 28 30 31 30 28 25 23 18 11 11 14 19 21 18 18 17 15 13 11 11 10 10 10 10 10 10 6 7 10 12 12 13 16 14 13 21 25 27 30 30 30 28 26 23 25
18 18 20 22 24 26 25 25 27 29 28 26 25 24 23 18 14 14 17 18 19 17 16 15 14 14 12 11 10 9 9 10 9 10 4 5 8 8 10 10 8 9 6 5 12 18 23 24 26 27 27 25 24 23
19 22 23 22 24 25 24 24 28 29 27 23 22 20 18 16 15 19 18 15 16 15 13 14 14 12 11 10 8 9 10 8 9 7 2 5 6 4 5 8 6 6 3 5 9 14 10 18 24 26 24 23 25 26
21 23 22 23 24 26 26 25 27 28 27 23 20 18 18 16 18 17 17 15 15 13 14 13 12 10 9 8 9 9 9 11 9 7 1 5 3 3 4 4 4 3 1 10 15 11 12 16 21 21 19 19 22 22
21 23 21 25 26 26 25 24 22 23 22 18 17 18 17 16 16 16 14 14 13 14 13 12 11 8 6 8 7 8 11 9 9 7 5 5 3 4 4 2 1 2 4 12 10 9 12 16 15 14 15 15 17 18
21 22 23 21 22 23 23 24 24 23 22 20 18 18 18 15 13 13 15 16 15 14 12 10 7 6 7 7 7 8 9 8 7 5 5 4 3 2 2 1 0 3 5 9 11 10 10 12 13 14 15 15 16 17
20 21 21 22 21 21 21 19 19 20 20 19 18 18 16 14 14 15 16 15 13 12 11 9 7 6 5 7 8 9 10 8 7 4 3 2 2 2 2 2 3 4 4 6 8 11 14 17 18 17 17 19 21 21
16 18 18 19 21 22 21 19 18 18 20 19 17 16 16 15 15 15 14 13 12 12 11 8 6 4 5 6 9 9 10 8 7 6 5 4 3 3 3 3 4 4 4 5 6 9 12 14 15 17 20 21 20 21
12 13 15 16 16 18 18 19 18 19 19 18 17 17 16 16 15 14 13 12 12 12 11 9 6 4 5 7 9 10 11 10 7 6 4 4 3 4 4 5 5 6 6 6 7 8 8 11 13 15 17 17 17 19
9 11 13 15 16 15 17 17 18 18 17 17 16 15 15 14 14 13 12 12 13 13 13 11 9 6 5 8 10 11 12 11 10 9 8 5 3 4 4 4 5 6 7 8 9 10 8 8 10 14 16 17 17 19
4 5 12 13 14 14 15 16 17 17 16 16 15 15 14 13 13 13 13 13 14 14 13 13 11 9 8 8 11 14 16 14 13 13 12 9 7 5 5 4 5 6 7 7 9 11 12 12 13 14 15 17 19 20
1 3 8 14 14 14 14 14 14 14 14 14 13 13 13 13 12 12 12 12 13 13 13 13 13 12 12 12 11 13 17 19 19 18 16 15 13 11 10 9 8 9 9 9 10 12 13 15 17 19 19 20 21 22
8 8 9 13 14 14 14 13 13 13 13 12 12 12 12 12 12 13 12 13 13 13 13 13 13 14 14 15 15 16 17 19 23 24 22 20 18 17 15 14 14 13 13 14 14 14 15 16 18 20 21 23 24 26
12 12 13 14 14 13 12 12 13 12 13 12 12 12 12 13 13 13 13 14 14 14 14 15 15 15 16 17 17 18 19 20 22 24 27 26 23 21 19 18 17 18 17 16 17 18 17 17 17 19 20 21 23 25
12 14 16 16 16 16 14 14 14 14 13 14 14 14 14 14 14 15 15 15 15 15 15 15 15 15 15 15 17 17 18 18 19 20 22 27 26 24 21 20 19 18 19 20 19 19 20 19 18 18 19 21 23 24
12 12 13 15 16 16 16 16 16 16 16 16 16 16 16 16 16 16 17 17 16 16 16 15 13 13 13 13 14 16 16 16 18 19 20 21 23 24 23 21 19 17 18 20 21 20 20 20 20 19 20 22 23 25
11 11 13 14 15 15 15 16 16 17 17 17 17 18 18 19 19 19 18 18 18 16 15 15 15 14 14 13 12 11 11 9 9 11 13 16 18 21 23 23 22 21 21 21 21 21 21 21 22 23 24 25 27 28
17 17 17 18 18 19 18 19 19 19 20 20 20 21 21 21 20 19 19 19 18 17 17 16 15 13 11 10 11 12 13 14 15 14 13 14 15 17 19 21 22 22 22 22 23 23 23 24 25 26 27 29 31 32
15 15 16 17 18 19 19 19 19 19 20 19 20 20 20 18 18 18 19 19 18 17 15 14 12 10 9 9 10 11 13 15 18 17 17 18 19 20 21 22 23 23 24 24 24 25 26 26 27 29 30 31 32 34
11 11 12 13 16 16 16 16 16 16 17 17 17 18 18 18 18 20 22 22 22 21 19 17 16 15 14 14 15 16 15 15 15 16 19 23 25 24 24 25 25 25 26 26 26 27 28 29 29 30 30 31 32 33

GFSWCAN_500_spd_117.txt.gz
Wind_Speed
24 23 25 23 14 7 12 19 25 28 30 32 34 35 36 36 36 36 35 35 34 34 35 39 38 32 30 22 22 22 28 42 41 33 37 29 35 35 33 31 33 31 30 29 30 29 22 19 26 29 25 25 24 24
27 27 24 22 13 11 16 16 19 21 25 28 30 31 32 32 33 32 30 32 39 32 33 37 34 31 30 20 21 22 28 29 37 33 34 23 25 22 25 29 32 34 30 27 27 21 21 22 24 21 19 21 23 21
23 24 18 17 15 19 22 20 15 19 22 25 27 29 27 29 29 28 28 35 36 35 31 24 24 31 31 25 19 22 26 25 21 19 22 31 29 26 28 27 27 27 24 24 24 23 24 24 21 19 19 18 17 16
15 13 12 14 17 18 19 26 28 23 20 26 30 28 30 30 38 42 34 29 22 24 19 13 16 23 24 24 22 21 26 27 23 24 23 21 23 24 25 21 19 19 20 23 23 20 17 19 20 17 15 14 13 12
9 9 10 11 15 20 22 26 24 23 29 37 42 39 35 40 36 29 25 24 25 23 23 19 18 19 25 23 21 23 27 24 22 21 22 23 26 26 23 17 16 18 20 21 20 20 19 19 18 17 15 12 12 13
20 17 17 17 14 8 24 26 26 42 52 46 43 40 39 34 31 29 30 27 25 32 26 16 11 23 21 25 24 26 25 22 21 20 22 22 19 19 20 22 23 19 19 17 17 17 17 18 17 16 15 13 14 14
20 17 19 18 11 22 29 41 53 59 46 46 41 37 33 33 24 23 26 28 32 25 17 16 15 12 15 20 16 17 17 17 19 20 18 18 22 25 21 19 23 18 15 16 16 16 16 18 18 16 14 13 13 15
23 23 23 23 36 45 51 55 51 43 39 36 33 33 31 25 29 25 32 30 32 25 19 16 16 14 17 19 18 15 15 14 14 16 17 23 23 19 17 16 16 16 14 14 14 15 15 16 17 17 15 13 14 14
26 28 27 31 40 38 41 41 37 37 36 34 31 25 26 29 25 24 28 30 27 24 21 16 15 15 18 21 21 20 17 17 16 15 17 18 18 15 14 13 15 15 15 16 15 16 16 16 18 18 17 15 15 15
25 31 28 30 34 35 34 32 30 28 26 25 27 32 29 30 26 28 26 24 22 18 18 16 17 15 15 16 16 17 17 17 15 15 14 13 14 14 13 13 14 15 16 18 19 19 19 20 21 20 22 21 18 18
24 26 28 26 26 30 26 23 26 25 23 23 33 29 32 27 23 22 21 19 17 15 15 18 21 17 17 18 16 15 14 13 13 13 13 14 15 14 15 17 18 20 22 24 25 26 26 26 25 25 24 25 25 22
23 23 21 22 23 25 25 24 23 23 24 31 30 32 29 25 23 21 19 18 13 13 14 17 20 21 19 16 14 14 15 15 14 13 13 14 15 16 18 20 24 27 30 32 34 35 35 34 32 30 28 26 28 26
21 19 18 18 17 21 24 28 30 27 29 29 30 30 28 26 22 18 15 12 12 13 14 16 18 18 17 16 15 12 12 11 10 12 12 13 16 18 17 18 21 22 24 26 29 34 37 37 36 36 33 31 30 29
16 14 12 13 16 21 24 28 27 29 31 30 29 28 26 21 16 13 11 13 14 14 17 19 17 15 13 14 12 10 9 10 9 10 12 13 11 10 12 15 17 17 19 23 27 27 29 32 31 34 33 33 30 28
11 12 12 16 19 23 24 25 25 25 29 29 26 22 20 15 13 9 11 14 15 18 19 16 17 16 13 11 10 9 9 8 9 11 8 6 7 10 11 12 13 13 16 19 12 8 13 20 22 26 26 29 27 26
9 13 16 15 19 22 23 24 23 22 23 24 23 21 18 16 10 10 13 14 15 14 12 13 14 12 12 10 9 8 8 10 10 8 7 4 6 7 6 7 10 11 10 9 5 3 5 10 17 19 23 25 24 24
13 16 17 18 20 22 23 25 25 24 23 21 19 18 16 14 14 15 14 15 14 12 11 12 12 11 9 8 7 7 10 10 9 10 6 3 6 7 7 8 8 8 8 2 10 2 7 10 9 16 18 19 18 19
15 16 19 22 22 23 24 26 25 24 21 18 16 15 16 16 17 15 16 16 15 14 13 13 12 10 8 6 8 9 8 8 10 11 7 6 8 7 8 8 6 4 2 7 6 1 3 5 7 11 16 19 19 21
19 20 22 23 23 22 23 25 24 22 18 16 17 17 17 15 15 17 16 16 16 15 14 12 11 9 7 7 7 6 8 9 9 9 9 9 7 6 6 5 3 2 3 8 8 5 3 7 10 12 13 15 16 18
22 22 22 22 21 22 22 22 21 22 21 19 18 16 15 15 14 15 15 15 16 15 13 12 10 6 6 6 7 7 10 9 8 6 6 6 5 5 5 3 2 4 5 6 8 10 10 10 10 10 11 14 16 17
18 19 19 20 21 21 20 20 20 20 19 16 15 16 15 14 14 14 16 16 15 14 13 11 8 5 5 6 8 8 11 10 8 7 6 6 5 5 5 5 5 6 6 7 8 9 11 13 14 15 16 17 18 18
12 13 16 18 19 20 18 18 18 18 17 16 16 15 14 13 13 15 15 15 14 14 13 11 8 5 4 5 7 8 11 11 9 7 6 5 5 6 7 7 6 6 7 8 9 9 8 9 13 17 19 19 19 20
8 11 12 13 14 17 18 17 16 16 17 17 17 16 15 15 15 15 15 14 13 13 13 12 10 8 6 5 7 9 10 12 12 10 9 8 7 7 7 7 7 6 7 9 10 10 10 10 10 10 15 18 20 21
5 7 10 13 14 15 15 17 17 18 18 18 16 16 15 15 15 14 14 14 13 13 13 13 12 11 10 8 8 8 11 14 14 14 13 12 11 9 8 7 7 5 4 6 8 9 10 11 13 13 13 13 14 16
1 2 9 11 12 13 15 17 18 18 17 17 17 17 16 15 15 15 14 13 13 13 13 13 14 14 13 12 12 11 12 14 16 18 18 16 15 14 13 12 12 11 10 9 9 9 10 11 12 14 16 18 19 20
6 6 6 12 13 14 14 15 16 16 17 16 16 16 15 15 15 14 13 13 13 13 13 13 14 14 15 15 15 15 15 16 18 19 21 22 22 21 19 18 17 16 15 15 14 14 14 14 15 15 16 17 19 20
11 12 10 12 15 15 15 16 16 16 16 16 16 15 15 14 13 13 14 14 14 14 15 15 16 16 17 17 18 18 19 20 20 21 22 24 26 27 25 23 22 20 18 17 17 18 16 16 17 18 18 18 18 18
16 14 16 16 16 16 16 16 15 15 15 15 15 15 14 14 14 15 15 16 16 17 17 17 17 17 18 18 19 19 19 20 21 22 22 22 23 25 28 28 26 23 22 20 19 18 18 19 20 18 18 19 19 19
15 16 16 18 19 20 19 18 18 17 17 17 17 17 16 16 17 17 18 18 19 19 19 19 18 18 18 17 17 17 17 18 18 20 21 22 21 21 21 24 26 25 23 22 21 20 19 19 20 21 20 20 20 20
15 15 16 17 18 18 19 20 20 20 20 20 20 20 19 19 19 20 20 20 20 21 21 20 19 18 17 15 15 15 15 14 13 14 14 14 13 16 17 17 19 20 22 23 23 22 22 21 21 21 22 23 23 24
15 15 16 16 17 18 19 20 20 20 20 21 22 21 21 21 22 22 23 23 22 23 22 22 20 19 17 16 15 13 12 11 12 13 14 14 13 12 13 16 18 19 20 21 21 22 22 23 23 23 24 25 26 28
19 19 19 19 20 20 22 23 23 23 23 24 24 24 24 24 24 24 23 22 22 22 23 22 20 18 17 16 14 13 12 11 11 12 13 15 16 17 18 18 19 20 22 23 25 25 25 25 25 25 26 27 29 29
16 17 18 19 20 20 21 21 21 22 22 22 22 22 23 23 22 21 22 22 22 23 23 22 20 19 19 18 17 16 15 14 14 14 15 15 15 16 18 21 23 24 25 25 26 26 26 26 26 26 27 27 28 29

GFSWCAN_500_spd_120.txt.gz
Wind_Speed
16 18 18 25 31 35 35 38 44 44 43 42 40 39 38 36 35 34 36 39 38 36 35 36 34 32 30 26 31 31 28 33 34 36 39 34 34 40 50 42 35 32 32 34 33 35 36 29 28 28 25 25 25 24
21 19 21 25 27 23 22 23 35 45 47 48 43 37 36 33 35 36 35 35 33 32 30 35 35 31 32 31 29 25 24 22 22 33 33 32 22 36 29 36 33 33 31 30 33 34 30 28 26 22 21 22 21 21
17 21 25 26 23 23 17 16 16 19 27 33 36 36 34 35 36 34 32 31 30 30 32 34 33 34 29 28 23 21 20 21 24 26 32 32 30 26 29 24 24 23 27 31 34 30 27 27 26 22 20 21 21 19
28 26 21 16 18 17 19 19 16 15 17 23 27 29 30 31 30 29 29 27 30 32 29 23 23 26 29 28 27 17 20 21 21 19 17 34 19 31 33 20 22 24 27 27 27 25 25 26 26 25 23 18 18 15
14 16 12 11 13 19 27 25 20 15 19 21 25 28 30 31 31 31 27 25 28 30 22 19 21 20 23 27 25 22 19 18 25 20 19 21 17 18 21 23 23 21 21 21 21 24 24 24 24 22 19 18 15 15
10 7 6 9 15 18 25 27 28 19 23 21 29 27 35 37 37 33 30 31 24 15 17 19 4 14 22 26 27 28 19 19 22 17 15 16 19 21 24 25 21 21 20 18 19 21 20 18 17 17 18 17 16 14
12 7 7 7 10 23 24 25 23 26 29 32 35 33 36 38 36 33 29 24 21 15 13 11 9 17 23 24 22 21 17 20 20 18 18 17 19 22 19 17 20 21 21 20 17 17 16 18 18 19 18 17 16 14
17 14 6 1 13 26 28 34 46 46 42 42 42 38 34 28 25 26 24 25 21 18 14 15 17 15 25 21 18 21 22 19 17 17 21 23 21 20 23 21 19 18 17 17 14 15 17 17 18 19 19 18 17 15
25 21 13 23 36 51 56 50 44 41 44 43 34 31 31 26 19 27 26 27 23 20 16 14 12 10 14 16 17 18 16 16 16 17 18 18 20 22 22 20 18 16 16 15 14 16 15 16 17 19 20 19 18 16
29 34 43 51 51 47 45 43 43 39 37 35 32 29 29 25 24 27 27 23 24 19 14 13 9 9 11 14 17 18 16 15 14 15 17 18 21 21 17 13 13 13 14 15 14 15 16 17 18 19 21 21 19 17
35 35 37 36 33 32 34 32 33 34 30 26 23 28 28 25 28 28 27 25 20 18 17 17 16 16 17 15 16 15 15 14 14 12 13 12 13 12 11 11 12 13 14 16 17 18 19 20 20 20 21 22 23 23
26 29 31 29 28 26 24 23 21 21 20 28 28 31 32 25 24 24 22 20 18 16 17 17 16 18 18 16 15 15 15 14 11 11 12 12 11 11 12 14 16 18 20 22 23 25 26 27 27 27 27 26 25 27
22 22 25 28 26 25 25 22 18 19 30 30 31 30 26 25 25 23 20 18 15 14 15 16 18 18 17 15 13 12 12 11 11 10 9 9 10 12 14 16 18 19 21 23 24 24 26 28 29 31 33 33 31 30
15 16 17 18 21 22 22 23 23 29 31 29 27 25 23 21 18 16 16 16 15 16 17 18 18 17 14 14 12 10 9 8 9 8 8 9 11 11 9 10 13 17 20 20 21 24 28 32 34 35 34 36 35 34
13 13 15 17 19 19 22 26 30 31 30 28 26 23 21 16 13 11 11 13 16 18 18 17 16 15 13 11 10 9 8 6 6 7 9 7 5 5 8 10 12 16 16 16 20 25 26 22 22 26 29 31 32 30
7 11 14 19 22 24 22 21 22 26 28 27 24 21 17 12 8 10 13 15 15 15 15 15 14 12 11 10 8 7 6 6 7 8 6 4 4 7 7 7 11 13 13 11 11 10 10 4 6 12 16 20 24 24
4 13 15 19 21 21 21 20 21 22 23 23 20 17 14 13 10 13 16 16 15 14 13 13 12 11 9 8 8 6 6 8 8 5 7 7 6 7 8 9 12 13 12 6 2 8 4 0 2 10 13 14 17 20
13 15 18 21 21 21 23 23 22 21 21 18 17 15 15 13 15 15 16 16 15 12 12 12 13 11 9 7 6 6 8 7 5 6 9 7 7 9 9 9 11 11 8 1 3 4 3 2 4 5 10 11 16 16
14 17 19 18 18 20 21 22 21 20 19 17 16 16 15 16 17 16 13 14 14 11 10 11 11 10 8 5 6 7 6 6 6 8 10 10 10 10 9 8 8 8 6 5 7 7 4 5 6 7 9 12 15 16
17 17 17 17 18 20 19 17 17 16 15 15 16 17 18 16 15 14 14 12 13 12 13 12 11 8 6 5 6 6 6 7 8 7 7 8 9 8 7 6 5 6 6 6 8 8 7 7 7 8 11 13 15 18
13 15 16 16 17 18 18 19 16 15 16 15 16 16 15 14 13 14 14 14 14 14 13 12 10 7 4 5 5 6 7 9 9 9 8 6 6 7 7 7 7 7 7 8 9 10 11 10 10 10 11 14 14 15
10 12 13 13 15 15 16 17 18 18 16 15 15 16 14 12 11 11 14 14 15 14 13 12 10 7 4 3 4 6 8 11 11 11 10 8 7 7 8 9 8 8 10 11 10 10 10 10 11 10 12 14 15 17
6 8 11 13 13 13 13 14 15 16 15 15 15 14 13 12 12 13 13 14 14 13 13 13 12 10 7 5 4 5 7 10 13 13 11 9 9 8 8 9 9 8 9 10 8 8 9 10 11 11 12 12 13 16
2 6 9 10 12 15 16 15 14 13 15 16 15 14 14 13 13 13 14 14 14 14 13 13 13 12 11 9 8 7 8 9 11 15 16 15 14 13 12 11 10 10 9 9 7 6 7 9 10 10 11 12 13 14
2 3 8 10 11 12 13 15 16 16 16 17 16 16 16 15 15 15 14 14 14 14 14 14 14 14 14 14 13 12 12 12 13 14 16 17 18 18 17 16 16 15 15 14 13 12 11 11 10 11 11 13 14 15
8 7 7 10 11 11 13 14 15 17 18 17 17 17 17 17 16 15 15 15 15 15 14 14 14 14 15 15 15 16 16 17 17 18 18 19 22 24 24 24 22 21 20 20 18 17 17 16 15 14 13 13 14 15
14 12 12 11 13 15 13 14 16 16 17 17 17 17 17 17 16 15 15 15 15 15 14 14 14 15 16 16 17 18 19 20 21 21 22 23 23 25 26 28 28 27 26 24 23 22 20 19 18 18 17 16 17 17
19 18 16 16 15 16 17 16 16 17 17 17 18 17 17 16 16 17 17 16 16 16 16 16 17 18 18 19 20 20 21 21 23 23 24 25 25 25 26 26 28 29 30 29 26 24 23 22 22 21 21 20 19 19
15 18 20 19 19 19 19 19 18 18 19 19 18 18 18 18 17 17 17 17 17 17 18 19 19 20 21 21 21 21 21 21 22 22 22 23 23 23 24 23 23 22 23 25 27 26 25 24 23 23 23 22 20 20
14 16 17 19 20 22 23 23 22 22 21 21 21 20 20 20 20 20 20 20 20 20 21 21 22 22 22 21 21 20 20 19 18 18 18 17 16 16 17 18 18 18 17 18 18 19 21 23 24 24 23 22 22 23
17 16 17 18 20 21 22 23 24 24 24 24 23 23 23 23 23 23 23 23 23 23 24 24 24 24 24 23 20 18 17 16 15 13 13 13 14 14 14 13 12 14 15 16 18 19 20 20 21 22 23 24 25 25
19 20 20 20 21 20 21 22 23 24 25 25 25 26 26 25 25 26 26 26 27 26 26 26 25 25 24 22 20 19 18 17 15 12 11 11 11 12 13 14 16 18 19 20 21 22 23 24 25 26 27 27 27 27
19 21 22 23 24 24 24 25 25 26 27 27 28 28 28 27 27 27 28 27 27 27 26 25 24 23 23 21 20 20 19 19 17 16 15 14 14 15 16 16 17 17 18 18 19 21 23 25 26 27 28 28 28 27

GFSWCAN_500_spd_123.txt.gz
Wind_Speed
13 9 18 21 21 28 27 30 29 39 46 38 32 32 32 34 42 47 46 46 51 50 45 40 38 38 39 36 34 35 37 37 38 41 41 40 40 40 39 36 33 27 25 47 42 29 31 27 32 33 32 31 29 29
9 14 16 18 20 28 29 28 34 37 34 27 32 35 36 43 40 35 38 42 45 55 49 45 39 36 34 32 32 33 30 30 32 33 39 37 36 34 34 32 27 41 40 38 33 30 29 29 31 31 29 29 27 22
11 14 15 13 21 24 22 23 24 32 35 31 30 34 37 38 33 33 37 36 40 43 46 42 35 36 38 37 30 21 22 28 26 23 23 26 29 27 36 23 26 27 35 32 30 29 29 31 33 32 30 28 22 19
7 11 13 16 25 24 26 27 27 29 39 45 43 40 41 34 41 34 34 35 35 35 35 34 35 34 30 34 31 27 25 25 26 25 25 23 27 24 24 25 19 16 19 21 24 28 31 32 31 30 29 25 22 20
20 19 18 21 26 27 25 23 23 16 17 22 29 34 40 39 35 33 32 29 28 26 25 27 26 23 26 28 26 25 22 22 18 17 18 13 18 20 22 22 20 23 21 23 23 25 25 25 25 24 25 23 24 20
8 14 9 10 17 19 21 25 17 16 15 15 21 26 31 35 33 30 29 29 28 26 26 20 18 22 24 28 27 25 24 16 19 13 23 13 19 17 19 14 15 19 22 23 21 19 21 24 21 22 22 20 19 19
8 3 6 11 16 23 30 25 21 20 17 20 25 31 33 33 30 28 27 29 33 26 15 6 14 11 22 26 27 30 18 16 18 15 25 24 20 18 18 18 21 23 24 21 19 19 18 19 19 19 15 17 19 19
11 5 8 9 13 23 27 26 21 24 22 24 26 31 36 39 39 37 36 28 21 19 11 7 4 12 20 19 19 18 17 19 23 19 17 17 17 17 18 20 21 20 18 19 20 19 16 15 16 17 18 19 19 18
3 9 13 21 23 27 24 25 33 36 38 40 43 41 37 39 35 29 28 23 15 16 8 8 17 24 20 20 20 20 23 17 17 17 17 17 19 20 19 20 19 16 16 15 16 14 13 14 17 18 19 19 19 18
21 26 32 35 35 44 47 49 43 39 36 39 37 33 29 28 28 26 20 21 18 13 12 18 17 19 18 22 16 18 19 20 19 15 16 15 17 17 18 18 17 17 16 14 13 15 15 14 15 17 18 20 20 20
42 47 48 47 48 48 47 45 43 40 36 33 32 30 27 28 26 21 18 23 22 19 18 15 12 12 16 17 16 15 15 14 14 13 12 13 14 14 15 16 14 13 12 12 12 14 15 15 17 17 19 20 21 22
31 31 31 34 34 35 36 34 31 28 27 27 26 25 26 24 29 27 25 21 19 16 13 10 9 10 12 14 14 17 17 15 15 12 11 11 9 11 11 12 12 12 13 15 16 17 18 19 20 21 22 22 23 24
22 23 25 25 26 27 27 23 18 18 20 24 26 24 26 23 19 19 18 16 14 12 10 9 10 12 14 14 14 16 15 13 12 11 10 12 11 11 12 12 14 15 17 19 21 23 24 24 25 26 27 29 29 29
20 18 18 18 17 17 19 16 14 24 24 28 27 31 28 22 15 13 14 14 13 11 12 13 13 14 15 15 14 12 11 11 10 10 8 8 9 10 11 10 9 10 12 16 18 18 19 20 22 25 27 29 31 34
15 16 19 19 19 17 15 15 18 24 24 27 24 24 19 16 16 14 13 14 13 12 13 15 15 17 15 14 12 11 9 8 7 7 7 7 8 7 6 6 6 7 11 15 14 14 17 22 26 30 31 32 33 34
8 12 14 16 17 18 18 19 26 25 24 23 19 16 16 12 12 13 13 13 14 16 16 16 15 13 11 10 10 8 7 6 6 5 6 6 6 4 4 5 5 9 13 15 15 10 12 16 14 7 8 18 21 24
4 12 14 15 19 21 20 27 26 23 21 20 18 15 12 10 8 11 13 15 17 18 17 15 14 13 11 11 9 8 7 5 6 6 6 8 6 3 5 6 8 11 13 12 8 6 9 11 9 5 3 5 12 19
8 12 15 17 20 22 22 25 24 23 22 20 17 15 13 11 10 13 17 18 17 16 16 15 14 12 11 9 8 7 6 7 6 6 9 9 6 4 6 7 8 10 10 8 2 3 7 6 4 2 3 4 7 11
12 13 17 17 19 20 21 21 20 20 20 20 18 15 15 11 13 15 17 16 14 12 11 11 11 12 10 8 6 6 7 7 6 7 9 9 8 6 8 7 7 8 8 7 7 7 9 9 7 5 4 6 7 10
13 14 15 15 15 16 17 18 20 20 18 17 17 16 15 13 16 15 13 13 12 11 10 12 12 10 9 7 5 5 5 5 6 7 8 7 7 7 7 5 5 7 7 7 8 9 7 7 8 8 8 9 9 12
9 12 12 12 14 16 18 18 18 17 16 17 17 16 15 16 15 13 14 12 11 12 12 12 10 10 8 6 5 4 4 5 6 8 8 6 6 5 6 6 6 7 8 8 8 10 10 9 9 8 9 10 12 12
6 7 8 8 11 13 15 16 16 16 14 14 15 16 16 14 13 13 13 12 12 12 12 12 12 11 8 5 3 4 5 6 9 10 9 9 8 8 8 7 7 7 8 10 11 11 12 12 11 10 9 10 12 14
3 4 5 6 8 10 11 13 14 14 13 12 13 14 14 13 12 12 12 12 13 13 13 12 13 12 9 6 4 3 3 4 7 10 10 11 10 9 9 9 9 8 8 8 8 8 9 9 8 9 11 11 11 11
1 4 7 9 10 10 10 10 11 12 13 14 14 14 15 13 12 12 12 12 13 13 13 13 14 14 13 10 8 7 6 5 6 7 11 14 15 16 15 14 14 12 11 10 10 9 9 9 9 9 10 9 10 11
5 4 5 8 10 12 15 16 15 14 14 15 16 16 16 15 14 13 12 12 13 13 13 13 14 14 14 14 13 12 12 11 11 11 12 14 15 17 18 19 19 19 18 17 16 16 15 14 14 13 13 12 11 11
10 9 8 7 9 11 12 13 14 16 17 16 16 16 16 16 15 15 14 14 14 14 14 15 15 14 15 15 15 15 15 15 15 16 17 18 19 20 21 23 24 25 25 24 23 22 22 21 20 19 17 16 15 15
16 15 13 12 11 11 12 12 13 14 15 15 17 17 17 17 16 15 16 16 16 16 15 15 15 15 15 15 15 16 16 17 18 19 20 21 22 23 24 25 26 27 28 29 29 29 27 26 24 23 22 21 20 20
18 18 18 17 15 14 14 16 15 14 15 16 18 19 18 17 17 19 19 18 18 17 17 17 16 16 16 17 18 18 19 19 20 21 22 23 24 24 25 26 26 26 25 25 26 27 29 28 26 24 24 23 23 23
13 14 16 18 18 18 17 17 18 18 17 17 18 18 18 18 19 19 19 18 19 18 18 17 17 17 17 18 18 19 19 20 21 22 22 23 23 23 23 24 24 23 23 22 22 21 20 21 22 22 22 22 23 23
15 14 14 15 18 19 20 20 21 21 21 21 20 20 20 20 20 20 20 19 19 19 19 19 19 19 19 19 20 20 20 21 21 20 19 19 18 18 17 18 18 16 15 15 16 16 16 16 18 18 18 18 19 20
17 19 18 17 17 19 21 21 22 23 25 25 24 23 22 22 22 22 22 22 22 22 22 22 22 22 22 22 22 22 22 21 19 18 16 15 13 12 11 12 12 13 13 12 12 12 14 16 17 18 19 20 23 24
18 19 20 21 21 21 20 21 22 22 23 25 26 26 26 25 25 25 25 25 24 25 25 25 25 25 24 24 23 23 22 20 19 18 16 15 13 11 10 10 10 11 11 12 13 16 18 19 21 22 23 24 26 27
20 20 20 21 23 25 26 25 24 24 25 25 26 26 27 27 27 27 28 28 27 27 27 27 27 26 26 25 25 24 23 21 20 18 18 17 16 15 14 14 15 16 18 19 20 20 20 20 21 20 21 21 22 24

GFSWCAN_500_spd_126.txt.gz
Wind_Speed
34 33 26 15 19 27 25 14 19 26 41 47 46 44 43 38 37 41 41 37 30 33 42 44 41 38 35 34 31 31 31 32 34 37 38 37 38 38 37 33 34 36 32 33 33 36 36 31 30 31 25 27 30 32
28 19 14 18 22 27 26 19 28 34 50 36 33 36 36 36 40 38 39 40 36 32 37 44 47 49 46 39 34 31 28 28 32 32 28 28 30 35 35 35 36 38 33 29 36 31 30 37 22 21 24 30 29 29
16 12 16 18 23 28 28 21 32 34 31 34 31 37 33 30 33 37 37 34 35 38 46 50 48 46 46 35 35 32 32 31 25 28 29 24 27 25 29 34 34 31 32 36 38 40 32 30 28 31 30 29 30 33
4 13 18 18 23 25 28 19 19 29 33 36 36 30 29 27 25 28 31 38 41 35 35 42 53 48 40 37 34 32 28 30 28 25 26 23 22 22 25 27 27 26 22 25 25 24 26 25 28 31 31 33 34 33
14 9 13 20 22 20 21 21 19 21 22 23 21 22 25 26 27 28 32 32 35 31 33 39 44 48 42 36 34 37 30 26 26 22 28 28 25 23 21 21 17 19 22 20 18 19 21 25 29 29 29 32 31 29
9 10 12 14 24 25 18 15 21 18 24 24 29 32 31 29 30 32 31 36 28 25 21 22 26 33 36 31 28 31 31 26 26 25 25 25 23 19 19 18 18 16 17 20 21 21 24 24 21 21 22 24 24 24
2 8 10 12 13 21 22 22 22 26 29 32 33 35 36 38 39 34 25 21 21 21 19 19 18 16 20 24 28 32 32 25 23 22 21 22 21 16 16 15 16 16 16 19 22 25 24 21 20 21 22 20 21 21
5 5 8 15 17 21 23 24 20 17 16 18 21 23 25 26 29 26 22 23 28 31 23 13 13 9 20 23 28 26 26 23 21 19 17 16 19 17 17 17 19 19 20 22 21 20 20 21 20 18 18 18 16 16
10 5 12 15 21 30 31 27 19 15 19 24 27 30 31 31 32 29 34 32 23 19 12 6 7 3 17 23 25 25 24 22 18 19 17 14 17 17 18 19 19 20 17 15 15 16 18 18 17 15 14 15 17 18
15 20 21 26 28 25 28 26 25 23 28 31 35 44 41 34 31 32 25 21 22 13 6 3 9 15 24 22 26 22 20 17 16 21 17 17 17 19 20 20 19 16 15 15 16 16 16 14 13 14 16 16 19 18
30 28 29 30 31 33 37 37 35 39 41 41 38 31 29 28 27 23 20 17 13 7 8 12 18 21 20 20 16 20 22 19 18 20 20 19 19 19 16 13 13 16 15 13 12 12 14 15 15 15 15 16 18 20
49 51 53 50 47 45 43 36 36 34 35 34 29 31 28 22 15 11 15 16 13 12 16 19 17 17 16 18 19 17 18 19 19 20 20 18 17 14 12 13 14 13 12 12 12 12 14 15 16 17 17 18 19 21
35 36 37 37 34 33 32 31 31 29 24 25 27 27 25 21 15 17 18 16 13 12 11 9 9 10 14 18 18 18 17 18 18 17 14 14 10 8 9 9 11 13 14 16 17 19 21 22 23 24 25 25 25 25
23 25 26 25 22 22 21 21 22 22 22 25 23 20 21 21 18 17 14 15 14 11 8 6 6 8 12 14 16 15 15 14 14 13 12 12 13 12 11 12 13 13 12 11 12 14 17 19 21 23 24 26 28 30
15 18 18 20 18 15 14 18 18 22 23 19 13 18 18 12 12 15 16 14 10 7 6 7 10 13 14 14 14 14 13 13 11 11 11 10 10 11 12 11 9 7 5 5 10 13 11 12 15 19 23 27 30 31
13 13 11 10 8 8 10 11 19 25 20 13 17 21 12 9 10 12 10 9 9 7 7 11 14 14 14 13 13 13 11 10 9 9 9 10 9 9 7 5 7 5 5 8 10 9 6 9 13 15 12 13 19 30
4 11 15 16 15 13 10 13 18 20 21 18 17 15 13 11 10 11 10 10 11 11 14 15 14 13 12 12 12 12 10 10 9 7 8 9 10 8 4 3 6 6 6 8 8 2 4 8 10 12 12 9 5 4
4 7 11 15 17 17 16 19 19 18 20 18 14 12 11 10 8 10 11 13 14 16 17 15 14 14 12 13 11 10 9 9 7 7 8 11 11 6 4 2 3 4 6 6 6 5 3 7 10 10 9 8 7 6
5 9 13 17 18 17 21 23 21 19 19 18 15 13 12 11 9 11 14 15 16 15 14 12 13 12 12 11 10 9 8 8 8 8 10 13 11 8 4 3 3 4 5 6 6 7 11 13 13 10 9 8 8 7
5 9 13 15 18 19 20 23 22 19 18 18 16 16 13 11 10 12 15 15 13 12 11 12 12 13 12 11 9 7 7 7 8 9 11 11 10 9 6 4 3 4 7 8 7 7 8 9 9 9 10 10 9 8
7 9 11 13 16 18 18 19 20 18 17 18 18 16 15 13 13 14 12 12 12 12 11 11 13 12 12 10 8 7 7 7 8 9 10 9 8 6 4 4 5 7 8 9 9 9 10 10 10 10 10 10 11 11
5 5 5 7 10 12 14 14 16 16 16 16 17 17 16 14 14 15 14 14 13 12 12 13 14 13 13 9 7 7 6 6 7 8 10 10 9 8 7 8 8 8 8 8 9 9 9 10 10 11 12 11 12 12
1 3 5 5 8 11 14 15 17 17 17 15 15 15 16 15 15 14 14 15 14 14 14 15 14 14 13 10 9 7 6 5 6 8 10 11 11 10 10 10 10 9 9 9 9 8 8 9 9 9 9 11 13 14
3 3 4 5 6 9 12 14 16 17 16 15 14 15 16 16 15 14 14 14 13 14 14 15 14 15 15 14 12 10 9 8 7 7 8 10 12 13 14 15 16 16 15 14 13 12 12 12 12 12 12 12 13 13
7 5 4 7 9 11 12 12 12 13 14 16 16 15 15 16 16 15 14 13 13 14 15 15 15 14 15 16 16 15 14 12 12 11 12 12 12 13 15 16 18 19 19 20 20 19 19 19 18 18 18 17 17 16
12 10 9 8 8 11 13 14 16 18 17 17 17 17 18 18 18 17 16 16 15 15 15 15 15 15 15 16 17 17 16 16 15 15 15 16 16 18 19 20 21 22 23 24 25 26 26 26 25 24 23 22 22 21
16 15 14 13 12 11 12 14 14 15 17 18 20 21 20 20 19 17 19 18 18 17 17 17 17 17 17 17 17 16 16 16 16 16 17 18 19 20 21 22 23 25 25 26 26 27 28 29 29 28 27 25 24 24
13 13 15 15 15 15 15 14 16 15 15 16 17 19 19 18 18 21 21 20 19 18 18 18 18 18 17 17 16 16 16 17 17 18 18 19 20 20 22 23 24 24 25 25 25 25 24 23 22 23 25 25 24 22
15 13 12 14 16 17 18 18 17 17 19 18 18 18 18 19 20 21 20 20 20 19 19 19 18 18 18 18 18 17 17 17 17 17 17 18 19 20 21 21 21 22 21 20 20 19 19 19 19 19 18 18 19 20
15 16 16 15 14 15 18 21 21 20 20 21 22 21 21 20 21 21 21 20 20 20 20 20 20 19 19 18 18 18 17 17 17 18 19 19 19 19 18 17 16 15 14 13 12 12 11 11 11 13 15 17 19 19
17 17 18 19 20 19 18 19 21 23 24 23 23 23 24 23 23 23 22 22 22 22 21 21 20 20 20 19 19 19 19 19 20 20 20 20 19 18 16 14 12 11 9 9 10 12 12 13 13 15 16 17 18 20
20 19 18 19 20 21 23 21 19 20 22 23 24 25 26 26 25 24 24 24 24 24 23 23 23 22 22 22 22 22 22 22 22 22 21 21 20 18 17 15 13 11 10 10 11 12 13 14 15 16 16 17 18 19
21 20 21 22 22 21 21 23 24 24 23 23 23 23 24 25 26 27 27 27 27 26 26 25 25 25 25 25 25 25 25 25 25 24 23 22 21 21 20 19 17 16 15 15 17 19 21 22 22 23 23 24 24 25

GFSWCAN_500_spd_129.txt.gz
Wind_Speed
29 31 34 38 39 37 24 18 17 12 13 14 32 31 37 35 44 40 40 36 50 41 37 38 35 34 36 36 34 34 31 31 29 34 35 31 31 33 35 32 32 29 30 27 28 33 35 32 36 39 37 38 37 40
31 40 42 38 29 15 28 19 12 10 10 16 33 31 35 27 41 38 40 42 49 53 39 40 34 32 27 28 32 33 34 34 32 32 30 32 29 30 28 30 31 35 35 34 34 34 29 21 21 26 30 27 25 29
31 35 30 19 18 27 28 13 23 23 26 26 35 29 30 36 40 44 45 43 38 42 38 27 24 27 30 31 36 34 31 32 33 36 33 30 27 23 23 23 28 31 34 34 37 34 38 37 38 35 31 25 25 24
12 14 14 19 23 25 26 14 29 20 25 33 42 26 30 31 33 30 28 25 22 22 21 24 22 25 30 36 40 38 38 36 37 32 30 30 29 22 20 24 25 25 27 30 33 34 34 34 37 41 37 33 34 33
8 5 16 21 23 24 24 14 29 31 21 27 26 31 32 31 29 26 24 26 29 25 27 29 34 37 40 40 42 46 46 49 42 39 32 26 26 28 22 24 23 24 24 25 23 25 26 27 27 24 24 28 31 33
7 8 18 22 23 20 17 10 12 24 29 21 25 24 24 21 19 22 21 17 17 21 24 28 36 42 45 53 46 45 41 39 41 31 34 29 28 30 26 23 23 22 22 19 22 24 24 22 21 25 28 29 29 28
3 8 11 25 29 19 17 11 12 10 16 23 25 25 26 24 23 23 23 22 28 28 30 37 38 31 25 24 34 38 35 35 34 32 29 26 26 29 29 21 20 16 21 19 17 22 25 24 26 29 26 24 27 27
2 6 11 14 23 27 23 16 13 16 16 19 19 20 21 24 30 30 29 30 27 23 28 26 19 13 18 24 33 34 30 31 34 29 25 23 25 26 24 17 16 15 16 16 17 19 23 27 31 25 25 26 23 23
7 9 13 14 18 20 17 16 19 20 22 23 25 24 26 30 31 28 23 22 22 25 27 24 17 13 11 16 21 23 25 31 29 25 22 23 21 17 17 17 17 15 18 20 22 24 25 23 21 22 24 22 19 15
16 8 15 17 23 25 22 22 16 18 17 19 21 21 21 21 25 27 26 26 28 23 16 7 3 4 8 18 20 22 20 23 18 20 17 12 12 13 15 16 19 21 23 23 21 18 19 18 19 20 16 15 14 15
21 19 25 30 32 25 20 19 19 23 28 30 32 32 32 31 29 25 22 20 17 8 4 6 11 12 16 16 21 21 19 16 15 14 14 17 16 15 17 19 21 22 22 18 17 17 15 16 16 16 15 15 16 17
28 30 30 29 29 30 29 29 34 44 38 29 28 30 28 24 18 13 12 10 6 1 4 13 19 18 21 20 21 19 21 16 19 14 15 18 17 20 22 22 20 18 15 18 15 14 13 13 15 16 17 16 17 18
43 43 40 35 31 32 35 36 30 22 21 20 18 21 19 10 5 11 12 10 7 11 15 15 17 14 14 17 14 23 20 23 21 21 20 20 22 23 20 17 15 14 13 13 13 15 17 19 21 22 22 23 22 23
30 30 30 30 29 31 27 26 27 27 23 19 18 17 14 12 13 11 12 12 12 12 11 11 11 14 15 19 20 21 21 21 23 22 21 21 19 16 11 11 11 12 13 13 12 11 12 15 18 21 23 25 27 29
21 20 21 20 19 19 19 20 21 22 19 15 14 13 11 8 10 12 11 9 8 8 7 7 8 13 16 18 19 21 22 21 18 16 16 15 14 14 13 12 13 12 9 8 6 9 11 10 9 11 14 19 23 27
13 15 14 13 13 13 14 15 16 19 21 11 10 13 13 9 11 13 11 12 11 9 8 8 10 12 14 15 16 16 14 12 12 12 11 11 11 12 13 11 9 9 8 7 7 7 4 1 4 8 13 16 16 16
10 10 10 9 9 9 9 13 21 21 16 9 9 11 9 5 10 12 11 10 9 8 7 8 11 12 12 13 12 12 12 11 10 10 10 11 12 11 10 8 9 11 10 8 7 6 5 4 6 9 11 12 13 14
9 12 16 13 11 8 8 14 18 20 18 13 13 13 10 9 8 9 10 10 10 10 9 11 13 13 12 12 12 12 11 11 11 10 10 10 11 12 10 9 8 10 9 8 7 6 8 8 9 12 14 13 12 12
9 10 11 14 15 15 14 17 18 18 18 17 15 13 13 11 10 10 11 12 11 12 13 13 13 13 13 12 13 11 11 11 10 11 10 11 14 13 11 9 8 8 8 7 8 8 9 11 13 14 14 14 13 12
7 11 11 12 14 16 18 19 19 16 16 17 15 13 12 11 10 9 10 11 11 12 13 13 13 12 12 13 12 12 11 11 11 11 11 12 14 14 12 10 8 8 6 7 9 10 11 11 12 13 13 13 13 12
4 8 10 12 14 16 18 21 21 19 16 15 16 16 15 13 12 10 11 12 12 13 12 12 12 12 13 14 13 12 10 10 10 10 11 13 14 13 11 10 8 7 8 10 11 12 12 13 13 13 13 14 14 13
2 5 7 10 13 16 17 17 19 20 20 18 17 17 17 16 15 13 14 13 14 15 14 13 12 14 15 14 13 11 10 9 10 10 12 13 13 12 12 11 9 9 9 9 10 10 10 11 11 12 11 12 13 14
1 3 5 7 10 15 16 18 18 18 18 18 18 18 18 17 17 16 16 16 16 16 15 15 14 16 16 15 14 12 10 9 9 10 11 13 14 14 14 13 12 11 11 11 12 12 12 12 12 11 11 11 11 12
5 4 6 7 9 11 14 16 16 18 18 18 17 17 17 18 18 16 15 16 16 16 16 16 16 17 17 17 16 14 12 11 11 10 10 12 13 14 14 15 15 15 16 17 17 17 17 17 17 17 17 17 17 17
11 9 8 8 10 12 13 14 16 19 20 20 20 19 18 19 18 18 16 15 15 15 16 17 18 18 18 18 19 18 16 15 15 15 14 13 13 13 14 15 15 16 17 18 19 20 21 22 23 23 23 23 23 23
17 16 14 13 13 13 15 16 17 17 18 19 20 20 20 20 19 18 18 18 17 17 17 18 18 19 19 18 19 20 20 20 20 19 18 18 18 18 18 18 19 20 21 22 23 24 25 26 27 28 29 29 28 27
18 18 19 20 18 17 17 17 19 19 20 21 22 22 22 22 22 20 22 22 21 20 20 19 20 20 20 20 19 20 20 20 20 20 20 20 19 19 19 20 21 22 24 25 26 26 27 27 27 27 27 27 28 27
13 15 17 19 21 21 21 21 20 20 21 21 22 24 25 25 23 23 24 25 24 23 22 22 22 22 22 21 21 21 20 20 20 19 19 19 20 20 21 21 22 23 24 25 25 25 26 27 27 26 24 22 21 22
16 17 16 16 17 20 22 23 24 23 22 23 23 24 23 23 24 25 26 25 25 25 24 24 23 23 22 22 21 21 20 20 19 20 20 20 19 19 20 20 21 21 22 22 22 22 21 20 19 18 17 17 17 16
18 18 19 20 20 19 20 22 24 26 27 25 25 26 25 24 24 25 26 26 25 25 25 24 24 23 23 22 22 21 21 20 20 20 19 19 19 19 20 20 20 21 20 19 18 16 14 12 11 11 10 11 13 15
23 22 21 21 22 23 24 23 21 22 25 28 28 27 27 27 27 26 26 26 25 25 25 24 24 24 24 24 23 22 22 21 21 21 20 20 21 21 21 21 21 20 18 17 15 13 11 11 11 12 14 15 16 17
20 21 23 23 22 23 24 25 26 26 24 24 26 28 30 29 28 28 28 28 27 26 26 26 25 25 25 24 24 24 23 23 23 23 23 23 24 24 24 24 22 21 20 18 16 15 14 14 15 16 18 20 21 22
23 26 25 24 25 26 27 26 26 25 27 28 26 26 26 28 29 28 31 30 30 29 28 27 27 26 26 26 26 26 26 26 26 26 26 26 26 27 27 26 24 23 23 22 21 20 20 20 21 23 24 24 24 24